[[{"header":{"parameterUnit":"m.s-1","parameterCategory":1,"la1":30.6,"la2":29.2853,"lo1":-89.7004,"lo2":-87.6739,"dy":0.0162,"dx":0.0183,"nx":112,"ny":82,"refTime":"2024-08-23T00:00:00:Z","depth":0,"parameterNumber":2,"parameterNumberName":"U-component_of_WINDS"},"data":[0.0,0.0,0.0,0.0,0.0,0.0,0.0,0.0,0.0,0.0,0.0,0.0,0.0,0.0,0.0,0.0,0.0,0.0,0.0,0.0,0.0,0.0,0.0,0.0,0.0,0.0,0.0,0.0,0.0,0.0,0.0,0.0,0.0,0.0,0.0,0.0,0.0,0.0,0.0,0.0,0.0,0.0,0.0,0.0,0.0,0.0,0.0,0.0,0.0,0.0,0.0,0.0,0.0,0.0,0.0,0.0,0.0,0.0,0.0,0.0,0.0,0.0,0.0,0.0,0.0,0.0,0.0,0.0,0.0,0.0,0.0,0.0,0.0,0.0,0.0,0.0,0.0,0.0,0.0,0.0,0.0,0.0,0.0,0.0,0.0,0.0,0.0,0.0,0.0,0.0,0.915,0.9625,1.0019,1.0236,1.0209,1.0209,0.9897,0.9221,0.0,0.0,0.0,0.0,0.0,0.0,0.0,0.0,0.0,0.0,0.0,0.0,0.0,0.0,0.0,0.0,0.0,0.0,0.0,0.0,0.0,0.0,0.0,0.0,0.0,0.0,0.0,0.0,0.0,0.0,0.0,0.0,0.0,0.0,0.0,0.0,0.0,0.0,0.0,0.0,0.0,0.0,0.0,0.0,0.0,0.0,0.0,0.0,0.0,0.0,0.0,0.0,0.0,0.0,0.0,0.0,0.0,0.0,0.0,0.0,0.0,0.0,0.0,0.0,0.0,0.0,0.0,0.0,0.0,0.0,0.0,0.0,0.0,0.0,0.0,0.0,0.0,0.0,0.0,0.0,0.0,0.0,0.0,0.0,0.0,0.0,0.0,0.0,0.0,0.0,0.0,0.0,0.0,0.0,0.0,0.0,0.0,0.0,0.0,0.0,0.0,0.0,0.0,0.0,0.934,0.9862,0.9984,0.997,0.9903,0.989,0.9625,0.9008,0.0,0.0,0.0,0.0,0.0,0.0,0.0,0.0,0.0,0.0,0.0,0.0,0.0,0.0,0.0,0.0,0.0,0.0,0.0,0.0,0.0,0.0,0.0,0.0,0.0,0.0,0.0,0.0,0.0,0.0,0.0,0.0,0.0,0.0,0.0,0.0,0.0,0.0,0.0,0.0,0.0,0.0,0.0,0.0,0.0,0.0,0.0,0.0,0.0,0.0,0.0,0.0,0.0,0.0,0.0,0.0,0.0,0.0,0.0,0.0,0.0,0.0,0.0,0.0,0.0,0.0,0.0,0.0,0.0,0.0,0.0,0.0,0.0,0.0,0.0,0.0,0.0,0.0,0.0,0.0,0.0,0.0,0.0,0.0,0.0,0.0,0.0,0.0,0.0,0.0,0.0,0.0,0.0,0.0,0.0,0.0,0.0,0.0,0.0,0.0,0.0,0.0,0.0,0.8804,0.9442,0.9876,0.9795,0.9781,0.9713,0.9632,0.9361,0.8845,0.8798,0.0,0.0,0.0,0.0,0.0,0.0,0.0,0.0,0.0,0.0,0.0,0.0,0.0,0.0,0.0,0.0,0.0,0.0,0.0,0.0,0.0,0.0,0.0,0.0,0.0,0.0,0.0,0.0,0.0,0.0,0.0,0.0,0.0,0.0,0.0,0.0,0.0,0.0,0.0,0.0,0.0,0.0,0.0,0.0,0.0,0.0,0.0,0.0,0.0,0.0,0.0,0.0,0.0,0.0,0.0,0.0,0.0,0.0,0.0,0.0,0.0,0.0,0.0,0.0,0.0,0.0,0.0,0.0,0.0,0.0,0.0,0.0,0.0,0.0,0.0,0.0,0.0,0.0,0.0,0.0,0.0,0.0,0.0,0.0,0.0,0.0,0.0,0.0,0.0,0.0,0.0,0.0,0.0,0.0,0.0,0.0,0.0,0.0,0.0,0.0,0.0,0.0,0.924,0.9571,0.9795,0.9693,0.9598,0.9557,0.9381,0.9117,0.8737,0.8499,0.0,0.0,0.0,0.0,0.0,0.0,0.0,0.0,0.0,0.0,0.0,0.0,0.0,0.0,0.0,0.0,0.0,0.0,0.0,0.0,0.0,0.0,0.0,0.0,0.0,0.0,0.0,0.0,0.0,0.0,0.0,0.0,0.0,0.0,0.0,0.0,0.0,0.0,0.0,0.0,0.0,0.0,0.0,0.0,0.0,0.0,0.0,0.0,0.0,0.0,0.0,0.0,0.0,0.0,0.0,0.0,0.0,0.0,0.0,0.0,0.0,0.0,0.0,0.0,0.0,0.0,0.0,0.0,0.0,0.0,0.0,0.0,0.0,0.0,0.0,0.0,0.0,0.0,0.0,0.0,0.0,0.0,0.0,0.0,0.0,0.0,0.0,0.0,0.0,0.0,0.0,0.0,0.0,0.0,0.0,0.0,0.0,0.0,0.0,0.0,0.0,0.0,0.8757,0.9795,0.9822,0.9693,0.9551,0.9408,0.9137,0.8893,0.8723,0.8258,0.0,0.0,0.0,0.0,0.0,0.0,0.0,0.0,0.0,0.0,0.0,0.0,0.0,0.0,0.0,0.0,0.0,0.0,0.0,0.0,0.0,0.0,0.0,0.0,0.0,0.0,0.0,0.0,0.0,0.0,0.0,0.0,0.0,0.0,0.0,0.0,0.0,0.0,0.0,0.0,0.0,0.0,0.0,0.0,0.0,0.0,0.0,0.0,0.0,0.0,0.0,0.0,0.0,0.0,0.0,0.0,0.0,0.0,0.0,0.0,0.0,0.0,0.0,0.0,0.0,0.0,0.0,0.0,0.0,0.0,0.0,0.0,0.0,0.0,0.0,0.0,0.0,0.0,0.0,0.0,0.0,0.0,0.0,0.0,0.0,0.0,0.0,0.0,0.0,0.0,0.0,0.0,0.0,0.0,0.0,0.0,0.0,0.0,0.0,0.0,0.0,0.0,0.8506,0.9585,0.0,0.9557,0.9408,0.9309,0.9055,0.8832,0.8581,0.0,0.0,0.0,0.0,0.0,0.0,0.0,0.0,0.0,0.0,0.0,0.0,0.0,0.0,0.0,0.0,0.0,0.0,0.0,0.0,0.0,0.0,0.0,0.0,0.0,0.0,0.0,0.0,0.0,0.0,0.0,0.0,0.0,0.0,0.0,0.0,0.0,0.0,0.0,0.0,0.0,0.0,0.0,0.0,0.0,0.0,0.0,0.0,0.0,0.0,0.0,0.0,0.0,0.0,0.0,0.0,0.0,0.0,0.0,0.0,0.0,0.0,0.0,0.0,0.0,0.0,0.0,0.0,0.0,0.0,0.0,0.0,0.0,0.0,0.0,0.0,0.0,0.0,0.0,0.0,0.0,0.0,0.0,0.0,0.0,0.0,0.0,0.0,0.0,0.0,0.0,0.0,0.0,0.0,0.0,0.0,0.0,0.0,0.0,0.0,0.0,0.0,0.6217,0.8169,0.9544,0.0,0.9469,0.932,0.9221,0.8893,0.8635,0.8425,0.0,0.0,0.0,0.0,0.0,0.0,0.0,0.0,0.0,0.0,0.0,0.0,0.0,0.0,0.0,0.0,0.0,0.0,0.0,0.0,0.0,0.0,0.0,0.0,0.0,0.0,0.0,0.0,0.0,0.0,0.0,0.0,0.0,0.0,0.0,0.0,0.0,0.0,0.0,0.0,0.0,0.0,0.0,0.0,0.0,0.0,0.0,0.0,0.0,0.0,0.0,0.0,0.0,0.0,0.0,0.0,0.0,0.0,0.0,0.0,0.0,0.0,0.0,0.0,0.0,0.0,0.0,0.0,0.0,0.0,0.0,0.0,0.0,0.0,0.0,0.0,0.0,0.0,0.0,0.0,0.0,0.0,0.0,0.0,0.0,0.0,0.0,0.0,0.0,0.0,0.0,0.0,0.0,0.0,0.0,0.0,0.0,0.0,0.0,0.0,0.0,0.0,0.4912,0.7791,0.9768,0.9625,0.9476,0.932,0.9221,0.8668,0.8327,0.0,0.0,0.0,0.0,0.0,0.0,0.0,0.0,0.0,0.0,0.0,0.0,0.0,0.0,0.0,0.0,0.0,0.0,0.0,0.0,0.0,0.0,0.0,0.0,0.0,0.0,0.0,0.0,0.0,0.0,0.0,0.0,0.0,0.0,0.0,0.0,0.0,0.0,0.0,0.0,0.0,0.0,0.0,0.0,0.0,0.0,0.0,0.0,0.0,0.0,0.0,0.0,0.0,0.0,0.0,0.0,0.0,0.0,0.0,0.0,0.0,0.0,0.0,0.0,0.0,0.0,0.0,0.0,0.0,0.0,0.0,0.0,0.0,0.0,0.0,0.0,0.0,0.0,0.0,0.0,0.0,0.0,0.0,0.0,0.0,0.0,0.0,0.0,0.0,0.0,0.0,0.0,0.0,0.0,0.0,0.0,0.0,0.0,0.0,0.0,0.0,0.0,0.0,0.6181,0.8324,0.9768,0.9625,0.9571,0.9435,0.9234,0.905,0.8811,0.8438,0.0,0.0,0.0,0.0,0.0,0.0,0.0,0.0,0.0,0.0,0.0,0.0,0.0,0.0,0.0,0.0,0.0,0.0,0.0,0.0,0.0,0.0,0.0,0.0,0.0,0.0,0.0,0.0,0.0,0.0,0.0,0.0,0.0,0.0,0.0,0.0,0.0,0.0,0.0,0.0,0.0,0.0,0.0,0.0,0.0,0.0,0.0,0.0,0.0,0.0,0.0,0.0,0.0,0.0,0.0,0.0,0.0,0.0,0.0,0.0,0.0,0.0,0.0,0.0,0.0,0.0,0.0,0.0,0.0,0.0,0.0,0.0,0.0,0.0,0.0,0.0,0.0,0.0,0.0,0.0,0.0,0.0,0.0,0.0,0.0,0.0,0.0,0.0,0.0,0.0,0.0,0.0,0.0,0.0,0.0,0.0,0.0,0.0,0.0,0.0,0.0,0.0,0.6795,0.8617,0.9788,0.97,0.9646,0.9537,0.9354,0.9171,0.8899,0.8506,0.0,0.0,0.0,0.0,0.0,0.0,0.0,0.0,0.0,0.0,0.0,0.0,0.0,0.0,0.0,0.0,0.0,0.0,0.0,0.0,0.0,0.0,0.0,0.0,0.0,0.0,0.0,0.0,0.0,0.0,0.0,0.0,0.0,0.0,0.0,0.0,0.0,0.0,0.0,0.0,0.0,0.0,0.0,0.0,0.0,0.0,0.0,0.0,0.0,0.0,0.0,0.0,0.0,0.0,0.0,0.0,0.0,0.0,0.0,0.0,0.0,0.0,0.0,0.0,0.0,0.0,0.0,0.0,0.0,0.0,0.0,0.0,0.0,0.0,0.0,0.0,0.0,0.0,0.0,0.0,0.0,0.0,0.0,0.0,0.0,0.0,0.0,0.0,0.0,0.0,0.0,0.0,0.0,0.0,0.0,0.0,0.0,0.0,0.0,0.0,0.0,0.0,0.6856,0.8441,0.9572,0.9572,0.934,0.9142,0.9129,0.8775,0.842,0.8117,0.0,0.0,0.0,0.0,0.0,0.0,0.0,0.0,0.0,0.0,0.0,0.0,0.0,0.0,0.0,0.0,0.0,0.0,0.0,0.0,0.0,0.0,0.0,0.0,0.0,0.0,0.0,0.0,0.0,0.0,0.0,0.0,0.0,0.0,0.0,0.0,0.0,0.0,0.0,0.0,0.0,0.0,0.0,0.0,0.0,0.0,0.0,0.0,0.0,0.0,0.0,0.0,0.0,0.0,0.0,0.0,0.0,0.0,0.0,0.0,-1.0312,-0.8205,0.0,0.0,0.0,0.0,0.0,0.0,0.0,0.0,0.0,0.0,0.0,0.0,0.0,0.0,0.0,0.0,0.0,0.0,0.0,0.0,0.0,0.0,0.0,0.0,0.0,0.0,0.0,0.0,0.0,0.0,0.0,0.0,0.0,0.0,0.0,0.0,0.0,0.0,0.0,0.0,0.679,0.7498,0.7911,0.7911,0.6733,0.5839,0.5765,0.5649,0.5454,0.5151,0.511,0.0,0.0,0.0,0.0,0.0,0.0,0.0,0.0,0.0,0.0,0.0,0.0,0.0,0.0,0.0,0.0,0.0,0.0,0.0,0.0,0.0,0.0,0.0,0.0,0.0,0.0,0.0,0.0,0.0,0.0,0.0,0.0,0.0,0.0,0.0,0.0,0.0,0.0,0.0,0.0,0.0,0.0,0.0,0.0,0.0,0.0,0.0,0.0,0.0,0.0,0.0,0.0,0.0,0.0,0.0,0.0,0.0,0.0,0.0,-1.4443,-1.1603,0.0,0.0,0.0,0.0,0.0,0.0,0.0,0.0,0.0,0.0,0.0,0.0,0.0,0.0,0.0,0.0,0.0,0.0,0.0,0.0,0.0,0.0,0.0,0.0,0.0,0.0,0.0,0.0,0.0,0.0,0.0,0.0,0.0,0.0,0.0,0.0,0.0,0.0,0.0,0.0,0.563,0.5991,0.6198,0.6198,0.5406,0.4902,0.4801,0.4764,0.4618,0.4354,0.4279,0.0,0.0,0.0,0.0,0.0,0.0,0.0,0.0,0.0,0.0,0.0,0.0,0.0,0.0,0.0,0.0,0.0,0.0,0.0,0.0,0.0,0.0,0.0,0.0,0.0,0.0,0.0,0.0,0.0,0.0,0.0,0.0,0.0,0.0,0.0,0.0,0.0,0.0,0.0,0.0,0.0,0.0,0.0,0.0,0.0,0.0,0.0,0.0,0.0,0.0,0.0,0.0,0.0,-2.0401,-2.0535,-2.0548,-2.0788,-2.0775,-2.0433,-1.8473,-1.5319,-1.167,-1.2014,0.0,0.0,0.0,0.0,0.0,0.0,0.0,0.0,0.0,0.0,0.0,0.0,0.0,0.0,0.0,0.0,0.0,0.0,0.0,0.0,0.0,0.0,0.0,0.0,-0.5403,-0.4582,-0.1612,0.0,0.0,0.0,0.0,0.0,0.0,0.0,0.0,0.0,0.0,0.0,0.4147,0.4324,0.4506,0.4506,0.425,0.4057,0.4057,0.396,0.385,0.3728,0.3556,0.4134,0.0,0.0,0.0,0.0,0.0,0.0,0.0,0.0,0.0,0.0,0.0,0.0,0.0,0.0,0.0,0.0,0.0,0.0,0.0,0.0,0.0,0.0,0.0,0.0,0.0,0.0,0.0,0.0,0.0,0.0,0.0,0.0,-2.1265,-2.0873,0.0,0.0,0.0,0.0,0.0,0.0,0.0,0.0,0.0,0.0,0.0,0.0,0.0,-2.1789,-2.0869,-2.1136,-2.1346,-2.1387,-2.1617,-2.175,-2.175,-2.179,-2.179,-2.175,-2.1435,0.0,-1.6447,-1.3877,0.0,0.0,0.0,0.0,0.0,0.0,0.0,0.0,0.0,0.0,0.0,0.0,0.0,0.0,0.0,0.0,0.0,0.0,0.0,0.0,0.0,0.0,-0.7483,-0.5767,-0.5384,-0.5301,0.0,-0.3479,-0.1544,0.1206,0.0799,0.0,0.0,0.0,0.0,0.0,0.0,0.0,0.2743,0.2768,0.2825,0.2825,0.1491,0.0617,0.0617,0.0623,0.0623,0.0614,0.0544,0.1196,0.2561,0.2565,0.0,0.0,0.0,0.0,0.0,0.0,0.0,0.0,0.0,0.0,0.0,0.0,0.0,0.0,0.0,0.0,0.0,0.0,0.0,0.0,0.0,0.0,0.0,0.0,0.0,0.0,0.0,0.0,0.0,-2.2805,-2.248,-2.1724,-2.0202,-1.9266,0.0,0.0,0.0,0.0,0.0,0.0,0.0,0.0,0.0,-2.2125,-2.2382,-2.2363,-2.2098,-2.2058,-2.2124,-2.2351,-2.2245,-2.1787,-2.1046,-2.0966,-2.0267,-1.9221,-1.914,-1.8282,-1.6872,-1.6392,-1.5312,-1.389,0.0,0.0,0.0,0.0,-1.0642,-1.116,-1.0621,-1.0344,-1.0175,-1.0032,0.0,0.0,0.0,0.0,0.0,0.0,0.0,-0.9913,0.0,0.0,-0.9216,-0.8557,-0.7636,-0.6619,-0.5587,-0.3976,-0.228,0.0,-0.0303,0.0,0.0,0.0,0.0,0.0,0.0,0.1083,0.111,0.1071,0.1086,0.1086,0.0445,0.0,0.0,0.0,0.0,0.0,0.0,0.0689,0.2248,0.2111,0.2706,0.0,0.0,0.0,0.0,0.0,0.0,0.0,0.0,0.0,0.0,0.0,0.0,0.0,0.0,0.0,0.0,0.0,0.0,0.0,0.0,0.0,0.0,0.0,0.0,0.0,0.0,0.0,0.0,-2.2876,-2.2933,-2.2296,-2.0557,-1.9202,0.0,0.0,0.0,0.0,0.0,0.0,-1.9462,-2.1272,-2.1882,-2.0797,-2.1561,-2.1803,-2.159,-2.1321,-2.1321,-2.159,-2.1308,-2.0656,-1.9607,-1.949,-1.8595,-1.7097,-1.6947,-1.6756,-1.6644,-1.7192,-1.6114,-1.3938,-1.2697,-1.2408,-1.2433,-1.1163,-1.1301,-1.1957,-1.1175,-1.0799,-1.0582,-1.0439,-1.0263,-1.0073,-0.989,0.0,0.0,0.0,0.0,-1.0015,-0.9376,-0.9555,-0.9783,-0.9419,-0.8302,-0.6965,-0.5696,-0.3957,-0.2592,0.0,-0.0892,0.0,0.0,0.0,0.0,0.0,0.0,-0.0681,-0.0699,-0.1094,-0.1361,-0.1361,-0.1356,-0.1354,-0.1354,-0.1358,-0.1361,-0.1361,-0.1361,-0.0843,0.0454,0.0253,0.068,0.1952,0.0,0.0,0.0,0.0,0.0,0.0,0.0,0.0,0.0,0.0,0.0,0.0,0.0,0.0,0.0,0.0,0.0,0.0,0.0,0.0,0.0,0.0,0.0,0.0,0.0,0.0,0.0,0.0,0.0,-2.3394,-2.0459,0.0,0.0,0.0,0.0,-1.5984,-1.7951,-1.8575,-1.7057,-1.9212,-1.9569,-1.7602,-1.9625,-1.9904,-1.7947,-1.7937,-1.7937,-1.7947,-1.7937,-1.7875,-1.7812,-1.7662,-1.7551,-1.747,-1.7258,-1.7157,-1.6977,-1.4886,-1.4919,-1.5914,-1.2596,-1.2255,-1.3535,-1.1805,-1.1193,-1.1234,-1.0989,-1.0873,-1.0833,-1.0751,-1.0507,-1.029,-1.0412,-1.0351,0.0,0.0,-0.9252,-0.9883,-0.6556,-0.6889,-0.7693,-0.603,-0.5563,-0.5496,-0.5429,-0.3957,-0.2206,0.0,-0.0066,0.0,0.0,0.0,0.0,0.0,-0.1462,-0.2578,-0.2553,-0.4065,-0.5116,-0.5116,-0.5117,-0.5137,-0.5137,-0.5137,-0.5116,-0.5116,-0.5116,-0.508,-0.5015,-0.5011,-0.4996,-0.4926,-0.3311,0.0,0.0,0.0,0.0,0.0,0.0,0.0,0.0,0.0,0.0,0.0,0.0,0.0,0.0,0.0,0.0,0.0,0.0,0.0,0.0,0.0,0.0,0.0,0.0,0.0,0.0,0.0,0.0,-2.2139,-1.9319,0.0,-1.6664,-1.6834,-1.6722,-1.6196,-1.7223,-1.765,-1.7176,-1.8238,-1.8592,-1.7859,-1.8811,-1.9011,-1.8265,-1.804,-1.804,-1.8255,-1.79,-1.7173,-1.6307,-1.5974,-1.5242,-1.4175,-1.3881,-1.3754,-1.3666,-1.2727,-1.3402,-1.4853,-1.3445,-1.2589,-1.2208,-1.1587,-1.1307,-1.1287,-1.1138,-1.1023,-1.0718,-0.9419,-0.891,-0.865,-0.7568,-0.7158,-0.7003,-0.6444,-0.6743,-0.6969,-0.5696,-0.583,-0.6164,-0.5563,-0.4492,-0.3689,-0.3689,-0.2216,-0.1141,-0.1669,-0.0801,0.0,0.0,-0.0967,-0.1744,-0.1728,-0.3295,-0.4452,-0.4453,-0.4993,-0.5391,-0.5391,-0.543,-0.5416,-0.5416,-0.5374,-0.5391,-0.5391,-0.5391,-0.5401,-0.5429,-0.5377,-0.5391,-0.5407,-0.4766,-0.4349,0.0,0.0,0.0,0.0,0.0,0.0,0.0,0.0,0.0,0.0,0.0,0.0,0.0,0.0,0.0,0.0,0.0,0.0,0.0,0.0,0.0,0.0,0.0,0.0,0.0,-1.9697,-1.9404,-1.9872,-1.77,-1.6016,-1.5542,-1.576,-1.5666,-1.5034,-1.5985,-1.6314,-1.5718,-1.6628,-1.6964,-1.6282,-1.7094,-1.7245,-1.6631,-1.6357,-1.6322,-1.6523,-1.6112,-1.5453,-1.4467,-1.4184,-1.3379,-1.2277,-1.202,-1.1911,-1.1904,-1.1809,-1.2417,-1.3492,-1.3192,-1.2414,-1.147,-1.147,-1.147,-1.1372,-1.0582,-0.9745,-0.8864,-0.7554,-0.7125,-0.6922,-0.5776,-0.5369,-0.5301,-0.4694,-0.4894,-0.5092,-0.3922,-0.4052,-0.4316,-0.3694,-0.2685,-0.1948,-0.2551,-0.1747,-0.1478,-0.3289,-0.2148,-0.1136,-0.1705,-0.283,-0.3626,-0.3593,-0.5122,-0.6295,-0.6289,-0.6831,-0.7169,-0.7169,-0.7169,-0.7169,-0.7169,-0.7137,-0.7133,-0.7165,-0.7137,-0.7133,-0.7165,-0.7133,-0.7167,-0.7201,-0.6029,-0.5217,-0.4804,0.0,0.0,0.0,0.0,0.0,0.0,0.0,0.0,0.0,0.0,0.0,0.0,0.0,0.0,0.0,0.0,0.0,0.0,0.0,0.0,0.0,0.0,0.0,-1.5749,-1.6116,-1.6618,-1.6897,-1.5789,-1.4919,-1.4679,-1.4894,-1.4247,-1.2464,-1.4028,-1.4318,-1.2585,-1.4345,-1.457,-1.2732,-1.4508,-1.4578,-1.2739,-1.2589,-1.2515,-1.2515,-1.2508,-1.2508,-1.2508,-1.2372,-1.2305,-1.2298,-1.2142,-1.2149,-1.2067,-1.206,-1.1986,-1.1959,-1.1742,-1.1633,-1.1633,-1.1554,-1.1476,-1.1155,-0.9144,-0.7121,-0.5371,-0.5302,-0.5302,-0.5302,-0.5232,-0.5232,-0.4887,-0.3217,-0.3983,-0.4525,-0.1102,-0.1441,-0.2256,-0.0541,-0.0067,-0.0539,-0.2353,-0.2756,-0.3358,-0.5165,-0.4093,-0.3423,-0.5095,-0.5429,-0.5496,-0.5496,-0.6965,0.0,-0.8097,-0.9643,-1.0717,-1.0717,-1.0717,-1.0717,-1.0717,-1.0582,-1.0561,-1.0711,-1.0582,-1.0568,-1.0717,-1.0575,-1.0568,-1.0591,-0.7238,-0.5238,-0.4728,0.0,0.0,0.0,0.0,0.0,0.0,0.0,0.0,0.0,0.0,0.0,0.0,0.0,0.0,0.0,0.0,0.0,0.0,0.0,0.0,0.0,-1.4873,-1.5528,-1.6186,-1.5671,-1.5337,-1.572,-1.4314,-1.3404,-1.3483,-1.3526,-1.3397,-1.2852,-1.3318,-1.3339,-1.2913,-1.3382,-1.3483,-1.2895,-1.3403,-1.3403,-1.2895,-1.2854,-1.2834,-1.2834,-1.2718,-1.2725,-1.2834,-1.2678,-1.261,-1.2603,-1.2447,-1.2325,-1.2141,-1.0439,-0.9794,-0.9938,-1.1373,-1.1938,-1.1777,-1.0187,-0.8652,-0.7149,-0.6626,-0.5926,-0.5162,-0.3844,-0.3425,-0.3215,-0.1889,-0.147,-0.168,-0.259,-0.3217,-0.3702,-0.4103,-0.3545,-0.2711,-0.2217,-0.2077,-0.2215,-0.2767,-0.3939,-0.5436,-0.7152,-0.7071,-0.6441,-0.5573,-0.6431,-0.7298,-0.7298,-0.8839,0.0,-0.9975,-1.0386,-1.0717,-1.0717,-1.0717,-1.0717,-1.0717,-1.0683,-1.0677,-1.0717,-1.0683,-1.0677,-1.0717,-1.0677,-1.0054,-0.8766,-0.7683,-0.6378,0.0,0.0,0.0,0.0,0.0,0.0,0.0,0.0,0.0,0.0,0.0,0.0,0.0,0.0,0.0,0.0,0.0,0.0,0.0,0.0,0.0,0.0,-1.4239,-1.4585,-1.4919,-1.4258,-1.3961,-1.4375,-1.3569,-1.2949,-1.3037,-1.3051,-1.3024,-1.2969,-1.2963,-1.2963,-1.2963,-1.2963,-1.307,-1.3051,-1.299,-1.307,-1.3051,-1.299,-1.2963,-1.3043,-1.2868,-1.2874,-1.2956,-1.1899,-1.1378,-1.1372,-1.0335,-0.9844,-0.9661,-0.832,-0.78,-0.7951,0.0,0.0,0.0,0.0,-0.6301,-0.4485,-0.4461,-0.3859,-0.2986,-0.1922,-0.1566,-0.1354,-0.0285,0.0,-0.0214,-0.1354,-0.1709,-0.192,-0.3107,-0.254,-0.1692,-0.1683,-0.1681,-0.189,-0.266,-0.3704,-0.5008,-0.6719,-0.7111,0.0,-0.6698,-0.7999,-0.9123,-0.918,-1.0136,-1.0792,-1.0731,-1.0778,-1.0792,-1.0724,-1.0717,-1.0717,-1.0717,-1.0663,0.0,0.0,0.0,-0.9119,-0.8368,-0.8464,0.0,0.0,0.0,0.0,0.0,0.0,0.0,0.0,-0.3577,-0.3642,0.0,0.0,0.0,0.0,0.0,0.0,0.0,0.0,0.0,0.0,0.0,0.0,0.0,0.0,0.0,0.0,-1.4528,-1.4183,-1.2975,-1.2664,-1.2725,-1.3125,-1.3186,-1.3207,-1.322,-1.3241,-1.3193,-1.3071,-1.3057,-1.3057,-1.3057,-1.3057,0.0,0.0,0.0,-1.3098,-1.322,-1.2835,-1.2681,-1.2681,-1.242,-1.2259,-1.2192,-1.0142,-0.9244,-0.9164,-0.7217,-0.6284,-0.6304,-0.6046,-0.5839,-0.5639,-0.5806,-0.5745,-0.5506,-0.5525,-0.4233,-0.259,-0.2562,0.0,0.0,0.0,0.0,0.0,0.0,0.0,-0.0073,-0.0292,-0.0292,-0.0364,-0.0575,-0.0502,-0.0357,-0.0353,-0.0352,-0.0774,-0.239,-0.2882,-0.3499,-0.5103,-0.5433,-0.5982,-0.7693,-0.9361,-1.0525,-1.088,-1.0907,-1.0853,-1.0785,-1.0887,-1.0921,-1.0785,0.0,0.0,-1.0432,-1.0109,-0.9958,-1.0085,-0.8513,-0.6784,-0.5194,-0.5325,-0.5264,-0.4864,-0.3467,-0.2594,-0.2356,-0.0771,0.0,0.0,-0.1538,-0.1397,0.0,0.0,0.0,0.0,0.0,0.0,0.0,0.0,0.0,0.0,0.0,0.0,0.0,0.0,0.0,-1.2778,-1.3,-1.314,-1.3125,-1.3064,-1.3078,-1.3159,-1.3281,-1.3403,-1.3532,-1.3641,-1.3702,-1.3675,-1.3668,-1.3668,-1.3668,-1.3668,-1.3682,-1.3709,-1.3573,-1.3512,-1.3539,-1.1546,-1.0645,-1.0645,-0.8652,0.0,-0.7904,-0.7334,-0.714,-0.7058,-0.6649,-0.636,-0.6133,-0.4452,-0.2752,-0.153,-0.4863,-0.5174,-0.3601,-0.3593,-0.234,-0.0594,-0.0593,-0.0294,0.0,0.0,0.0,0.0,0.0,0.0,0.0,-0.1892,-0.2328,-0.2689,-0.4273,-0.3548,-0.2318,-0.2312,-0.2311,-0.2455,-0.2814,-0.4112,-0.5242,-0.5527,-0.5581,-0.5651,-0.6074,-0.7612,-0.9302,-1.0891,-1.1124,-1.1111,-1.1084,-1.1104,-1.1111,-1.1077,-0.9692,-0.8793,-0.8793,-0.7319,-0.6417,-0.6436,-0.6076,-0.5688,-0.5347,-0.5502,-0.4805,-0.32,-0.2945,-0.2082,-0.0554,-0.016,0.0,0.0,-0.033,-0.0331,0.0,0.0,0.0,0.0,0.0,0.0,0.0,0.0,0.0,0.0,0.0,-1.1701,-1.2006,0.0,-1.2433,-1.2888,-1.3085,-1.2837,-1.1867,-1.173,-1.213,-1.3244,-1.3471,-1.3573,-1.3722,-1.3797,-1.3838,-1.3838,-1.3838,-1.3838,-1.3838,-1.2711,-1.2019,-1.2019,-1.0843,-1.0129,-1.0129,-0.8964,-0.8344,-0.8344,-0.7157,-0.6637,-0.667,-0.543,-0.4904,-0.4904,-0.3743,-0.3225,-0.3026,-0.1953,-0.0897,-0.0246,-0.233,-0.2455,-0.1567,-0.1547,-0.0918,0.0,0.0,0.0,0.0,0.0,0.0,0.0,0.0,0.0,-0.0221,-0.1177,-0.1471,-0.1693,-0.2664,-0.2205,-0.1459,-0.1468,-0.1471,-0.1471,-0.1471,-0.2205,-0.2854,-0.2816,-0.2794,-0.3137,-0.4061,-0.4999,-0.6221,-0.8093,-0.8384,-0.8358,-0.8303,-0.8324,-0.8354,-0.8308,-0.7436,-0.6815,-0.6839,-0.5928,-0.5039,-0.409,-0.4022,-0.3632,-0.2762,-0.2797,-0.2326,-0.1386,-0.1403,-0.0953,0.0,0.0,0.0,0.0,0.1201,0.1121,0.0,0.0,0.0,0.0,0.0,0.0,0.0,0.0,-1.039,-1.0503,-1.0781,-1.1106,-1.1427,-1.1512,-1.167,-1.2107,-1.2198,-1.1652,-0.9845,-0.9597,-1.0265,-1.2089,-1.2338,-1.238,-1.2484,-1.2515,-1.2533,-1.2533,-1.2533,-1.2533,-1.2533,-1.0702,-0.9658,-0.9658,-0.7736,-0.6775,-0.6775,-0.624,-0.6061,-0.6061,-0.5582,-0.5386,-0.5298,-0.3477,-0.2702,-0.2612,-0.076,0.0,0.0,0.0,0.0,0.0,0.0,0.0,0.0,0.0,0.0,0.0,0.0,0.0,0.0,0.0,0.0,0.0,0.0,0.0,0.0,0.0,0.0,0.0,0.0,0.0,0.0,0.0,0.0,0.0,0.0,0.0,0.0,0.0,0.0,-0.0506,-0.2086,-0.2305,-0.3095,-0.5295,-0.5658,-0.5574,-0.5514,-0.5551,-0.5588,-0.5466,-0.5152,-0.4735,-0.4401,-0.4325,-0.3707,-0.2237,-0.2166,-0.1534,-0.0075,0.0,0.0,0.0,0.0,0.0,0.0,0.0505,0.0681,0.0773,0.3152,0.3003,-1.0466,-1.067,-1.0907,-1.1409,-1.0013,-0.8763,0.0,0.0,-0.6508,-0.6802,-0.6941,-0.6963,-0.6988,-0.7136,-0.7197,-0.7318,-0.7384,-0.7349,-0.7097,-0.7101,-0.7208,-0.7614,-0.7621,-0.7625,-0.7633,-0.7787,-0.7832,-0.7832,-0.7832,-0.7832,-0.7832,-0.7566,-0.7477,-0.7477,-0.7058,-0.6845,-0.6845,-0.4785,-0.3639,-0.3639,-0.1647,-0.078,-0.078,-0.052,-0.0345,-0.0342,-0.0085,0.0,0.0,0.0,0.0,0.0,0.0,0.0,0.0,0.0,0.0,0.0,0.0,0.0,0.0,0.0,0.0,0.0,0.0,0.0,0.0,0.0,0.0,0.0,0.0,0.0,0.0,0.0,0.0,0.0,0.0,0.0,0.0,0.0,0.0,-0.0075,-0.0297,-0.0299,-0.1567,-0.5235,-0.5779,-0.5746,-0.574,-0.5806,-0.5771,-0.5755,-0.4195,-0.2477,-0.0751,-0.0601,-0.0526,-0.0301,-0.0301,-0.0227,0.0,0.0,0.0,0.0,0.0,0.0,0.0,0.2141,0.3198,0.3291,0.5654,0.5415,-1.105,-1.0308,-0.9612,-0.991,-0.8507,-0.7049,-0.7425,-0.6738,-0.6187,-0.6401,-0.6463,-0.6587,-0.663,-0.6695,-0.6757,0.0,-0.6869,-0.647,-0.5126,-0.4921,-0.4374,-0.305,-0.2857,-0.4,-0.6744,-0.8373,-0.8595,-0.7211,-0.7124,-0.7141,-0.7094,-0.5826,-0.5087,-0.5056,-0.3687,-0.2864,-0.2846,-0.1861,-0.1415,-0.1327,-0.044,0.0,0.0,0.0,0.0,0.0,0.0,0.0,0.0,0.0,0.0,0.0,0.0,0.0,0.0,0.0,0.0,0.0,0.0,0.0,0.0,0.0,0.0,0.0,0.0,0.0,0.0,0.0,0.0,0.0,0.0,0.0,0.0,0.0,0.0,0.0,0.0,0.0,0.0,0.0,0.0,0.0,0.0,0.0,-0.0528,-0.2162,-0.2393,-0.2401,-0.2399,-0.2424,-0.2443,-0.2443,-0.1681,-0.0918,-0.0077,0.0,0.0,0.0,0.0,0.0,0.0,0.0,0.0,0.0,0.1411,0.2097,0.2121,0.45,0.5681,0.5681,0.8071,0.8643,-0.99,-0.881,-0.7805,-0.8045,-0.6571,-0.5158,-0.5265,-0.49,-0.4604,-0.4654,-0.4783,-0.4908,-0.4943,-0.4994,-0.5046,-0.5101,-0.5153,-0.4541,-0.2876,-0.2575,-0.192,-0.0183,-0.0544,-0.207,-0.485,-0.6732,-0.7038,-0.5308,-0.5129,-0.5153,-0.5115,-0.3529,-0.259,-0.2571,-0.0917,0.0,0.0,0.0,0.0,0.0,0.0,0.0,0.0,0.0,0.0,0.0,0.0,0.0,0.0,0.0,0.0,0.0,0.0,0.0,0.0,0.0,0.0,0.0,0.0,0.0,0.0,0.0,0.0,0.0,0.0,0.0,0.0,0.0,0.0,0.0,0.0,0.0,0.0,0.0,0.0,0.0,0.0,0.0,0.0,0.0,0.0,0.0,0.0,0.0,0.0,0.0,0.0,0.0,0.0,0.0,0.0,0.0,0.0,0.0,0.0,0.0,0.0,0.0,0.0,0.0,0.0,0.0657,0.0992,0.0997,0.3363,0.4588,0.4537,0.6972,0.8089,0.8177,1.0573,1.1699,-0.6145,-0.5766,-0.5942,-0.6078,-0.4492,-0.3086,-0.3309,-0.1761,-0.0177,-0.0179,-0.0179,-0.0179,-0.0179,-0.0181,-0.0183,-0.0185,-0.0187,-0.0188,-0.0094,-0.0093,-0.0093,0.0,-0.2106,-0.2638,-0.0456,-0.0273,-0.0276,-0.0188,-0.0188,-0.0189,-0.0191,-0.0189,-0.0094,-0.0094,0.0,0.0,0.0,0.0,0.0,0.0,0.0,0.0,0.0,0.0,0.0,0.0,0.0,0.0,0.0,0.0,0.0,0.0,0.0,0.0,0.0,0.0,0.0,0.0,0.0,0.0,0.0,0.0,0.0,0.0,0.0,0.0,0.0,0.0,0.0,0.0,0.0,0.0,0.0,0.0,0.0,0.0,0.0,0.0,0.0,0.0,0.0,0.0,0.0,0.0,0.0,0.0,0.0,0.0,0.0,0.0,0.0,0.0,0.0,0.0,0.0,0.0,0.0,0.0,0.0,0.0,0.0,0.2262,0.3475,0.3524,0.5819,0.7004,0.7004,0.944,1.0549,1.0637,1.3066,1.421,-0.5907,-0.4807,-0.38,-0.398,-0.254,-0.1033,-0.1064,-0.0535,0.0,0.0,0.0,0.0,0.0,0.0,0.0,0.0,0.0,0.0,0.0,0.0,0.0,0.0,-0.0753,-0.0937,-0.0093,-0.1469,-0.174,-0.0093,0.0,0.0,0.0,0.0,0.0,0.0,0.0,0.0,0.0,0.0,0.0,0.0,0.0,0.0,0.0,0.0,0.0,0.0,0.0,0.0,0.0,0.0,0.0,0.0,0.0,0.0,0.0,0.0,0.0,0.0,0.0,0.0,0.0,0.0,0.0,0.0,0.0,0.0,0.0,0.0,0.0,0.0,0.0,0.0,0.0,0.0,0.0,0.0,0.0,0.0,0.0,0.0,0.0,0.0,0.0,0.0,0.0,0.0,0.0,0.0,0.0,0.0,0.0,0.0,0.0,0.0,0.0,0.0,0.0675,0.2291,0.2385,0.3066,0.4661,0.5477,0.5931,0.591,0.8247,0.9527,0.9531,1.1933,1.311,1.328,1.3958,1.4353,-0.3962,-0.2829,-0.1788,-0.1954,-0.0951,0.0,0.0,0.0,0.0,0.0,0.0,0.0,0.0,0.0,0.0,0.0,0.0,0.0,0.0,0.0,0.0,0.0,0.0,0.0,0.0,-0.141,-0.1682,-0.0095,0.0,0.0,0.0,0.0,0.0,0.0,0.0,0.0,0.0,0.0,0.0,0.0,0.0,0.0,0.0,0.0,0.0,0.0,0.0,0.0,0.0,0.0,0.0,0.0,0.0,0.0,0.0,0.0,0.0,0.0,0.0,0.0,0.0,0.0,0.0,0.0,0.0,0.0,0.0,0.0,0.0,0.0,0.0,0.0,0.0,0.0,0.0,0.0,0.0,0.0,0.0,0.0,0.0,0.0,0.0,0.0,0.0,0.0,0.0,0.0,0.0,0.0,0.0,0.0,0.0,0.0339,0.1203,0.129,0.2326,0.4675,0.4867,0.5564,0.7008,0.7932,0.8387,0.835,1.0724,1.2027,1.2027,1.3539,1.4373,1.4509,1.4421,1.4455,-0.0475,0.0,0.0,0.0,0.0,0.0,0.0,0.0,0.0,0.0,0.0,0.0,0.0,0.0,0.0,0.0,0.0,0.0,0.0,0.0,0.0,0.0,0.0,0.0,0.0,0.0,0.0,0.0,0.0,0.0,0.0,0.0,0.0,0.0,0.0,0.0,0.0,0.0,0.0,0.0,0.0,0.0,0.0,0.0,0.0,0.0,0.0,0.0,0.0,0.009,0.0179,0.0179,0.0359,0.0359,0.0359,0.0269,0.0178,0.0177,0.0175,0.0086,0.0,0.0,0.0,0.0,0.0,0.0,0.0,0.0,0.0,0.0,0.0,0.0,0.0,0.0,0.0,0.0,0.0,0.0,0.0,0.0,0.0,0.0,0.0169,0.017,0.0257,0.0343,0.0345,0.0259,0.0,0.0084,0.017,0.0174,0.0261,0.1303,0.3559,0.3818,0.4769,0.7104,0.7261,0.7359,0.7457,0.9629,1.0848,1.092,1.3167,1.4312,1.4326,1.4326,1.4394,1.4536,1.4529,1.4604,-0.0159,0.0,0.0,0.0,0.0,0.0,0.0,0.0,0.0,0.0,0.0,0.0,0.0,0.0,0.0,0.0,0.0,0.0,0.0,0.0,0.0,0.0,0.0,0.0,0.0,0.0,0.0,0.0,0.0,0.0,0.0,0.0,0.0,0.0,0.0,0.0,0.0,0.0,0.0,0.0,0.0,0.0,0.0,0.0,0.0,0.0,0.0,0.0,0.0182,0.1978,0.2687,0.2866,0.4651,0.5276,0.5097,0.3312,0.2683,0.2675,0.2667,0.1491,0.0,0.0,0.0,0.0,0.0,0.0,0.0,0.0,0.0,0.0,0.0,0.0,0.0,0.0,0.0,0.0,0.0,0.0,0.0,0.0,0.0,0.0603,0.241,0.2673,0.3281,0.5004,0.5273,0.3977,0.0431,0.155,0.2681,0.2718,0.4266,0.5578,0.6198,0.6247,0.7206,0.9652,0.9768,1.0573,1.2408,1.3098,1.3432,1.3496,1.4167,1.4516,1.4624,1.4624,1.4706,1.4848,1.4733,1.4767,0.0,0.0,0.0,0.0,0.0,0.0,0.0,0.0,0.0,0.0,0.0,0.0,0.0,0.0,0.0,0.0,0.0,0.0,0.0,0.0,0.0,0.0,0.0,0.0,0.0,0.0,0.0,0.0,0.0,0.0,0.0,0.0,0.0,0.0,0.0,0.0,0.0,0.0,0.0,0.0,0.0,0.0572,0.1697,0.1682,0.2232,0.3343,0.3309,0.3296,0.3477,0.4817,0.5334,0.5403,0.6748,0.7177,0.6968,0.5633,0.5097,0.5097,0.5097,0.426,0.3076,0.3148,0.3121,0.3092,0.3076,0.3069,0.3067,0.307,0.3083,0.3107,0.3159,0.3083,0.3088,0.3103,0.3106,0.31,0.3082,0.3077,0.3073,0.3147,0.3156,0.3507,0.4944,0.515,0.561,0.6889,0.7087,0.6144,0.3429,0.4289,0.5168,0.5135,0.6344,0.7494,0.8566,0.8707,0.967,1.2142,1.2237,1.2863,1.421,1.436,1.4428,1.4509,1.4577,1.4652,1.474,1.474,1.4821,1.497,1.4882,1.4923,0.0,0.0,0.0,0.0,0.0,0.0087,0.0342,0.0423,0.05,0.0816,0.0,0.0828,0.0921,0.0856,0.0884,0.0931,0.0,0.0894,0.062,0.0527,0.0426,0.0,0.0,0.0,0.0,0.0,0.0,0.0,0.0,0.0,0.0,0.0,0.0,0.0,0.0,0.0,0.0,0.0,0.0199,0.0492,0.0488,0.1842,0.4347,0.4367,0.555,0.7601,0.7617,0.7391,0.7105,0.7834,0.779,0.7457,0.808,0.8211,0.8052,0.7688,0.7591,0.7591,0.7591,0.7591,0.7492,0.7247,0.7087,0.7097,0.6942,0.7049,0.7083,0.6939,0.697,0.7129,0.7118,0.7139,0.7064,0.7132,0.7057,0.7057,0.7057,0.7057,0.7129,0.7061,0.7102,0.7194,0.7498,0.7589,0.7659,0.8029,0.8079,0.804,0.804,0.7799,0.7604,0.7584,0.7862,0.893,1.0984,1.1161,1.2059,1.421,1.4299,1.4306,1.4326,1.4448,1.4529,1.457,1.4706,1.478,1.4801,1.4801,1.4869,1.4997,1.4997,1.5065,0.0,0.0,0.0,0.0,0.0,0.0428,0.2196,0.2569,0.0,0.0,0.5353,0.5381,0.5525,0.5513,0.564,0.6033,0.6098,0.5417,0.3534,0.3254,0.2533,0.0,0.0,0.0,0.0,0.0,0.0,0.0,0.0,0.0,0.0,0.0,0.0,0.0,0.0,0.0,0.0,0.0,0.1115,0.3307,0.3277,0.472,0.7307,0.7285,0.7436,0.7759,0.7778,0.0,0.4759,0.8869,0.929,0.7801,1.1735,1.3226,1.292,1.0837,1.0091,1.0091,1.0091,1.0091,0.9731,0.7755,0.7075,0.7101,0.7087,0.7049,0.7104,0.707,0.7094,0.7121,0.7109,0.7129,0.7132,0.7143,0.7057,0.7057,0.7057,0.7057,0.7143,0.7129,0.7139,0.7762,0.9777,1.0067,1.0707,1.2744,1.3028,1.304,1.304,1.1323,1.0071,1.0091,1.1876,1.3224,1.3673,1.3673,1.385,1.4299,1.4299,1.4353,1.4468,1.4502,1.4631,1.4889,1.4916,1.4991,1.5106,1.5106,1.512,1.5147,1.5147,1.516,0.0344,0.0952,0.1824,0.1823,0.2668,0.3731,0.4638,0.0,0.0,0.0,0.6473,0.6486,0.6604,0.6744,0.6919,0.7084,0.7184,0.696,0.6111,0.5974,0.5618,0.4559,0.3084,0.2231,0.2223,0.0847,0.0633,0.2089,0.2211,0.1569,0.0102,0.0,0.0,0.0,0.0,0.0732,0.2192,0.2172,0.3583,0.628,0.6222,0.7553,0.9934,0.9928,1.0537,1.174,1.1715,1.0879,0.9884,1.2272,1.2494,1.1586,1.377,1.4584,1.4309,1.309,1.2591,1.2591,1.2591,1.2591,1.2414,1.1255,1.0859,1.0802,1.0739,1.0811,1.0817,1.0724,1.0765,1.0828,1.0879,1.0806,1.0806,1.0806,1.0806,1.0806,1.0806,1.0806,1.0806,1.0806,1.0806,1.125,1.2325,1.2591,1.2952,1.4122,1.4299,1.4299,1.4299,1.3312,1.2591,1.2591,1.3584,1.4299,1.4299,1.4299,1.4299,1.4299,1.4299,1.4367,1.4509,1.459,1.474,1.4964,1.5045,1.5113,1.5181,1.5181,1.5181,1.5181,1.5181,1.5181,0.199,0.2885,0.4303,0.4168,0.5402,0.6818,0.7092,0.7046,0.0,0.7631,0.7781,0.794,0.7981,0.8156,0.8338,0.0,0.8581,0.87,0.8654,0.8683,0.8621,0.0,0.647,0.0,0.5101,0.3084,0.0,0.4944,0.507,0.4205,0.1962,0.1866,0.1769,0.1772,0.1785,0.2844,0.5151,0.5107,0.6502,0.9197,0.9113,1.0427,1.271,1.2617,1.368,1.5499,1.5343,1.4972,1.4461,1.5006,1.4832,1.4248,1.4664,1.4699,1.4543,1.4401,1.4326,1.4299,1.4299,1.4299,1.4299,1.4299,1.4299,1.4278,1.4156,1.4204,1.4278,1.4156,1.4204,1.4299,1.4299,1.4299,1.4299,1.4299,1.4299,1.4299,1.4299,1.4299,1.4299,1.4299,1.4299,1.4299,1.4299,1.4299,1.4299,1.4299,1.4326,1.4333,1.4306,1.4353,1.438,1.4346,1.4319,1.4299,1.4299,1.4299,1.4312,1.4346,1.4346,1.4428,1.4604,1.4726,1.4862,1.5011,1.516,1.5228,1.5228,1.5228,1.5228,1.5228,1.5201,1.5181,0.6298,0.6541,0.6754,0.6592,0.6646,0.7172,0.8954,0.0,0.9756,1.1959,1.2362,1.2466,1.2725,1.2926,1.3101,1.3513,0.0,1.3186,1.151,1.14,1.067,0.8563,0.0,0.0,0.8064,0.7852,0.7849,0.8054,0.8104,0.7986,0.7715,0.777,0.7767,0.7725,0.7734,0.7843,0.8054,0.8088,0.9365,1.1959,1.1952,1.3262,1.5658,1.5731,1.5743,1.5805,1.5662,1.4155,0.0,1.4279,1.3846,1.193,1.4162,1.4855,1.4699,1.455,1.4414,1.4299,1.4299,1.4299,1.4299,1.4299,1.4299,1.4299,1.4285,1.4292,1.4299,1.4285,1.4292,1.4299,1.4299,1.4299,1.4299,1.4299,1.4299,1.4299,1.4299,1.4299,1.4299,1.4299,1.4299,1.4299,1.4299,1.4299,1.4299,1.4299,1.4407,1.4448,1.4319,1.4536,1.4645,1.4509,1.438,1.4299,1.4299,1.4299,1.4353,1.4482,1.4489,1.4624,1.4916,1.4943,1.5018,1.516,1.5309,1.5391,1.5391,1.5391,1.5391,1.5384,1.5248,1.5181,0.7216,0.8097,0.9193,0.903,0.9869,1.0903,1.1478,0.0,1.1644,1.2635,1.2963,1.3152,1.3363,1.3593,1.3844,1.4116,1.4285,1.4236,1.3706,1.3733,1.3618,1.3113,1.1671,1.0726,0.0,0.9545,0.9228,1.0918,1.268,1.3631,1.3569,1.0408,0.8493,0.8524,0.8464,0.9334,1.1024,1.0984,1.2355,1.4867,1.4812,1.5284,1.6076,1.5988,1.5913,1.5845,1.5703,1.4963,0.0,1.5056,1.4774,1.3751,1.4739,1.5004,1.4848,1.4604,1.4475,1.4414,1.4333,1.4299,1.4299,1.4299,1.4299,1.4299,1.4299,1.4299,1.4299,1.4299,1.4299,1.4299,1.4299,1.4299,1.4299,1.4299,1.4299,1.4299,1.4299,1.4299,1.4299,1.4299,1.4299,1.4299,1.4299,1.4299,1.4299,1.4299,1.4421,1.4489,1.4434,1.4611,1.4719,1.4658,1.4516,1.4462,1.4557,1.4482,1.4489,1.4638,1.4652,1.4746,1.4964,1.497,1.5038,1.5181,1.5337,1.5411,1.5411,1.5506,1.5547,1.5547,1.5391,1.5316,0.9262,1.018,1.1549,1.1371,1.239,1.3268,1.3017,1.284,1.2745,1.2786,1.2996,1.3234,1.3431,1.3675,1.3892,1.4048,1.4197,1.4441,1.4848,1.4977,1.5303,1.6029,0.0,1.3373,1.3741,1.2155,1.1873,1.378,1.5803,1.6958,1.6917,1.3126,1.1,1.1027,1.0993,1.1978,1.399,1.399,1.4817,1.6524,1.6524,1.6341,1.6008,1.59,1.5832,1.5784,1.5635,1.5533,0.0,1.5499,1.5404,1.5248,1.5201,1.5065,1.4882,1.4713,1.459,1.4496,1.4394,1.436,1.436,1.436,1.436,1.4373,1.4414,1.4367,1.4299,1.4299,1.4299,1.4299,1.4299,1.4299,1.4299,1.4299,1.4299,1.4299,1.4299,1.4299,1.4299,1.4299,1.4299,1.4299,1.4299,1.4299,1.4312,1.4353,1.4489,1.4577,1.4577,1.4746,1.4855,1.4814,1.4713,1.4672,1.4733,1.4638,1.4645,1.4801,1.4808,1.4875,1.5025,1.5031,1.5079,1.5181,1.5377,1.5479,1.5479,1.5628,1.5703,1.5696,1.5547,1.5452,1.3469,1.3651,1.3759,1.3752,1.3505,1.3139,1.2996,1.284,1.2773,1.2929,1.3071,1.3268,1.3573,1.3743,1.3892,1.4048,1.4197,1.4401,1.4699,1.4997,1.5296,0.0,1.5771,1.6035,1.6381,1.6698,1.6873,1.6978,1.6978,1.691,1.6761,1.6644,1.6711,1.6866,1.6873,1.6978,1.6978,1.6978,1.6829,1.6524,1.6524,1.6286,1.5852,1.5852,1.5778,1.5635,1.5479,1.5499,0.0,1.5309,1.5276,1.5391,1.5242,1.5004,1.476,1.4909,1.4774,1.4509,1.4509,1.4509,1.4509,1.4509,1.4509,1.4536,1.4692,1.4529,1.4299,1.4299,1.4299,1.4299,1.4299,1.4299,1.4299,1.4299,1.4299,1.4299,1.4299,1.4299,1.4299,1.4299,1.4299,1.4299,1.4299,1.4299,1.4346,1.4489,1.4638,1.474,1.474,1.4997,1.5126,1.4984,1.497,1.4903,1.4753,1.474,1.4801,1.4957,1.497,1.5031,1.5174,1.5181,1.5181,1.5181,1.5479,1.5635,1.5635,1.5778,1.5852,1.5845,1.5703,1.5554,1.299,1.3193,1.3363,1.3261,1.3051,1.2888,1.2949,1.2922,1.2956,1.3214,1.3383,1.358,1.3878,1.3966,1.4082,1.4333,1.4414,0.0,1.4713,1.4909,1.5187,1.5594,1.6035,1.6408,1.6653,1.6768,1.687,1.6971,1.6978,1.691,1.6761,1.6748,1.672,1.6666,1.6666,1.6666,1.6666,1.6666,1.6571,1.6374,1.6374,1.6191,1.5852,1.5852,1.5778,1.5635,1.5588,1.5533,1.5486,1.5493,1.5398,1.5262,1.5316,1.516,1.4903,1.495,1.4841,1.4665,1.4665,1.4665,1.4665,1.4665,1.4665,1.4679,1.4726,1.4604,1.4428,1.4326,1.4299,1.4299,1.4299,1.4299,1.4299,1.4299,1.4299,1.4299,1.4299,1.4299,1.4299,1.4299,1.4299,1.4299,1.4299,1.4299,1.4346,1.4489,1.4638,1.478,1.4882,1.5065,1.5167,1.512,1.5113,1.5092,1.5045,1.495,1.4957,1.5106,1.5113,1.5133,1.5181,1.5282,1.5337,1.5337,1.5635,1.5784,1.5784,1.5934,1.5954,1.5852,1.5805,1.571,1.2617,1.2779,1.2929,1.2956,1.284,1.2773,1.2929,1.3003,1.3091,1.3275,1.3485,1.3702,1.3939,1.4034,1.415,1.4394,1.4434,1.4482,1.4631,1.4835,1.5113,1.5506,1.6029,1.6368,1.6408,1.6619,1.6788,1.689,1.6897,1.6829,1.6673,1.6612,1.6517,1.6361,1.6463,1.6524,1.6524,1.6524,1.6449,1.6307,1.6307,1.6151,1.5852,1.5798,1.5689,1.5547,1.5493,1.5445,0.0,1.5452,1.5391,1.5269,1.5309,1.5181,1.4977,1.5031,1.4957,1.4828,1.4828,1.4828,1.4828,1.4828,1.4862,1.4896,1.4841,1.4719,1.4577,1.4489,1.4468,1.4468,1.4468,1.4421,1.4394,1.4455,1.438,1.4312,1.4367,1.434,1.4299,1.4299,1.4299,1.4319,1.4373,1.438,1.4448,1.4652,1.4767,1.4882,1.5031,1.5126,1.5181,1.5181,1.5181,1.5181,1.5181,1.5099,1.5113,1.5262,1.5269,1.5296,1.535,1.5445,1.5499,1.5499,1.573,1.5852,1.5852,1.6008,1.6035,1.594,1.5879,1.5805,0.0,1.2488,1.2569,1.2854,1.2827,1.2773,1.2935,1.3085,0.0,1.3214,1.3458,1.3702,1.3844,1.3994,1.4136,1.4292,1.4319,1.4367,1.4509,1.4801,1.5113,1.5425,1.5825,1.6029,1.59,1.6402,1.6734,1.6748,1.6748,1.668,1.653,1.6388,1.6239,1.609,1.6347,1.649,1.649,1.649,1.6422,1.6293,1.6293,1.6137,1.5832,1.571,1.556,0.0,1.5269,1.5282,1.5384,1.5255,1.5276,1.5377,1.5242,1.5099,1.4991,1.5126,1.5092,1.497,1.4984,1.4984,1.4984,1.4984,1.5072,1.516,1.5025,1.4875,1.4753,1.474,1.474,1.474,1.474,1.4631,1.4563,1.4706,1.4529,1.4367,1.4482,1.4407,1.4312,1.4299,1.4299,1.434,1.4475,1.4502,1.4611,1.4909,1.4964,1.5025,1.5181,1.5187,1.5194,1.5215,1.5194,1.5187,1.5201,1.5187,1.5242,1.5384,1.5404,1.5472,1.5615,1.5642,1.5655,1.5655,1.5798,1.5866,1.5866,1.6015,1.6083,1.6076,1.5934,1.5866,1.2149,0.0,1.2522,1.2589,1.2671,1.28,0.0,1.3241,1.341,1.3634,1.3838,1.4014,1.4163,1.4224,1.4292,1.4434,1.4462,1.4516,1.4665,1.5045,1.5459,1.5872,1.6015,1.611,1.6191,1.6429,1.6625,1.6741,1.6748,1.668,1.653,1.6388,1.6239,1.609,1.6151,1.6185,1.6185,1.6185,1.6171,1.6137,1.6137,1.5981,1.5689,1.5771,1.5594,1.5248,1.5445,1.5418,1.5242,1.5323,1.5309,1.5235,1.5194,1.5099,1.4991,1.5126,1.5092,1.4984,1.5092,1.5133,1.5133,1.5133,1.5153,1.5174,1.5147,1.5031,1.4896,1.4774,1.474,1.474,1.474,1.4713,1.4699,1.4733,1.4685,1.4611,1.4529,1.4482,1.4428,1.4319,1.4299,1.4312,1.4346,1.4441,1.4577,1.4767,1.4896,1.5065,1.5323,1.5255,1.5269,1.5506,1.5323,1.5228,1.535,1.5248,1.5201,1.5235,1.5343,1.5425,1.5466,1.5683,1.5805,1.5805,1.5954,1.6029,1.6029,1.6062,1.6083,1.6083,1.6042,1.6029,1.2332,1.2535,1.2725,1.2793,1.2976,1.322,1.3519,1.3546,1.3566,0.0,0.0,1.4095,1.4183,1.4251,1.4326,1.4401,1.4468,1.4638,1.4997,1.5316,1.5628,1.594,1.6042,1.609,1.6096,1.6293,1.6463,1.6544,1.6544,1.651,1.6429,1.6286,1.6164,1.6083,1.6083,1.6083,1.6083,1.6083,1.6083,1.6083,1.6083,1.5995,1.5845,1.5852,1.5723,1.5499,1.5594,1.5547,1.5391,1.5404,1.5364,1.5282,1.5208,1.5133,1.5079,1.5153,1.5133,1.5079,1.5153,1.5181,1.5181,1.5181,1.5181,1.5181,1.5181,1.5126,1.5052,1.4964,1.4943,1.4943,1.4943,1.4896,1.4862,1.493,1.4841,1.474,1.4726,1.4665,1.457,1.4428,1.4455,1.4482,1.4407,1.4577,1.4746,1.4835,1.497,1.5126,1.5289,1.5235,1.5248,1.5411,1.5282,1.5215,1.5296,1.5296,1.5316,1.5391,1.5472,1.5574,1.571,1.5872,1.5961,1.5961,1.6042,1.6083,1.6083,1.6083,1.6083,1.6083,1.6151,1.6185,1.2691,1.2976,1.32,1.3207,1.3471,1.3783,1.3987,0.0,0.0,0.0,0.0,0.0,1.4109,1.4231,0.0,0.0,1.4489,1.4767,1.5303,1.5486,1.5628,1.5798,1.5954,1.5995,1.5866,1.613,1.6307,1.6307,1.6307,1.6307,1.6307,1.6164,1.6083,1.6083,1.6083,1.6083,1.6083,1.6083,1.6083,1.6083,1.6083,1.6069,1.6042,1.5934,1.5866,1.5818,1.5744,0.0,1.5628,1.5499,1.5432,1.5398,1.5242,1.5181,1.5181,1.5181,1.5181,1.5181,1.516,1.5167,1.5181,1.516,1.5167,1.5181,1.5181,1.5181,1.5181,1.5181,1.5181,1.5181,1.5181,1.5092,1.5031,1.5153,1.4991,1.4835,1.495,1.4869,1.4726,1.4577,1.4652,1.4699,1.457,1.478,1.497,1.497,1.5092,1.5194,1.5215,1.5215,1.5235,1.5282,1.5262,1.5262,1.5282,1.5384,1.5513,1.5662,1.5669,1.5798,1.6069,1.6083,1.6083,1.6083,1.6083,1.6083,1.6083,1.6083,1.6096,1.6123,1.6252,1.632,1.2881,1.3587,1.4129,1.3519,1.3783,1.4143,1.3926,0.0,0.0,0.0,0.0,0.0,0.0,1.438,1.4523,0.0,1.4801,1.4977,1.5187,1.5235,1.5357,1.5635,1.5798,1.5879,1.5852,1.613,1.6307,1.6307,1.6307,1.6307,1.6307,1.6164,1.6083,1.6083,1.6083,1.6083,1.6083,1.6083,1.6083,1.6083,1.6083,1.6015,1.5893,1.6001,1.5913,1.5683,0.0,1.5872,1.5635,1.5615,1.5527,1.5398,1.5242,1.5181,1.5181,1.5181,1.5181,1.5167,1.5045,1.5079,1.516,1.5045,1.5086,1.5181,1.5181,1.5181,1.5181,1.5181,1.5181,1.5181,1.5181,1.5167,1.5153,1.5174,1.5147,1.5086,1.4991,1.495,1.4889,1.4733,1.4726,1.4733,1.4706,1.4855,1.497,1.497,1.5092,1.5228,1.5357,1.5377,1.5472,1.5723,1.5642,1.5622,1.5737,1.5662,1.5669,1.5811,1.5818,1.59,1.6076,1.6083,1.6083,1.6083,1.6083,1.6083,1.6083,1.6083,1.6151,1.6273,1.63,1.6374,1.301,1.3661,1.4211,1.3953,1.4394,1.4882,1.4828,1.4618,0.0,0.0,0.0,0.0,0.0,1.4414,1.459,1.4828,1.4923,1.5052,1.5276,1.5303,1.5357,1.5499,1.5716,1.5825,1.5744,1.6008,1.6185,1.6185,1.6185,1.6151,1.6069,1.6076,1.6042,1.5961,1.6035,1.6083,1.6083,1.6083,1.6083,1.6083,1.6083,1.6042,1.5981,1.6049,1.6008,1.5886,0.0,1.6001,1.5872,1.5791,1.5669,1.5527,1.5459,1.533,1.5181,1.5181,1.5181,1.5174,1.5106,1.5126,1.5174,1.5106,1.5126,1.5181,1.5181,1.5181,1.5181,1.5181,1.5181,1.5181,1.5181,1.5181,1.5181,1.5181,1.5181,1.5167,1.5099,1.5086,1.5038,1.4896,1.4923,1.493,1.4767,1.493,1.5059,1.4984,1.5092,1.5208,1.5276,1.5357,1.5466,1.5601,1.5628,1.5669,1.573,1.575,1.5784,1.5852,1.5934,1.6042,1.6198,1.6123,1.6123,1.6205,1.6123,1.6083,1.6083,1.6164,1.6239,1.6313,1.6476,1.6585,1.3105,1.3641,1.4163,1.4312,0.0,1.5309,1.5533,1.5147,0.0,0.0,0.0,0.0,0.0,1.4496,1.4699,1.493,1.5031,1.5153,1.5377,1.5411,1.5411,1.5411,1.5642,1.5757,1.5649,1.5872,1.6042,1.6076,1.6049,1.5974,1.5957,1.5961,1.5974,1.5859,1.6001,1.6083,1.6083,1.6083,1.6083,1.6083,1.6083,1.6083,1.6083,1.6083,1.6083,1.6083,1.6083,1.6083,1.6069,1.592,1.5791,1.5683,1.5615,1.5418,1.5181,1.5181,1.5181,1.5174,1.5147,1.5153,1.5174,1.5147,1.5153,1.5181,1.5181,1.5181,1.5181,1.5181,1.5181,1.5181,1.5181,1.5181,1.5181,1.5181,1.5181,1.5181,1.5181,1.5181,1.5153,1.5038,1.5106,1.5113,1.4882,1.5031,1.5147,1.5038,1.5113,1.5181,1.5181,1.5316,1.5411,1.5411,1.5581,1.5703,1.5737,1.5811,1.5866,1.5906,1.6015,1.6137,1.6252,1.6144,1.6137,1.6252,1.6144,1.6083,1.6083,1.6232,1.6327,1.6368,1.6625,1.6768,1.3132,1.3715,1.4319,1.4462,1.4645,1.4903,1.533,1.5072,0.0,1.5092,0.0,0.0,0.0,1.474,1.4943,1.497,1.5201,1.5384,1.5404,1.5411,1.5411,1.5411,1.5554,1.5649,1.5642,1.5778,1.5927,1.6069,1.5947,1.5866,1.5852,1.5866,1.5866,1.5852,1.6001,1.6083,1.6083,1.6083,1.6083,1.6083,1.6083,1.6083,1.6083,1.6083,1.6083,1.6083,1.6083,1.6083,1.6069,1.592,1.5845,1.5811,1.5533,1.5323,1.5181,1.5181,1.5181,1.516,1.5031,1.5072,1.516,1.5031,1.5072,1.5181,1.5181,1.5181,1.5181,1.5181,1.5181,1.5181,1.5181,1.5181,1.5181,1.5181,1.5181,1.5181,1.5181,1.5181,1.5181,1.5167,1.5174,1.5174,1.5153,1.5167,1.5181,1.5167,1.5174,1.5181,1.5181,1.5316,1.5411,1.5411,1.5669,1.5893,1.6035,1.5927,1.5913,1.6056,1.6076,1.609,1.6096,1.609,1.609,1.6096,1.609,1.6083,1.6083,1.6232,1.6374,1.651,1.6673,1.6829,1.3132,1.3654,1.419,1.434,1.4563,0.0,0.0,1.5411,1.5215,1.5425,1.5228,0.0,0.0,0.0,1.4862,1.4957,1.514,1.5303,1.5398,1.533,1.5303,1.5398,1.5459,1.5499,1.5499,1.571,1.5839,1.5811,1.5832,1.5771,1.5588,1.5669,1.5716,1.5716,1.5778,1.5893,1.6083,1.5988,1.5988,1.6083,1.6083,1.6083,1.6083,1.6083,1.6083,1.6083,1.6083,1.6083,1.6076,1.6022,1.594,1.5825,1.5527,1.5432,1.5445,1.5255,1.5181,1.5174,1.512,1.514,1.5174,1.512,1.514,1.5181,1.5181,1.5181,1.5181,1.5181,1.5181,1.5181,1.5181,1.5181,1.5181,1.5181,1.5181,1.5181,1.5181,1.5181,1.5181,1.5181,1.5181,1.5181,1.5181,1.5113,1.5052,1.5052,1.5052,1.5052,1.5052,1.5262,1.5411,1.5411,1.5594,1.5744,1.5805,1.575,1.5784,1.5934,1.6029,1.6123,1.6218,1.613,1.6123,1.6225,1.613,1.6083,1.6083,1.6327,1.6469,1.6524,1.6775,1.6924,1.3207,1.3648,1.4109,1.4265,0.0,0.0,1.5628,1.5594,1.5466,1.5669,1.5391,0.0,1.4787,0.0,0.0,1.5004,1.516,1.5309,1.5459,1.5391,1.535,1.5404,1.5411,1.5411,1.5411,1.5642,1.5744,1.5649,1.573,1.5676,1.5425,1.5513,1.5567,1.5567,1.5615,1.5737,1.594,1.5879,1.5879,1.594,1.6035,1.6083,1.6083,1.6083,1.6083,1.6083,1.6083,1.6083,1.6083,1.6083,1.5995,1.5825,1.5581,1.552,1.5533,1.5276,1.5181,1.5181,1.5181,1.5181,1.5174,1.5126,1.5113,1.5106,1.5059,1.5045,1.5052,1.5099,1.5113,1.5126,1.5167,1.5181,1.5181,1.5181,1.5181,1.5181,1.5181,1.5181,1.5181,1.5181,1.5181,1.5167,1.512,1.5072,1.5025,1.4977,1.5011,1.5038,1.5038,1.5215,1.5357,1.5404,1.5459,1.5533,1.5628,1.5594,1.5649,1.5839,1.5954,1.6076,1.6232,1.6137,1.613,1.6239,1.6137,1.6083,1.6083,1.6334,1.6476,1.653,1.6788,1.6937,1.3356,1.3729,1.4109,1.4258,0.0,0.0,1.5499,1.552,1.5493,1.5791,1.5384,1.4923,1.4767,1.474,0.0,1.5133,1.5309,1.5459,1.5615,1.5635,1.5581,1.5432,1.5411,1.5411,1.5411,1.5547,1.5635,1.5635,1.5635,1.5567,1.5418,1.5411,1.5309,1.5316,1.5457,1.5538,1.5545,1.5778,1.5778,1.5545,1.5934,1.6076,1.6083,1.6083,1.6083,1.6083,1.6083,1.6083,1.6083,1.6083,1.5988,1.5839,1.5696,1.5547,1.5398,1.5242,1.5181,1.5181,1.5181,1.5181,1.516,1.5018,1.497,1.4943,1.4787,1.474,1.4774,1.493,1.497,1.5004,1.5147,1.5181,1.5181,1.5181,1.5181,1.5181,1.5181,1.5181,1.5181,1.5181,1.5181,1.514,1.4997,1.5086,1.5126,1.4991,1.5086,1.5181,1.5181,1.5181,1.5242,1.5391,1.5276,1.5303,1.5608,1.5493,1.5533,1.5832,1.5852,1.592,1.6076,1.6083,1.6083,1.6083,1.6083,1.6083,1.6083,1.6239,1.6388,1.6524,1.668,1.6836,1.3254,1.3648,0.0,1.4129,0.0,0.0,0.0,1.5452,0.0,0.0,1.5309,1.4957,1.4909,1.4903,0.0,1.5018,1.5153,1.5303,1.5459,1.5384,1.5343,1.5404,1.5316,1.5248,1.5248,1.5391,1.5432,1.5323,1.5418,1.5411,1.5255,1.353,1.2617,1.2701,1.0931,1.002,1.025,1.1961,1.2938,1.2989,1.4841,1.5825,1.5927,1.6035,1.6083,1.6083,1.6083,1.6083,1.6076,1.5967,1.5954,1.5981,1.5622,1.5513,1.554,1.5276,1.5181,1.5181,1.5181,1.512,1.5025,1.4984,1.4896,1.4801,1.4753,1.474,1.4774,1.493,1.497,1.5004,1.5147,1.5181,1.5181,1.5181,1.5181,1.5181,1.5181,1.5181,1.5181,1.5181,1.5181,1.514,1.4997,1.4916,1.4821,1.4672,1.4774,1.495,1.5153,1.5181,1.5201,1.5248,1.5208,1.5221,1.5309,1.5276,1.5377,1.5683,1.5703,1.5818,1.6069,1.6083,1.6083,1.6083,1.6185,1.6239,1.6246,1.6497,1.6639,1.6686,1.6842,1.6937,1.36,1.3973,0.0,1.4482,1.4943,1.5398,1.5513,0.0,0.0,0.0,1.533,1.5059,1.5059,1.5011,1.5011,1.5126,1.5215,1.5303,1.5398,1.533,1.5282,1.5316,1.5242,1.5181,1.5181,1.5323,1.535,1.5194,1.5323,1.5343,1.5194,1.281,1.1436,1.1543,0.8964,0.765,0.7866,1.0326,1.1654,1.1685,1.4314,1.5683,1.5771,1.592,1.6022,1.6083,1.6083,1.6083,1.6069,1.592,1.5906,1.5954,1.556,1.5466,1.552,1.5276,1.5181,1.5174,1.512,1.5045,1.495,1.4828,1.4726,1.4652,1.4652,1.4652,1.4692,1.4909,1.493,1.4923,1.5126,1.514,1.5113,1.5167,1.5181,1.5181,1.5181,1.5181,1.5181,1.5181,1.5181,1.514,1.4997,1.4896,1.478,1.4624,1.4733,1.4916,1.5153,1.5181,1.5181,1.5181,1.5181,1.5181,1.5181,1.5181,1.5309,1.5622,1.5642,1.5771,1.6069,1.6083,1.6083,1.6083,1.6232,1.6307,1.6307,1.6544,1.6686,1.6754,1.6842,1.6924,1.4143,1.4496,1.4808,1.5092,1.5411,0.0,1.6015,1.5852,1.5642,1.5642,0.0,1.5201,1.5181,1.5079,1.5079,1.5343,1.5391,1.5391,1.5391,1.5391,1.5337,1.5201,1.5181,1.5181,1.5181,1.5309,1.533,1.5194,1.5309,1.5242,1.4825,1.2433,1.0957,1.0677,0.8489,0.7246,0.7214,1.0094,1.1482,1.139,1.4208,1.5601,1.5622,1.5784,1.594,1.6083,1.6083,1.6076,1.6049,1.59,1.5832,1.5805,1.5506,1.5398,1.5391,1.5242,1.5181,1.5167,1.5031,1.497,1.4903,1.4624,1.4516,1.4496,1.4509,1.4509,1.457,1.4869,1.4862,1.4821,1.5092,1.5079,1.5025,1.5153,1.5181,1.5181,1.5167,1.516,1.516,1.5147,1.5153,1.5113,1.4957,1.4943,1.4903,1.476,1.4862,1.5004,1.516,1.5181,1.5181,1.5181,1.5181,1.5181,1.5181,1.5181,1.5309,1.5601,1.5635,1.5764,1.6049,1.6076,1.6083,1.6083,1.6246,1.6327,1.6327,1.6483,1.6632,1.6768,1.6768,1.6842,1.3885,1.4333,0.0,1.497,1.5418,1.5859,1.6042,1.5852,1.5642,1.5642,1.5493,1.5323,1.5208,1.516,1.516,1.5221,1.5228,1.5228,1.5228,1.5228,1.5221,1.5187,1.5181,1.5181,1.5181,1.5215,1.5215,1.5181,1.5215,1.4405,1.2371,0.981,0.7534,0.5493,0.487,0.4662,0.4575,0.9138,1.1411,1.139,1.4008,1.5343,1.5466,1.573,1.594,1.6083,1.6083,1.6015,1.5893,1.5744,1.5683,1.5655,1.535,1.5303,1.5391,1.5242,1.5181,1.5181,1.5147,1.4984,1.478,1.4713,1.4536,1.4367,1.4475,1.4509,1.455,1.474,1.4855,1.4936,1.4997,1.5079,1.5147,1.5174,1.5181,1.5153,1.5038,1.5018,1.4984,1.4862,1.4936,1.493,1.4658,1.4713,1.478,1.4746,1.4767,1.4882,1.5147,1.5181,1.5181,1.5181,1.5181,1.5181,1.5181,1.5181,1.5262,1.5445,1.5574,1.5716,1.5893,1.6015,1.6083,1.6083,1.6341,1.6476,1.6476,1.6748,1.6897,1.6931,1.6931,1.6951,1.396,1.4448,0.0,1.5391,0.0,1.5981,1.6062,1.5906,1.5744,1.5744,1.5567,1.5364,1.5208,1.5242,1.5269,1.5194,1.5181,1.5181,1.5181,1.5181,1.5181,1.5181,1.5181,1.5181,1.5181,1.5181,1.5181,1.5181,1.404,1.2839,1.1467,0.8944,0.6963,0.5685,0.5633,0.5617,0.5643,0.9418,1.139,1.139,1.3946,1.5262,1.5418,1.5716,1.5859,1.5872,1.594,1.5886,1.5737,1.5588,1.5527,1.5506,1.5276,1.5228,1.5289,1.5215,1.5181,1.5174,1.5106,1.493,1.4726,1.4652,1.4482,1.4326,1.4468,1.4509,1.4557,1.4787,1.4855,1.4896,1.5038,1.5025,1.5004,1.5147,1.5181,1.516,1.5086,1.5018,1.497,1.4957,1.4964,1.4943,1.4848,1.478,1.4767,1.4841,1.4787,1.4848,1.5147,1.5181,1.5181,1.5181,1.5181,1.5181,1.5181,1.5181,1.5248,1.5398,1.5554,1.5703,1.5845,1.6001,1.6083,1.6083,1.6374,1.6524,1.6524,1.6829,1.6978,1.6978,1.6978,1.6978,1.3994,1.4529,1.5113,1.5859,1.6042,0.0,1.6076,1.5961,1.5845,1.5818,1.5622,1.5404,1.5248,1.535,1.5391,1.5215,1.5208,1.5215,1.5187,1.5181,1.5181,1.5181,1.5181,1.5181,1.5181,1.5181,1.5181,1.5181,1.3281,1.1878,1.1441,0.941,0.8112,0.7625,0.8021,0.8288,0.8262,1.0768,1.2062,1.2083,1.4266,1.5276,1.5384,1.5655,1.573,1.5649,1.5764,1.5737,1.5588,1.5466,1.5398,1.5357,1.5228,1.5181,1.5181,1.5181,1.5181,1.5167,1.5052,1.4889,1.4719,1.459,1.4434,1.4326,1.4468,1.4509,1.457,1.4855,1.4855,1.4835,1.5079,1.4964,1.4848,1.512,1.5147,1.5106,1.5106,1.5018,1.495,1.5018,1.4936,1.4903,1.5045,1.4862,1.4753,1.4909,1.4841,1.4875,1.5147,1.5181,1.5181,1.5181,1.5181,1.5181,1.5181,1.5181,1.5248,1.5398,1.5554,1.5703,1.5845,1.6001,1.6083,1.6083,1.6347,1.6497,1.6524,1.6802,1.6951,1.6978,1.6978,1.6978,1.3431,0.0,1.495,0.0,1.5886,1.592,0.0,0.0,1.5818,0.0,1.5635,1.556,1.5411,1.5506,1.5513,1.5228,1.5296,1.5337,1.5201,1.5181,1.5181,1.5181,1.5181,1.5181,1.5181,1.5181,1.5181,1.5181,1.4899,1.3761,1.1661,1.1106,0.9949,0.7793,0.9772,1.0918,1.0933,1.3387,1.477,1.4901,1.5187,1.5323,1.5221,1.5391,1.5533,1.5642,1.5655,1.5581,1.5438,1.5418,1.533,1.5208,1.5194,1.5181,1.5181,1.5181,1.5181,1.5181,1.516,1.497,1.4733,1.4713,1.4523,1.4326,1.4468,1.4509,1.455,1.4719,1.4855,1.495,1.4991,1.497,1.4984,1.5147,1.4984,1.4801,1.4801,1.4787,1.4699,1.4462,1.4401,1.4434,1.4577,1.457,1.4597,1.4746,1.4869,1.4997,1.516,1.5181,1.5181,1.5181,1.5181,1.5181,1.5181,1.5181,1.5248,1.5398,1.5554,1.5703,1.5845,1.6001,1.6083,1.6083,1.6252,1.6395,1.6524,1.6693,1.6849,1.6978,1.6978,1.6978,1.3451,1.4061,1.4672,0.0,1.5608,1.5649,1.5798,1.5716,1.5615,1.5635,1.5567,1.5466,1.5309,1.5404,1.5438,1.5215,1.5242,1.5262,1.5194,1.5181,1.5181,1.5181,1.5181,1.5181,1.5181,1.5181,1.5181,1.5181,1.3852,1.2572,1.1528,1.1441,1.0957,0.9894,1.2199,1.3569,1.3569,1.461,1.5215,1.5282,1.5282,1.5248,1.5181,1.5255,1.5316,1.5391,1.5472,1.5425,1.5282,1.5282,1.5242,1.5181,1.5181,1.5181,1.5181,1.5181,1.5181,1.5174,1.5092,1.4923,1.4726,1.4638,1.4468,1.4312,1.4373,1.4394,1.4421,1.457,1.4658,1.4753,1.493,1.4841,1.4774,1.5011,1.4835,1.4611,1.4611,1.4611,1.457,1.4441,1.4489,1.4563,1.4631,1.4638,1.4692,1.4848,1.493,1.5025,1.5167,1.5181,1.5181,1.5181,1.5181,1.5181,1.5181,1.5181,1.5248,1.5398,1.5554,1.5703,1.5845,1.6001,1.6083,1.6083,1.6232,1.6341,1.6402,1.6551,1.67,1.6849,1.6849,1.6897,1.3315,1.3783,1.419,1.4943,1.565,1.6045,0.0,0.0,1.6195,1.565,1.5493,1.5364,1.5208,1.5337,1.5404,1.5215,1.5215,1.5228,1.5187,1.5181,1.5181,1.5181,1.5181,1.5181,1.5181,1.5181,1.5181,1.5181,1.3475,1.235,1.2383,1.2383,1.2383,1.2383,1.4285,1.5221,1.5181,1.5221,1.5221,1.5181,1.5221,1.5221,1.5181,1.5181,1.5181,1.5187,1.5303,1.5289,1.5181,1.5181,1.5181,1.5181,1.5181,1.5181,1.5181,1.5181,1.5181,1.516,1.5018,1.4869,1.4713,1.4563,1.4414,1.4299,1.4299,1.4299,1.4333,1.4468,1.4509,1.4584,1.4889,1.4774,1.4638,1.4909,1.4733,1.4509,1.4509,1.4482,1.4462,1.4462,1.455,1.4624,1.4624,1.4692,1.4767,1.4841,1.495,1.5052,1.512,1.516,1.5181,1.5181,1.5181,1.5181,1.5181,1.5181,1.5262,1.5459,1.5574,1.5723,1.5906,1.6022,1.6083,1.6083,1.6191,1.6273,1.6307,1.6415,1.6544,1.6693,1.6693,1.6754,1.2657,1.3003,1.341,1.417,1.6257,1.7612,1.579,1.7109,1.8136,1.5895,1.5418,1.5364,1.5208,1.5425,1.5527,1.5228,1.5303,1.535,1.5201,1.5181,1.5181,1.5181,1.5181,1.5181,1.5181,1.5181,1.5181,1.5181,1.5087,1.5053,1.52,1.5207,1.5207,1.5207,1.5302,1.533,1.5181,1.5323,1.5323,1.5181,1.533,1.5323,1.5181,1.5181,1.5181,1.5181,1.5194,1.5187,1.5181,1.5181,1.5181,1.5181,1.5181,1.5181,1.5181,1.5181,1.5181,1.516,1.5018,1.4869,1.4713,1.4563,1.4414,1.4299,1.4299,1.4299,1.4333,1.4468,1.4509,1.4584,1.4889,1.4848,1.4767,1.493,1.4733,1.4509,1.4509,1.4407,1.4312,1.4312,1.4319,1.4326,1.4326,1.4557,1.4692,1.4557,1.4896,1.5126,1.4997,1.5099,1.5181,1.5181,1.5181,1.5181,1.5181,1.5181,1.5309,1.5608,1.5635,1.5771,1.6056,1.6076,1.6083,1.6083,1.609,1.6164,1.6307,1.632,1.6395,1.653,1.653,1.6537,0.0,0.0,1.6526,1.5945,1.7768,1.9618,1.899,1.863,1.82,1.749,1.614,1.514,1.5174,1.5269,1.5309,1.5201,1.5228,1.5276,1.5323,1.533,1.5364,1.5466,1.5391,1.533,1.533,1.5242,1.5181,1.5181,1.5276,1.535,1.5404,1.7104,1.7954,1.775,1.9432,2.018,1.9891,1.8387,1.7592,1.7327,1.5931,1.5133,1.4903,1.5092,1.5079,1.4903,1.5004,1.5099,1.5181,1.5181,1.5181,1.5181,1.5181,1.5181,1.5174,1.5079,1.5106,1.5133,1.4794,1.4706,1.4699,1.4455,1.434,1.4299,1.4299,1.4299,1.4312,1.436,1.4373,1.4421,1.4624,1.457,1.4468,1.4529,1.4455,1.4373,1.4373,1.4333,1.4299,1.4299,1.4299,1.4299,1.4299,1.4462,1.4577,1.4523,1.4814,1.5031,1.4977,1.5092,1.5181,1.5181,1.5181,1.5181,1.5181,1.5181,1.5309,1.5622,1.5642,1.5771,1.6069,1.6083,1.6083,1.6083,1.5988,1.5961,1.6015,1.6117,1.6191,1.6239,1.6341,1.7335,1.3475,0.0,0.0,0.0,1.943,2.1108,2.1008,1.9965,1.884,1.844,1.6567,1.4997,1.5092,1.5153,1.5201,1.5248,1.5262,1.5309,1.5466,1.5486,1.5506,1.5554,1.5472,1.5391,1.5337,1.5242,1.5181,1.5181,1.5323,1.5411,1.5411,1.7157,1.8495,1.9064,2.1515,2.2707,2.2464,2.0824,1.9538,1.86,1.6926,1.5661,1.4746,1.4943,1.4957,1.4821,1.4869,1.4977,1.5106,1.5052,1.5092,1.5174,1.5126,1.5113,1.5099,1.5004,1.4997,1.4984,1.4631,1.4577,1.4624,1.438,1.4299,1.4299,1.4299,1.4299,1.4299,1.4299,1.4299,1.4333,1.4475,1.4441,1.4373,1.4373,1.4333,1.4299,1.4299,1.4299,1.4299,1.4299,1.4299,1.4299,1.4299,1.4421,1.4496,1.4448,1.4699,1.4875,1.4821,1.4991,1.5113,1.5113,1.5153,1.5181,1.5181,1.5181,1.5289,1.5547,1.5608,1.575,1.5995,1.6056,1.6056,1.6008,1.5906,1.5805,1.5703,1.5906,1.6517,1.7452,1.7462,1.8983,0.0,0.0,0.0,0.0,0.0,2.2258,2.1656,2.0998,2.0115,1.8633,1.6469,1.495,1.497,1.5086,1.5228,1.5384,1.5411,1.5466,1.5615,1.5642,1.5594,1.5445,1.5425,1.5364,1.5208,1.5194,1.5187,1.5181,1.533,1.5418,1.5418,1.565,1.6892,1.9252,2.1558,2.2739,2.2729,2.2323,2.0934,1.8675,1.8324,1.6892,1.4726,1.4733,1.4814,1.4943,1.4801,1.4828,1.495,1.4801,1.4909,1.516,1.5018,1.497,1.497,1.4964,1.4862,1.4719,1.4563,1.4509,1.4489,1.4346,1.4299,1.4299,1.4299,1.4299,1.4299,1.4299,1.4299,1.4333,1.4468,1.4502,1.4502,1.4502,1.4401,1.4299,1.4299,1.4299,1.4299,1.4299,1.4299,1.4299,1.4299,1.4414,1.4462,1.4319,1.4543,1.4679,1.4529,1.478,1.497,1.497,1.5099,1.5181,1.5181,1.5181,1.5248,1.5398,1.5547,1.5696,1.5845,1.5995,1.6001,1.5859,1.5845,1.5703,1.5418,1.58,1.7373,1.9961,2.0166,2.1648,1.4551,0.0,0.0,0.0,0.0,0.0,2.4286,2.2006,1.9841,1.9895,1.6984,1.4455,1.4889,1.5004,1.5113,1.5371,1.5411,1.5466,1.5615,1.573,1.5818,1.5886,1.5798,1.5676,1.5527,1.5411,1.5303,0.0,1.5425,1.5574,1.5574,1.8934,2.2085,2.448,2.6735,2.7795,2.7596,2.4059,2.1781,2.0762,1.7304,1.525,1.4428,1.4645,1.4645,1.4496,1.4665,1.4767,1.4801,1.476,1.4855,1.5018,1.4862,1.4869,1.4943,1.4719,1.4679,1.4706,1.4448,1.4428,1.4489,1.4346,1.4299,1.4299,1.4299,1.4299,1.4299,1.4299,1.4299,1.4306,1.4346,1.436,1.436,1.436,1.4326,1.4299,1.4299,1.4299,1.4299,1.4299,1.4299,1.4299,1.4299,1.4333,1.4346,1.4306,1.4455,1.4557,1.4516,1.478,1.497,1.497,1.5099,1.5181,1.5181,1.5181,1.5248,1.5398,1.5452,1.5588,1.5845,1.5791,1.5791,1.5852,1.5642,1.5547,1.5574,1.7469,1.8769,1.9774,2.3728,2.6144,0.0,0.0,0.0,0.0,0.0,0.0,2.4598,2.1839,1.9244,1.9117,1.6393,1.4122,1.4604,1.474,1.4875,1.5181,1.533,1.5486,1.5696,1.5913,1.6029,1.5988,1.5961,1.5866,1.5655,1.5499,1.5371,1.5282,1.5445,1.6021,1.6958,2.1763,2.5125,2.6464,2.8604,2.9201,2.8029,2.4998,2.234,2.0236,1.7364,1.543,1.4306,1.4475,1.4496,1.4394,1.4509,1.459,1.4645,1.4645,1.4774,1.495,1.4733,1.4699,1.476,1.4577,1.4529,1.4529,1.436,1.4353,1.4407,1.4326,1.4299,1.4299,1.4299,1.4299,1.4299,1.4299,1.4299,1.4299,1.4299,1.4299,1.4299,1.4299,1.4299,1.4299,1.4299,1.4299,1.4299,1.4299,1.4299,1.4299,1.4299,1.4299,1.4299,1.4299,1.4373,1.4421,1.4421,1.4631,1.4801,1.4869,1.5004,1.512,1.5174,1.5181,1.5221,1.5309,1.5377,1.552,1.575,1.5683,1.5676,1.5764,1.5533,1.6459,1.8452,1.9,2.0434,2.2879,2.7178,2.9409,0.0,0.0,0.0,0.0,0.0,0.0,2.3597,2.1312,1.8917,1.7645,1.557,1.4094,1.4163,1.434,1.4529,1.4828,1.5147,1.5472,1.5784,1.6103,1.6212,1.5934,1.6022,1.5995,1.5716,1.5547,1.5452,1.5438,1.5718,1.6934,1.9467,2.4005,2.6396,2.6241,2.8386,2.8512,2.639,2.5536,2.3075,1.9,1.8199,1.6721,1.4646,1.4387,1.4367,1.4482,1.4373,1.4394,1.4509,1.4509,1.4685,1.4916,1.4624,1.4523,1.4529,1.4502,1.4421,1.4319,1.4306,1.4319,1.4346,1.4312,1.4312,1.4326,1.4326,1.4312,1.4299,1.4299,1.4299,1.4299,1.4299,1.4299,1.4299,1.4299,1.4299,1.4299,1.4299,1.4299,1.4299,1.4299,1.4299,1.4299,1.4299,1.4299,1.4299,1.4299,1.4299,1.4299,1.4299,1.4421,1.4563,1.4699,1.4869,1.5025,1.5147,1.5174,1.5181,1.5181,1.5309,1.5452,1.5608,1.5594,1.5594,1.5615,1.5466,1.7554,2.2096,2.0367,2.2348,2.7735,2.9777,3.0993,1.6412,1.833,2.0415,2.2923,0.0,0.0,2.4262,2.2495,2.0427,1.9274,1.7181,1.5186,1.3928,1.3878,1.4034,1.4217,1.4706,1.5201,1.5622,1.6042,1.6286,1.6225,1.6246,1.6191,1.6015,1.5859,1.5716,1.5601,1.7394,1.9664,2.2293,2.5032,2.6396,2.6241,2.8578,2.9535,2.884,2.6607,2.4916,2.374,1.9678,1.7588,1.7071,1.5168,1.4319,1.4346,1.4434,1.4482,1.4509,1.4509,1.4618,1.4767,1.4584,1.4584,1.4665,1.4428,1.4394,1.4455,1.434,1.4455,1.4618,1.438,1.438,1.4468,1.4468,1.4387,1.4299,1.4299,1.4299,1.4299,1.4299,1.4299,1.4299,1.4299,1.4299,1.4299,1.4299,1.4299,1.4299,1.4299,1.4299,1.4299,1.4299,1.4299,1.4299,1.4299,1.4299,1.4299,1.4299,1.4421,1.4523,1.4557,1.4808,1.4984,1.5011,1.512,1.5181,1.5181,1.5208,1.5296,1.5452,1.5337,1.533,1.5452,1.5303,1.6696,1.9604,2.1384,2.4994,3.0121,2.8724,2.8211,0.0,0.0,2.0714,2.2999,0.0,0.0,0.0,2.1982,2.05,1.7951,1.6581,1.571,1.5034,1.5082,1.5639,1.709,1.7781,1.8184,1.8458,1.721,1.6171,1.609,1.7399,1.7729,1.6196,1.7206,1.768,1.7333,2.0709,2.3355,2.4655,2.6946,2.8123,2.8076,2.9128,2.9007,2.7549,2.6109,2.4603,2.313,1.9544,1.7763,1.7763,1.5337,1.4299,1.4306,1.4373,1.4407,1.4414,1.4482,1.4557,1.4618,1.4543,1.4604,1.4719,1.4577,1.4516,1.4502,1.4428,1.4455,1.4496,1.4346,1.4346,1.4407,1.4407,1.4353,1.4299,1.4299,1.4299,1.4299,1.4299,1.4299,1.4299,1.4299,1.4299,1.4299,1.4299,1.4299,1.4299,1.4299,1.4299,1.4299,1.4299,1.4299,1.4299,1.4299,1.4299,1.4299,1.4299,1.436,1.4434,1.4502,1.4719,1.4889,1.4964,1.5099,1.5181,1.5181,1.5181,1.5248,1.5404,1.5262,1.5221,1.5296,1.5221,1.6385,1.8871,2.0259,2.3014,2.691,2.5738,2.5414,0.0,0.0,0.0,0.0,0.0,2.3169,0.0,0.0,0.0,1.719,1.6681,1.6811,1.6573,1.6816,1.7692,1.9933,2.0617,2.1005,2.1194,1.8769,1.7015,1.7068,1.9167,1.9692,1.7516,1.9052,2.008,1.987,2.3772,2.6387,2.6948,2.8835,2.9913,2.9913,2.9686,2.851,2.6342,2.5989,2.4575,2.1888,1.9594,1.8191,1.7763,1.5337,1.4299,1.4299,1.4299,1.4299,1.4306,1.4421,1.4489,1.4509,1.4509,1.4604,1.4733,1.4679,1.4611,1.455,1.4489,1.4434,1.4373,1.4319,1.4319,1.4333,1.4306,1.4319,1.4333,1.4306,1.4299,1.4299,1.4299,1.4299,1.4299,1.4299,1.4299,1.4299,1.4299,1.4299,1.4299,1.4299,1.4299,1.4299,1.4299,1.4299,1.4299,1.4299,1.4299,1.4299,1.4299,1.4299,1.4346,1.4462,1.4604,1.476,1.4916,1.5059,1.5153,1.5181,1.5181,1.5242,1.5364,1.5248,1.5181,1.5181,1.5181,1.6198,1.8228,1.8228,1.9896,2.2993,2.2591,2.2619,0.0,0.0,0.0,0.0,2.3541,0.0,0.0,0.0,2.2942,2.0908,0.0,0.0,0.0,0.0,0.0,0.0,0.0,2.006,2.009,2.0279,2.0682,2.1121,2.176,2.1978,2.1677,2.151,2.1859,2.2661,2.4533,2.6912,2.9807,2.988,2.9913,2.9913,2.9887,2.9637,2.9066,2.8688,2.7232,2.4673,2.2005,1.9749,1.7763,1.5337,1.4299,1.4299,1.4299,1.4299,1.4299,1.4319,1.4401,1.4509,1.4509,1.4604,1.4706,1.4448,1.4502,1.4679,1.4414,1.4482,1.4645,1.4387,1.4387,1.4462,1.434,1.4387,1.4462,1.4333,1.4299,1.4299,1.4299,1.4299,1.4299,1.4299,1.4299,1.4299,1.4299,1.4299,1.4299,1.4299,1.4299,1.4299,1.4299,1.4299,1.4299,1.4299,1.4299,1.4299,1.4299,1.4299,1.4306,1.4326,1.4448,1.4597,1.4753,1.4909,1.5052,1.5174,1.5181,1.5187,1.5208,1.5194,1.5181,1.5181,1.5181,1.5368,1.5643,1.5643,1.8139,2.2982,2.0673,1.9846,0.0,0.0,0.0,0.0,0.0,0.0,2.3541,0.0,2.2962,0.0,0.0,0.0,0.0,0.0,0.0,0.0,2.3098,0.0,2.3401,2.3962,2.371,2.1871,0.0,0.0,2.2292,2.0762,2.0571,2.2412,2.4375,2.6692,2.973,2.974,2.974,2.9913,2.8526,2.7581,2.7246,2.5689,2.4193,2.2837,2.0395,1.8714,1.7763,1.5337,1.4299,1.4299,1.4299,1.4299,1.4299,1.4299,1.4333,1.4387,1.4387,1.4529,1.4726,1.4597,1.4577,1.459,1.4468,1.4448,1.4462,1.434,1.434,1.438,1.4319,1.434,1.4373,1.4319,1.4299,1.4299,1.4299,1.4299,1.4299,1.4299,1.4299,1.4299,1.4299,1.4299,1.4299,1.4299,1.4299,1.4299,1.4299,1.4299,1.4299,1.4299,1.4299,1.4299,1.4299,1.4299,1.4299,1.4299,1.4428,1.4536,1.4604,1.4828,1.4997,1.5059,1.514,1.5181,1.5181,1.5181,1.5181,1.5181,1.5181,1.5181,1.5181,1.5181,1.6328,1.8436,1.7427,1.7082,2.2954,0.0,0.0,0.0,0.0,0.0,0.0,0.0,0.0,0.0,0.0,0.0,0.0,0.0,0.0,0.0,0.0,2.5718,0.0,2.6213,0.0,0.0,0.0,0.0,0.0,1.9729,1.9505,2.1,2.3589,2.5808,2.7422,2.8092,2.827,2.7748,2.6089,2.4969,2.4558,2.2747,2.1313,2.0269,1.8627,1.7501,1.6809,1.508,1.4299,1.4299,1.4299,1.4299,1.4299,1.4299,1.4299,1.421,1.3584,1.3432,1.3609,1.3609,1.3204,1.2507,1.2472,1.2853,1.3312,1.3312,1.3761,1.4299,1.4299,1.4299,1.4299,1.4299,1.4299,1.4299,1.4299,1.4299,1.4299,1.4299,1.4299,1.4299,1.4299,1.4299,1.4299,1.4299,1.4299,1.4299,1.4299,1.4299,1.4299,1.4299,1.4299,1.4299,1.4299,1.4299,1.4299,1.4299,1.4394,1.4468,1.4509,1.4719,1.4862,1.4903,1.5045,1.5126,1.5126,1.516,1.5181,1.5181,1.5181,1.5181,1.5181,1.5181,1.5181,1.5187,1.5296,1.5371,0.0,0.0,0.0,2.2953,0.0,0.0,0.0,0.0,2.3257,0.0,0.0,0.0,0.0,0.0,0.0,0.0,0.0,0.0,0.0,0.0,0.0,0.0,0.0,0.0,0.0,1.9439,1.9721,1.8613,2.2233,2.3875,2.2391,2.4484,2.4672,2.2433,2.2381,2.2189,2.1838,2.1876,2.0517,1.7929,1.7842,1.6641,1.4387,1.4299,1.4299,1.4299,1.4299,1.4299,1.4299,1.4299,1.4299,1.4033,1.1699,1.0811,1.0816,1.0816,0.9447,0.7613,0.7445,0.8842,1.0806,1.0806,1.2414,1.4299,1.4299,1.4299,1.4299,1.4299,1.4299,1.4299,1.4299,1.4299,1.4299,1.4299,1.4299,1.4299,1.4299,1.4299,1.4299,1.4299,1.4299,1.4299,1.4299,1.4299,1.4299,1.4299,1.4299,1.4299,1.4299,1.4299,1.4299,1.4299,1.4306,1.436,1.4502,1.4523,1.459,1.474,1.4896,1.4977,1.4977,1.5113,1.5181,1.5181,1.5181,1.5181,1.5181,1.5181,1.5181,1.5181,1.5187,1.5269,0.0,0.0,2.167,2.2651,0.0,0.0,0.0,0.0,0.0,0.0,0.0,0.0,0.0,0.0,0.0,0.0,0.0,0.0,0.0,0.0,0.0,0.0,0.0,0.0,0.0,0.0,1.637,1.7552,1.8937,0.0,2.1577,2.255,2.2709,2.2145,2.0526,1.9626,1.9353,1.7834,1.6515,1.5513,1.5513,1.508,1.4299,1.4299,1.4299,1.4299,1.4299,1.4299,1.4299,1.4299,1.3401,1.1876,1.0984,0.8753,0.6168,0.7773,0.7877,0.7184,0.7156,0.7595,0.8308,0.8308,0.9913,1.1882,1.1882,1.3046,1.4299,1.4299,1.4299,1.4299,1.4299,1.4299,1.4299,1.4299,1.4299,1.4299,1.4299,1.4299,1.4299,1.4299,1.4299,1.4299,1.4299,1.4299,1.4299,1.4299,1.4299,1.4299,1.4299,1.4299,1.4299,1.4299,1.4299,1.4319,1.4367,1.455,1.4726,1.4882,1.4943,1.497,1.497,1.5018,1.5045,1.5045,1.5133,1.5181,1.5181,1.5181,1.5181,1.5181,1.5181,1.5208,1.8459,1.9001,0.0,2.1471,2.2025,0.0,2.2762,0.0,0.0,0.0,0.0,0.0,0.0,0.0,0.0,0.0,0.0,0.0,0.0,2.2106,0.0,0.0,0.0,0.0,0.0,0.0,1.421,1.5933,1.6808,0.0,0.0,1.9681,1.9937,1.9355,1.7828,1.6981,1.6807,1.528,1.4441,1.4299,1.4299,1.4299,1.4299,1.4299,1.4299,1.4299,1.4299,1.4299,1.421,1.3401,1.2059,1.0535,0.8842,0.6347,0.3759,0.5276,0.5276,0.4561,0.4561,0.5097,0.5811,0.5811,0.804,1.0717,1.0717,1.2414,1.4299,1.4299,1.4299,1.4299,1.4299,1.4299,1.4299,1.4299,1.4299,1.4299,1.4299,1.4299,1.4299,1.4299,1.4299,1.4299,1.4299,1.4299,1.4299,1.4299,1.4299,1.4299,1.4299,1.4299,1.4299,1.4299,1.4299,1.4299,1.4299,1.4475,1.4645,1.4801,1.4808,1.4828,1.4889,1.4889,1.4889,1.4889,1.5031,1.5106,1.5106,1.516,1.5181,1.5181,1.5181,1.5181]},{"header":{"parameterUnit":"m.s-1","parameterCategory":1,"la1":30.6,"la2":29.2853,"lo1":-89.7004,"lo2":-87.6739,"dy":0.0162,"dx":0.0183,"nx":112,"ny":82,"refTime":"2024-08-23T00:00:00:Z","depth":0,"parameterNumber":3,"parameterNumberName":"V-component_of_WINDS"},"data":[0.0,0.0,0.0,0.0,0.0,0.0,0.0,0.0,0.0,0.0,0.0,0.0,0.0,0.0,0.0,0.0,0.0,0.0,0.0,0.0,0.0,0.0,0.0,0.0,0.0,0.0,0.0,0.0,0.0,0.0,0.0,0.0,0.0,0.0,0.0,0.0,0.0,0.0,0.0,0.0,0.0,0.0,0.0,0.0,0.0,0.0,0.0,0.0,0.0,0.0,0.0,0.0,0.0,0.0,0.0,0.0,0.0,0.0,0.0,0.0,0.0,0.0,0.0,0.0,0.0,0.0,0.0,0.0,0.0,0.0,0.0,0.0,0.0,0.0,0.0,0.0,0.0,0.0,0.0,0.0,0.0,0.0,0.0,0.0,0.0,0.0,0.0,0.0,0.0,0.0,5.1895,5.4587,5.6819,5.805,5.7896,5.7896,5.6126,5.1962,0.0,0.0,0.0,0.0,0.0,0.0,0.0,0.0,0.0,0.0,0.0,0.0,0.0,0.0,0.0,0.0,0.0,0.0,0.0,0.0,0.0,0.0,0.0,0.0,0.0,0.0,0.0,0.0,0.0,0.0,0.0,0.0,0.0,0.0,0.0,0.0,0.0,0.0,0.0,0.0,0.0,0.0,0.0,0.0,0.0,0.0,0.0,0.0,0.0,0.0,0.0,0.0,0.0,0.0,0.0,0.0,0.0,0.0,0.0,0.0,0.0,0.0,0.0,0.0,0.0,0.0,0.0,0.0,0.0,0.0,0.0,0.0,0.0,0.0,0.0,0.0,0.0,0.0,0.0,0.0,0.0,0.0,0.0,0.0,0.0,0.0,0.0,0.0,0.0,0.0,0.0,0.0,0.0,0.0,0.0,0.0,0.0,0.0,0.0,0.0,0.0,0.0,0.0,0.0,5.2972,5.6291,5.6983,5.6907,5.6165,5.6088,5.4587,5.1087,0.0,0.0,0.0,0.0,0.0,0.0,0.0,0.0,0.0,0.0,0.0,0.0,0.0,0.0,0.0,0.0,0.0,0.0,0.0,0.0,0.0,0.0,0.0,0.0,0.0,0.0,0.0,0.0,0.0,0.0,0.0,0.0,0.0,0.0,0.0,0.0,0.0,0.0,0.0,0.0,0.0,0.0,0.0,0.0,0.0,0.0,0.0,0.0,0.0,0.0,0.0,0.0,0.0,0.0,0.0,0.0,0.0,0.0,0.0,0.0,0.0,0.0,0.0,0.0,0.0,0.0,0.0,0.0,0.0,0.0,0.0,0.0,0.0,0.0,0.0,0.0,0.0,0.0,0.0,0.0,0.0,0.0,0.0,0.0,0.0,0.0,0.0,0.0,0.0,0.0,0.0,0.0,0.0,0.0,0.0,0.0,0.0,0.0,0.0,0.0,0.0,0.0,0.0,5.1915,5.3549,5.6011,5.5906,5.5472,5.5088,5.4626,5.3087,5.0164,4.9894,0.0,0.0,0.0,0.0,0.0,0.0,0.0,0.0,0.0,0.0,0.0,0.0,0.0,0.0,0.0,0.0,0.0,0.0,0.0,0.0,0.0,0.0,0.0,0.0,0.0,0.0,0.0,0.0,0.0,0.0,0.0,0.0,0.0,0.0,0.0,0.0,0.0,0.0,0.0,0.0,0.0,0.0,0.0,0.0,0.0,0.0,0.0,0.0,0.0,0.0,0.0,0.0,0.0,0.0,0.0,0.0,0.0,0.0,0.0,0.0,0.0,0.0,0.0,0.0,0.0,0.0,0.0,0.0,0.0,0.0,0.0,0.0,0.0,0.0,0.0,0.0,0.0,0.0,0.0,0.0,0.0,0.0,0.0,0.0,0.0,0.0,0.0,0.0,0.0,0.0,0.0,0.0,0.0,0.0,0.0,0.0,0.0,0.0,0.0,0.0,0.0,0.0,5.3425,5.428,5.5549,5.4972,5.4434,5.4203,5.3203,5.1702,4.9548,4.8202,0.0,0.0,0.0,0.0,0.0,0.0,0.0,0.0,0.0,0.0,0.0,0.0,0.0,0.0,0.0,0.0,0.0,0.0,0.0,0.0,0.0,0.0,0.0,0.0,0.0,0.0,0.0,0.0,0.0,0.0,0.0,0.0,0.0,0.0,0.0,0.0,0.0,0.0,0.0,0.0,0.0,0.0,0.0,0.0,0.0,0.0,0.0,0.0,0.0,0.0,0.0,0.0,0.0,0.0,0.0,0.0,0.0,0.0,0.0,0.0,0.0,0.0,0.0,0.0,0.0,0.0,0.0,0.0,0.0,0.0,0.0,0.0,0.0,0.0,0.0,0.0,0.0,0.0,0.0,0.0,0.0,0.0,0.0,0.0,0.0,0.0,0.0,0.0,0.0,0.0,0.0,0.0,0.0,0.0,0.0,0.0,0.0,0.0,0.0,0.0,0.0,0.0,5.414,5.5549,5.5703,5.4972,5.4164,5.3356,5.1818,5.0433,4.9471,4.7134,0.0,0.0,0.0,0.0,0.0,0.0,0.0,0.0,0.0,0.0,0.0,0.0,0.0,0.0,0.0,0.0,0.0,0.0,0.0,0.0,0.0,0.0,0.0,0.0,0.0,0.0,0.0,0.0,0.0,0.0,0.0,0.0,0.0,0.0,0.0,0.0,0.0,0.0,0.0,0.0,0.0,0.0,0.0,0.0,0.0,0.0,0.0,0.0,0.0,0.0,0.0,0.0,0.0,0.0,0.0,0.0,0.0,0.0,0.0,0.0,0.0,0.0,0.0,0.0,0.0,0.0,0.0,0.0,0.0,0.0,0.0,0.0,0.0,0.0,0.0,0.0,0.0,0.0,0.0,0.0,0.0,0.0,0.0,0.0,0.0,0.0,0.0,0.0,0.0,0.0,0.0,0.0,0.0,0.0,0.0,0.0,0.0,0.0,0.0,0.0,0.0,0.0,5.2954,5.4357,0.0,5.4203,5.3356,5.2462,5.1356,5.0087,4.8663,0.0,0.0,0.0,0.0,0.0,0.0,0.0,0.0,0.0,0.0,0.0,0.0,0.0,0.0,0.0,0.0,0.0,0.0,0.0,0.0,0.0,0.0,0.0,0.0,0.0,0.0,0.0,0.0,0.0,0.0,0.0,0.0,0.0,0.0,0.0,0.0,0.0,0.0,0.0,0.0,0.0,0.0,0.0,0.0,0.0,0.0,0.0,0.0,0.0,0.0,0.0,0.0,0.0,0.0,0.0,0.0,0.0,0.0,0.0,0.0,0.0,0.0,0.0,0.0,0.0,0.0,0.0,0.0,0.0,0.0,0.0,0.0,0.0,0.0,0.0,0.0,0.0,0.0,0.0,0.0,0.0,0.0,0.0,0.0,0.0,0.0,0.0,0.0,0.0,0.0,0.0,0.0,0.0,0.0,0.0,0.0,0.0,0.0,0.0,0.0,0.0,0.0,5.0635,5.2691,5.4126,0.0,5.3703,5.2856,5.1962,5.0433,4.8971,4.7778,0.0,0.0,0.0,0.0,0.0,0.0,0.0,0.0,0.0,0.0,0.0,0.0,0.0,0.0,0.0,0.0,0.0,0.0,0.0,0.0,0.0,0.0,0.0,0.0,0.0,0.0,0.0,0.0,0.0,0.0,0.0,0.0,0.0,0.0,0.0,0.0,0.0,0.0,0.0,0.0,0.0,0.0,0.0,0.0,0.0,0.0,0.0,0.0,0.0,0.0,0.0,0.0,0.0,0.0,0.0,0.0,0.0,0.0,0.0,0.0,0.0,0.0,0.0,0.0,0.0,0.0,0.0,0.0,0.0,0.0,0.0,0.0,0.0,0.0,0.0,0.0,0.0,0.0,0.0,0.0,0.0,0.0,0.0,0.0,0.0,0.0,0.0,0.0,0.0,0.0,0.0,0.0,0.0,0.0,0.0,0.0,0.0,0.0,0.0,0.0,0.0,0.0,5.1014,5.3735,5.5395,5.4587,5.3741,5.2856,5.1962,4.8846,4.6923,0.0,0.0,0.0,0.0,0.0,0.0,0.0,0.0,0.0,0.0,0.0,0.0,0.0,0.0,0.0,0.0,0.0,0.0,0.0,0.0,0.0,0.0,0.0,0.0,0.0,0.0,0.0,0.0,0.0,0.0,0.0,0.0,0.0,0.0,0.0,0.0,0.0,0.0,0.0,0.0,0.0,0.0,0.0,0.0,0.0,0.0,0.0,0.0,0.0,0.0,0.0,0.0,0.0,0.0,0.0,0.0,0.0,0.0,0.0,0.0,0.0,0.0,0.0,0.0,0.0,0.0,0.0,0.0,0.0,0.0,0.0,0.0,0.0,0.0,0.0,0.0,0.0,0.0,0.0,0.0,0.0,0.0,0.0,0.0,0.0,0.0,0.0,0.0,0.0,0.0,0.0,0.0,0.0,0.0,0.0,0.0,0.0,0.0,0.0,0.0,0.0,0.0,0.0,5.0797,5.3694,5.5395,5.4587,5.428,5.351,5.2038,5.1,4.9654,4.7855,0.0,0.0,0.0,0.0,0.0,0.0,0.0,0.0,0.0,0.0,0.0,0.0,0.0,0.0,0.0,0.0,0.0,0.0,0.0,0.0,0.0,0.0,0.0,0.0,0.0,0.0,0.0,0.0,0.0,0.0,0.0,0.0,0.0,0.0,0.0,0.0,0.0,0.0,0.0,0.0,0.0,0.0,0.0,0.0,0.0,0.0,0.0,0.0,0.0,0.0,0.0,0.0,0.0,0.0,0.0,0.0,0.0,0.0,0.0,0.0,0.0,0.0,0.0,0.0,0.0,0.0,0.0,0.0,0.0,0.0,0.0,0.0,0.0,0.0,0.0,0.0,0.0,0.0,0.0,0.0,0.0,0.0,0.0,0.0,0.0,0.0,0.0,0.0,0.0,0.0,0.0,0.0,0.0,0.0,0.0,0.0,0.0,0.0,0.0,0.0,0.0,0.0,5.0758,5.3648,5.5511,5.5011,5.4703,5.4087,5.3049,5.201,5.0471,4.824,0.0,0.0,0.0,0.0,0.0,0.0,0.0,0.0,0.0,0.0,0.0,0.0,0.0,0.0,0.0,0.0,0.0,0.0,0.0,0.0,0.0,0.0,0.0,0.0,0.0,0.0,0.0,0.0,0.0,0.0,0.0,0.0,0.0,0.0,0.0,0.0,0.0,0.0,0.0,0.0,0.0,0.0,0.0,0.0,0.0,0.0,0.0,0.0,0.0,0.0,0.0,0.0,0.0,0.0,0.0,0.0,0.0,0.0,0.0,0.0,0.0,0.0,0.0,0.0,0.0,0.0,0.0,0.0,0.0,0.0,0.0,0.0,0.0,0.0,0.0,0.0,0.0,0.0,0.0,0.0,0.0,0.0,0.0,0.0,0.0,0.0,0.0,0.0,0.0,0.0,0.0,0.0,0.0,0.0,0.0,0.0,0.0,0.0,0.0,0.0,0.0,0.0,5.0789,5.3676,5.5707,5.5707,5.5073,5.4631,5.4554,5.2435,5.0316,4.8505,0.0,0.0,0.0,0.0,0.0,0.0,0.0,0.0,0.0,0.0,0.0,0.0,0.0,0.0,0.0,0.0,0.0,0.0,0.0,0.0,0.0,0.0,0.0,0.0,0.0,0.0,0.0,0.0,0.0,0.0,0.0,0.0,0.0,0.0,0.0,0.0,0.0,0.0,0.0,0.0,0.0,0.0,0.0,0.0,0.0,0.0,0.0,0.0,0.0,0.0,0.0,0.0,0.0,0.0,0.0,0.0,0.0,0.0,0.0,0.0,5.0401,4.9362,0.0,0.0,0.0,0.0,0.0,0.0,0.0,0.0,0.0,0.0,0.0,0.0,0.0,0.0,0.0,0.0,0.0,0.0,0.0,0.0,0.0,0.0,0.0,0.0,0.0,0.0,0.0,0.0,0.0,0.0,0.0,0.0,0.0,0.0,0.0,0.0,0.0,0.0,0.0,0.0,5.0719,5.3777,5.5849,5.5849,5.5845,5.5553,5.4854,5.4316,5.3001,5.0598,4.966,0.0,0.0,0.0,0.0,0.0,0.0,0.0,0.0,0.0,0.0,0.0,0.0,0.0,0.0,0.0,0.0,0.0,0.0,0.0,0.0,0.0,0.0,0.0,0.0,0.0,0.0,0.0,0.0,0.0,0.0,0.0,0.0,0.0,0.0,0.0,0.0,0.0,0.0,0.0,0.0,0.0,0.0,0.0,0.0,0.0,0.0,0.0,0.0,0.0,0.0,0.0,0.0,0.0,0.0,0.0,0.0,0.0,0.0,0.0,5.23,5.1802,0.0,0.0,0.0,0.0,0.0,0.0,0.0,0.0,0.0,0.0,0.0,0.0,0.0,0.0,0.0,0.0,0.0,0.0,0.0,0.0,0.0,0.0,0.0,0.0,0.0,0.0,0.0,0.0,0.0,0.0,0.0,0.0,0.0,0.0,0.0,0.0,0.0,0.0,0.0,0.0,5.1411,5.4162,5.6025,5.6025,5.6146,5.6036,5.5574,5.5146,5.4139,5.2397,5.1502,0.0,0.0,0.0,0.0,0.0,0.0,0.0,0.0,0.0,0.0,0.0,0.0,0.0,0.0,0.0,0.0,0.0,0.0,0.0,0.0,0.0,0.0,0.0,0.0,0.0,0.0,0.0,0.0,0.0,0.0,0.0,0.0,0.0,0.0,0.0,0.0,0.0,0.0,0.0,0.0,0.0,0.0,0.0,0.0,0.0,0.0,0.0,0.0,0.0,0.0,0.0,0.0,0.0,5.6051,5.6418,5.6455,5.7116,5.7079,5.633,5.4616,5.4773,5.6104,5.4192,0.0,0.0,0.0,0.0,0.0,0.0,0.0,0.0,0.0,0.0,0.0,0.0,0.0,0.0,0.0,0.0,0.0,0.0,0.0,0.0,0.0,0.0,0.0,0.0,5.8109,5.8218,5.4703,0.0,0.0,0.0,0.0,0.0,0.0,0.0,0.0,0.0,0.0,0.0,5.2689,5.4947,5.6461,5.6461,5.6363,5.626,5.626,5.5758,5.5061,5.4169,5.3358,5.2533,0.0,0.0,0.0,0.0,0.0,0.0,0.0,0.0,0.0,0.0,0.0,0.0,0.0,0.0,0.0,0.0,0.0,0.0,0.0,0.0,0.0,0.0,0.0,0.0,0.0,0.0,0.0,0.0,0.0,0.0,0.0,0.0,4.8043,5.0082,0.0,0.0,0.0,0.0,0.0,0.0,0.0,0.0,0.0,0.0,0.0,0.0,0.0,5.603,5.7336,5.807,5.845,5.8561,5.9391,5.9758,5.9758,5.9869,5.9869,5.9758,5.9499,0.0,5.5301,5.6444,0.0,0.0,0.0,0.0,0.0,0.0,0.0,0.0,0.0,0.0,0.0,0.0,0.0,0.0,0.0,0.0,0.0,0.0,0.0,0.0,0.0,0.0,6.0397,6.0585,6.0777,6.0589,0.0,5.6886,5.4431,5.2642,5.2338,0.0,0.0,0.0,0.0,0.0,0.0,0.0,5.4619,5.6338,5.7509,5.7509,5.6933,5.6559,5.6559,5.7145,5.7145,5.6247,5.5388,5.4792,5.4549,5.2203,0.0,0.0,0.0,0.0,0.0,0.0,0.0,0.0,0.0,0.0,0.0,0.0,0.0,0.0,0.0,0.0,0.0,0.0,0.0,0.0,0.0,0.0,0.0,0.0,0.0,0.0,0.0,0.0,0.0,4.7678,5.0196,5.1335,5.2287,5.2223,0.0,0.0,0.0,0.0,0.0,0.0,0.0,0.0,0.0,5.7826,5.8689,5.9615,6.0713,6.0603,6.0786,6.1202,6.1117,6.1737,6.29,6.2433,6.2376,6.2624,6.2118,6.0746,5.884,5.8367,5.7649,5.6763,0.0,0.0,0.0,0.0,5.742,5.7083,5.8735,5.8665,5.7703,5.6896,0.0,0.0,0.0,0.0,0.0,0.0,0.0,5.7313,0.0,0.0,6.0315,6.0886,6.1087,6.1048,6.0798,5.9672,5.8041,0.0,5.5546,5.4765,5.207,0.0,0.0,0.0,0.0,5.5145,5.6512,5.7763,5.8544,5.8544,5.824,5.8047,5.8047,5.8398,5.8476,5.8086,5.7695,5.7418,5.7221,5.5272,5.3877,0.0,0.0,0.0,0.0,0.0,0.0,0.0,0.0,0.0,0.0,0.0,0.0,0.0,0.0,0.0,0.0,0.0,0.0,0.0,0.0,0.0,0.0,0.0,0.0,0.0,0.0,0.0,0.0,5.0489,5.243,5.3171,5.4619,5.4986,0.0,0.0,0.0,0.0,0.0,0.0,5.7746,5.8644,5.9918,6.1707,6.2395,6.3097,6.383,6.3262,6.3262,6.383,6.3224,6.381,6.5405,6.4502,6.4319,6.4652,6.3803,6.3086,6.2388,6.0454,5.9618,5.9482,5.8481,5.8064,5.8178,5.9866,5.988,5.9434,6.1413,6.1243,6.0012,5.9204,5.8204,5.7126,5.6088,0.0,0.0,0.0,0.0,5.8286,5.9619,5.9907,6.0068,6.0758,6.1,6.1128,6.1259,6.1396,6.0882,0.0,5.8431,5.7578,5.4531,0.0,0.0,0.0,0.0,5.6754,5.8277,5.9013,5.9398,5.9398,5.9203,5.9086,5.9086,5.9281,5.9398,5.9398,5.9398,5.9447,5.949,5.789,5.6636,5.5903,0.0,0.0,0.0,0.0,0.0,0.0,0.0,0.0,0.0,0.0,0.0,0.0,0.0,0.0,0.0,0.0,0.0,0.0,0.0,0.0,0.0,0.0,0.0,0.0,0.0,0.0,0.0,0.0,0.0,5.6479,5.7773,0.0,0.0,0.0,0.0,6.0179,6.06,6.1718,6.3936,6.4341,6.4764,6.5407,6.5726,6.6132,6.669,6.6652,6.6652,6.669,6.6652,6.6709,6.6766,6.5917,6.5502,6.5483,6.469,6.4313,6.4199,6.2911,6.214,6.1812,6.2613,6.268,6.2337,6.2926,6.3077,6.2911,6.232,6.2062,6.1831,6.0973,5.9588,5.8357,5.905,5.8704,0.0,0.0,6.0112,6.0685,6.1094,6.1058,6.1001,6.1227,6.1271,6.1277,6.1283,6.1396,6.1249,0.0,6.0273,5.9726,5.793,0.0,5.7656,5.7656,5.8263,5.9045,5.9985,6.0019,5.9977,5.9977,5.9232,5.8721,5.8721,5.9466,5.9977,5.9977,5.9977,6.0333,6.1162,5.9516,5.8576,5.8504,5.6152,0.0,0.0,0.0,0.0,0.0,0.0,0.0,0.0,0.0,0.0,0.0,0.0,0.0,0.0,0.0,0.0,0.0,0.0,0.0,0.0,0.0,0.0,0.0,0.0,0.0,0.0,0.0,0.0,5.8823,6.1039,0.0,6.0602,6.096,6.1599,6.2345,6.3446,6.4463,6.5238,6.6327,6.704,6.7239,6.783,6.8261,6.8465,6.7918,6.7918,6.8427,6.739,6.7619,6.8917,6.7511,6.7359,6.8151,6.6736,6.6124,6.6062,6.5095,6.4082,6.3079,6.2915,6.3291,6.3923,6.4078,6.4128,6.4012,6.3166,6.2512,6.197,6.1193,6.0519,6.0123,6.0544,6.0476,6.0298,6.0674,6.0956,6.1167,6.1259,6.1246,6.1214,6.1271,6.1359,6.1413,6.1413,6.1522,6.1513,6.1188,6.1166,6.0703,5.9023,5.9094,5.9193,5.8646,5.9166,5.9913,6.0814,6.0889,6.0855,6.0855,6.0538,6.0382,6.0382,6.0661,6.0855,6.0855,6.0855,6.0972,6.1283,6.07,6.011,5.956,5.8125,5.6042,0.0,0.0,0.0,0.0,0.0,0.0,0.0,0.0,0.0,0.0,0.0,0.0,0.0,0.0,0.0,0.0,0.0,0.0,0.0,0.0,0.0,0.0,0.0,0.0,0.0,5.8656,6.0848,6.1847,6.4368,6.5452,6.412,6.471,6.5255,6.5444,6.6263,6.6987,6.741,6.8278,6.9,6.9485,6.9531,6.9816,7.0286,6.9467,6.9315,6.9829,6.8762,6.8993,7.0324,6.8947,6.8829,6.9629,6.8167,6.7552,6.7513,6.6974,6.6189,6.5221,6.4126,6.4241,6.5051,6.5051,6.5051,6.491,6.4093,6.3317,6.2578,6.2081,6.1935,6.1958,6.2115,6.2151,6.2157,6.2245,6.219,6.2096,6.1907,6.182,6.1724,6.1491,6.1504,6.1571,6.1509,6.1577,6.1584,6.1474,6.1525,6.1278,6.0093,6.0285,6.036,5.9814,6.0055,6.0533,6.1122,6.1143,6.1143,6.1143,6.1143,6.1143,6.1143,6.0872,6.0833,6.1105,6.0872,6.0833,6.1105,6.0833,6.0554,6.0274,5.9225,5.7459,5.4907,0.0,0.0,0.0,0.0,0.0,0.0,0.0,0.0,0.0,0.0,0.0,0.0,0.0,0.0,0.0,0.0,0.0,0.0,0.0,0.0,0.0,0.0,0.0,5.9554,6.176,6.397,6.5633,6.7715,6.8711,6.7964,6.8597,6.9253,6.9794,6.9337,6.9597,7.0923,7.0508,7.0821,7.2206,7.0914,7.086,7.2245,7.1398,7.0975,7.0975,7.0937,7.0937,7.0937,7.0167,6.9783,6.9744,6.8859,6.8462,6.8436,6.8398,6.8411,6.8257,6.659,6.5974,6.5974,6.5948,6.5923,6.5779,6.5064,6.4373,6.3798,6.3803,6.3803,6.3803,6.3809,6.3809,6.3876,6.406,6.3978,6.3707,6.3154,6.2913,6.2655,6.1951,6.1758,6.1755,6.1596,6.1579,6.151,6.1345,6.1426,6.1467,6.1312,6.1283,6.1277,6.1277,6.1128,0.0,6.0988,6.0882,6.0781,6.0781,6.0781,6.0781,6.0781,6.0012,5.9896,6.0742,6.0012,5.9935,6.0781,5.9973,5.9935,6.0843,5.9483,5.8398,5.7658,0.0,0.0,0.0,0.0,0.0,0.0,0.0,0.0,0.0,0.0,0.0,0.0,0.0,0.0,0.0,0.0,0.0,0.0,0.0,0.0,0.0,6.195,6.3158,6.2307,6.4651,6.7098,6.8773,7.0355,7.1449,7.1871,7.2101,7.2284,7.2423,7.2299,7.2414,7.2769,7.2645,7.2745,7.3129,7.276,7.276,7.3129,7.2899,7.2783,7.2783,7.2129,7.2168,7.2783,7.1898,7.1514,7.1475,7.0591,6.9898,6.9296,6.8822,6.8601,6.8541,6.7961,6.7705,6.7654,6.7161,6.6273,6.5274,6.5093,6.4494,6.3815,6.3986,6.401,6.4021,6.4113,6.4163,6.4158,6.4127,6.406,6.3955,6.3657,6.3651,6.3692,6.3477,6.3442,6.3438,6.3377,6.3276,6.293,6.2168,6.2059,6.1931,6.1388,6.1186,6.1089,6.1089,6.0964,0.0,6.0828,6.0839,6.0781,6.0781,6.0781,6.0781,6.0781,6.0589,6.055,6.0781,6.0589,6.055,6.0781,6.055,6.0894,6.1882,6.0924,6.0681,0.0,0.0,0.0,0.0,0.0,0.0,0.0,0.0,0.0,0.0,0.0,0.0,0.0,0.0,0.0,0.0,0.0,0.0,0.0,0.0,0.0,0.0,6.5581,6.6825,6.6951,6.8173,6.9789,7.1857,7.2769,7.3437,7.3937,7.4014,7.386,7.3553,7.3514,7.3514,7.3514,7.3514,7.3654,7.4014,7.3668,7.3654,7.4014,7.3668,7.3514,7.35,7.2976,7.3014,7.3476,7.3061,7.2867,7.2828,7.2391,7.175,7.0986,7.0959,7.0507,6.9783,0.0,0.0,0.0,0.0,6.697,6.6215,6.5865,6.5433,6.5127,6.5245,6.5254,6.5298,6.5351,6.539,6.5351,6.5298,6.5251,6.5167,6.4691,6.4637,6.4626,6.4275,6.4197,6.4152,6.4124,6.3994,6.3631,6.2609,6.2409,0.0,6.1786,6.1277,6.1041,6.1427,6.1395,6.1204,6.0858,6.1127,6.1204,6.0819,6.0781,6.0781,6.0781,6.0473,0.0,0.0,0.0,6.0567,6.0991,6.1688,0.0,0.0,0.0,0.0,0.0,0.0,0.0,0.0,6.6857,6.8067,0.0,0.0,0.0,0.0,0.0,0.0,0.0,0.0,0.0,0.0,0.0,0.0,0.0,0.0,0.0,0.0,6.8715,7.0103,7.2203,7.1822,7.2168,7.4437,7.4784,7.4899,7.4976,7.5091,7.4822,7.413,7.4053,7.4053,7.4053,7.4053,0.0,0.0,0.0,7.4284,7.4976,7.4211,7.3801,7.3801,7.3727,7.3754,7.3844,7.3917,7.3956,7.3966,7.4102,7.3678,7.297,7.3737,7.3166,7.1653,6.9876,6.9137,6.8999,6.8292,6.7993,6.7802,6.706,0.0,0.0,6.6914,6.6914,6.6914,6.6914,6.6914,6.6914,6.6874,6.6874,6.6679,6.5896,6.5701,6.5507,6.4725,6.4569,6.4526,6.4409,6.4389,6.4084,6.3075,6.2891,6.2841,6.2654,6.1716,6.1251,6.2101,6.2255,6.1947,6.1166,6.1743,6.1935,6.1166,0.0,0.0,6.1108,6.041,6.0316,6.1087,6.0576,6.0716,6.1696,6.3253,6.4198,6.4504,6.6159,6.7919,6.9647,7.066,7.2031,7.3672,7.0491,7.1158,0.0,0.0,0.0,0.0,0.0,0.0,0.0,0.0,0.0,0.0,0.0,0.0,0.0,0.0,0.0,6.8943,7.057,7.2213,7.3962,7.4091,7.4168,7.463,7.5322,7.6015,7.6746,7.7361,7.7707,7.7553,7.7515,7.7515,7.7515,7.7515,7.7592,7.7746,7.6976,7.663,7.6784,7.6121,7.574,7.574,7.5207,0.0,7.5996,7.5308,7.5012,7.502,7.5057,7.4573,7.3808,7.4124,7.4168,7.3812,7.1788,7.067,7.0181,7.0025,6.9179,6.8122,6.7966,6.746,6.6914,6.6914,6.6914,6.6914,6.6914,6.6914,0.0,6.6692,6.6678,6.6586,6.6308,6.6311,6.6366,6.6209,6.617,6.6165,6.6112,6.6044,6.5689,6.4804,6.4603,6.4597,6.4558,6.3136,6.2238,6.2971,6.3089,6.3012,6.2858,6.2974,6.3012,6.282,6.2969,6.3062,6.3062,6.3014,6.3033,6.3228,6.3106,6.3417,6.4348,6.5355,6.6624,6.8167,6.9195,7.0672,7.2498,7.3398,7.4726,7.6445,7.5741,7.5898,0.0,0.0,0.0,0.0,0.0,0.0,0.0,0.0,0.0,0.0,0.0,6.6359,6.809,0.0,7.0514,7.3091,7.4207,7.5201,7.6546,7.6765,7.6584,7.6082,7.6399,7.6976,7.7823,7.8246,7.8477,7.8477,7.8477,7.8477,7.8477,7.8588,7.8657,7.8657,7.8394,7.8253,7.8253,7.7923,7.7757,7.7757,7.6972,7.6823,7.7212,7.6448,7.6092,7.6092,7.6197,7.5752,7.4939,7.4584,7.476,7.5117,7.3635,7.2576,7.1819,7.092,7.0111,6.9375,6.8945,6.8242,6.7539,6.7539,6.7265,6.6914,6.6914,6.7187,6.7539,6.7411,6.7406,6.7479,6.7799,6.7347,6.6859,6.7289,6.7406,6.7406,6.7406,6.7347,6.7049,6.6151,6.5644,6.5315,6.5225,6.4416,6.3877,6.4179,6.4221,6.4027,6.3601,6.4307,6.454,6.364,6.4023,6.417,6.3735,6.3748,6.4021,6.4558,6.4601,6.5211,6.6583,6.7442,6.875,7.0572,7.147,7.2806,7.4609,7.5469,7.6562,7.7851,7.8623,7.9015,0.0,0.0,0.0,0.0,0.0,0.0,0.0,0.0,6.6537,6.7745,6.9046,7.0616,7.2661,7.3202,7.4205,7.6983,7.7562,7.7962,7.8762,7.8871,7.863,7.7975,7.7896,7.8166,7.8822,7.9015,7.9131,7.9131,7.9131,7.9131,7.9131,7.9281,7.9375,7.9375,7.9429,7.9438,7.9438,7.9286,7.9221,7.9221,7.8591,7.8252,7.8219,7.7695,7.7375,7.7221,7.7379,7.7148,7.6562,7.5703,7.5781,7.6289,7.5273,7.4414,7.3594,7.1836,7.1094,7.082,6.9961,6.914,6.8437,6.8437,6.7969,6.7422,6.7422,6.789,6.8437,6.8437,6.8437,6.8594,6.9258,6.8437,6.7578,6.8281,6.8437,6.8437,6.8437,6.8437,6.8203,6.7305,6.6719,6.6248,6.5904,6.6014,6.5943,6.545,6.5498,6.5349,6.4648,6.5938,6.6367,6.4926,6.5461,6.565,6.4968,6.4895,6.5285,6.6134,6.6175,6.6935,6.8633,6.9453,7.0742,7.2461,7.3359,7.457,7.6133,7.7147,7.8005,7.8707,8.0211,8.0921,5.9358,6.0512,6.2255,6.4705,6.5528,6.7126,0.0,0.0,7.256,7.4926,7.5541,7.5774,7.6047,7.6739,7.74,7.7781,7.8481,7.9034,7.9135,7.9174,7.94,7.999,8.0068,8.0106,8.0184,8.0876,8.1342,8.1342,8.1342,8.1342,8.1342,8.1368,8.1376,8.1376,8.0668,8.0255,8.0255,7.9661,7.937,7.937,7.9475,7.9488,7.9488,7.9412,7.8983,7.8319,7.8359,7.8711,7.9219,7.8398,7.8125,7.8047,7.6406,7.5703,7.539,7.3633,7.2539,7.1719,7.0859,7.0039,6.9336,6.9297,6.9258,6.9219,6.9219,6.9258,6.9258,6.9258,6.9258,6.9297,6.9453,6.9336,6.9219,6.9258,6.9258,6.9258,6.9258,6.9297,6.9101,6.8203,6.8555,6.875,6.8007,6.8515,6.838,6.6513,6.6899,6.7372,6.7295,6.8073,6.8546,6.8352,6.8583,6.8783,6.8863,6.8864,6.8904,6.8944,6.8944,6.9374,7.039,7.125,7.2539,7.4297,7.5156,7.6094,7.707,7.8486,7.9193,7.9346,8.0857,8.1265,6.2666,6.4177,6.5786,6.8348,6.9914,7.1568,7.4553,7.5128,7.545,7.7039,7.7779,7.8239,7.8745,7.9523,8.0263,0.0,8.1586,8.2207,8.234,8.1922,8.1758,8.2209,8.1825,8.1425,8.1165,8.1367,8.1776,8.2419,8.2466,8.2661,8.3174,8.3312,8.3165,8.2658,8.2378,8.202,8.1513,8.1228,8.1081,8.1083,8.0663,8.0469,8.0429,7.9922,7.9531,7.9219,7.9219,7.9375,7.9687,7.9336,7.9219,7.914,7.8398,7.8125,7.7773,7.5078,7.3515,7.2695,7.2344,7.1328,7.0195,7.0156,6.9844,6.9492,6.9453,6.9765,7.0156,7.0156,7.0156,7.0273,7.082,7.0234,6.9726,7.0703,7.0547,7.0312,7.0781,7.0547,7.0078,6.9726,6.9531,6.9336,6.9023,6.9219,6.9178,6.8325,6.8513,6.8747,6.8708,6.9411,6.9957,6.9957,7.0019,7.0111,7.0195,7.0664,7.1172,7.164,7.168,7.207,7.293,7.332,7.4101,7.5312,7.608,7.6885,7.7744,7.9247,7.9994,7.9994,8.1044,8.1378,6.5269,6.6922,6.8502,7.1305,7.326,7.494,7.6499,7.7345,7.8067,7.8925,7.9622,8.024,8.0825,8.1644,8.2502,8.3399,8.4256,8.4878,8.5029,8.4296,8.3806,8.3945,8.3123,8.2474,8.224,8.2107,8.2513,8.3777,8.3867,8.4256,8.5159,8.5083,8.4765,8.414,8.4018,8.3672,8.3008,8.3008,8.289,8.2656,8.2031,8.1601,8.1328,8.0469,8.0195,8.039,8.0156,8.0195,8.039,8.0156,8.0078,8.0039,7.9805,7.9687,7.9414,7.6914,7.5312,7.4297,7.3828,7.2656,7.1406,7.1406,7.0859,7.0195,7.0117,7.0547,7.1055,7.1055,7.1211,7.1562,7.2187,7.164,7.1211,7.2422,7.2226,7.1953,7.2578,7.2226,7.164,7.1133,7.0781,7.039,6.9922,7.0195,7.0508,7.0547,7.0742,7.0625,6.9844,7.0742,7.1523,7.1758,7.1797,7.1797,7.1797,7.2344,7.3008,7.3633,7.3867,7.418,7.457,7.5231,7.5775,7.6165,7.7036,7.7794,7.8384,7.9695,8.0336,8.0327,8.0992,8.1311,6.6082,6.7606,6.9669,7.3146,7.4787,7.6422,7.9775,8.0723,8.1093,8.1992,8.2187,8.2226,8.2226,8.2968,8.3828,8.4687,8.5586,8.6132,8.6133,8.539,8.4844,8.4844,8.3919,8.3357,8.3514,8.3554,8.4257,8.5976,8.6093,8.6484,8.7343,8.6601,8.6133,8.6093,8.5312,8.4844,8.4804,8.4804,8.4414,8.3554,8.3515,8.3086,8.2226,8.1367,8.1406,8.2187,8.1328,8.1445,8.2148,8.1328,8.0976,8.0898,8.0039,7.9687,7.9687,7.957,7.8515,7.6836,7.5156,7.3984,7.3203,7.3203,7.2617,7.1914,7.1914,7.1953,7.1953,7.1953,7.2578,7.3242,7.3242,7.3867,7.4453,7.4492,7.4492,7.4492,7.4531,7.4492,7.3984,7.2305,7.2617,7.2656,7.0937,7.207,7.3164,7.3164,7.3906,7.3515,7.0976,7.2148,7.3555,7.4375,7.4492,7.4492,7.4492,7.4492,7.4531,7.457,7.5351,7.5469,7.4648,7.6763,7.7656,7.6872,7.83,7.9065,7.9065,7.9756,8.0129,8.0117,8.0786,8.1108,6.7515,6.9835,7.2517,7.595,7.7575,7.8938,8.1243,8.1795,8.1953,8.2226,8.2304,8.2304,8.2304,8.3008,8.4062,8.5547,8.6953,8.8047,8.8633,8.8984,8.8515,8.6836,8.6325,8.5893,8.5351,8.4167,8.3927,8.5234,8.5859,8.6797,8.8203,8.8554,8.8476,8.789,8.707,8.6367,8.5781,8.5195,8.4765,8.4453,8.3867,8.3125,8.2304,8.1992,8.2031,8.2265,8.1992,8.2031,8.2265,8.1992,8.1875,8.1836,8.1523,8.1445,8.1367,8.0781,8.0195,7.9414,7.7109,7.539,7.414,7.414,7.3945,7.3711,7.3711,7.3711,7.3711,7.3711,7.3945,7.4297,7.4883,7.5234,7.5625,7.6172,7.5898,7.5469,7.5469,7.5,7.4414,7.3828,7.3945,7.3984,7.3398,7.3789,7.414,7.414,7.4414,7.4297,7.3398,7.3789,7.4492,7.5351,7.5469,7.5937,7.7109,7.7187,7.7341,7.7779,7.8049,7.8026,7.7594,7.8324,7.8644,7.8371,7.9299,7.9745,7.9784,8.0448,8.1056,8.1543,8.1231,8.14,6.977,7.2015,7.4471,7.7866,7.9213,8.0156,8.1914,8.207,8.1836,8.1836,8.1601,8.1484,8.1797,8.2539,8.3906,8.6289,8.8086,8.957,9.0742,9.1406,9.1172,8.9531,8.8789,8.8164,8.7617,8.616,8.5647,8.664,8.7539,8.875,9.0469,9.0508,9.0351,9.0117,8.8984,8.8125,8.7578,8.6679,8.5976,8.5351,8.4492,8.3789,8.3203,8.289,8.2773,8.2734,8.2422,8.2304,8.2304,8.2304,8.2304,8.2304,8.2304,8.2304,8.2226,8.1679,8.1289,8.0703,7.8789,7.6953,7.5547,7.5547,7.5117,7.4609,7.4609,7.4609,7.4609,7.4609,7.4805,7.5273,7.6133,7.6601,7.7031,7.789,7.7656,7.7265,7.7265,7.6836,7.6328,7.6055,7.5742,7.5547,7.5547,7.5781,7.5976,7.5976,7.625,7.6211,7.5625,7.5547,7.5976,7.7148,7.7265,7.7694,7.8741,7.8817,7.895,7.9276,7.9578,7.9571,7.9104,7.9645,7.9795,7.9445,8.0105,8.0473,8.0473,8.0906,8.1516,8.2285,8.1785,8.1977,7.2576,7.3984,7.5547,7.8867,7.9687,8.0156,8.1836,8.1562,8.0937,8.0898,8.0195,7.9883,8.0703,8.164,8.3437,8.6914,8.8945,9.0703,9.2461,9.2812,9.2812,0.0,0.0,0.0,0.0,0.0,0.0,9.0,9.0781,9.1953,9.3672,9.2226,9.1758,9.2578,9.0937,9.0078,9.0078,8.9219,8.7929,8.625,8.5429,8.5,8.4883,8.4023,8.3672,8.3633,8.2734,8.2383,8.2344,8.2304,8.2265,8.2265,8.2265,8.2265,8.2265,8.2265,8.1757,8.0937,8.0117,7.8711,7.7344,7.7344,7.6172,7.4805,7.4805,7.4765,7.4726,7.4805,7.539,7.625,7.7148,7.8008,7.8828,7.9609,7.9765,7.9765,7.9726,7.9687,7.9453,7.8711,7.789,7.7305,7.7304,7.8007,7.8554,7.8515,7.9179,7.9101,7.7539,7.7304,7.7929,7.957,7.9687,7.9638,7.953,7.9478,7.9388,7.9213,7.9983,8.0092,7.9259,8.0599,8.1035,8.0237,8.0849,8.117,8.1246,8.1246,8.1631,8.2439,8.2401,8.2824,7.2929,7.4883,7.7031,7.918,7.9687,8.0,8.1094,8.0664,7.9844,7.9258,7.8945,7.8867,7.9101,8.0859,8.3437,8.6914,8.9453,0.0,9.4219,9.5625,0.0,9.3789,0.0,9.3125,9.1172,9.1367,0.0,9.1015,9.0586,9.082,9.1914,9.2148,9.2383,9.2578,9.1523,9.0976,9.0976,9.0117,8.8828,8.7187,8.6953,8.6172,8.4883,8.4687,8.457,8.4531,8.3633,8.3281,8.3203,8.2398,8.2065,8.2059,8.1899,8.1861,8.1873,8.2003,8.1948,8.1714,8.148,8.0377,7.9062,7.9062,7.8359,7.75,7.75,7.7031,7.668,7.7305,7.7656,7.8164,7.9648,8.0195,8.039,8.0625,8.0664,8.0508,7.9844,7.9687,7.9648,7.9414,7.9219,7.9021,7.8869,7.9017,7.9111,7.8982,7.9121,7.9197,7.9061,7.893,7.9251,8.0344,7.973,7.9766,8.1013,8.05,8.0341,8.0793,8.1015,8.0992,8.0613,8.0979,8.1359,8.1745,8.1909,8.2324,8.2939,8.2939,8.3401,8.4209,8.3555,8.3747,7.4219,7.6055,7.8086,7.9375,7.9687,7.9726,7.9883,7.9219,7.8242,7.7031,7.7109,7.7461,7.7851,7.9687,8.2422,0.0,0.0,0.0,9.4765,9.664,9.7187,0.0,9.5703,0.0,9.3711,9.3672,9.3398,9.25,9.1992,9.1914,9.2422,9.289,9.3359,9.3711,9.289,9.2265,9.1875,9.1015,8.9922,8.8594,8.8203,8.7459,8.6428,8.5647,8.5244,8.509,8.4232,8.388,8.3834,8.322,8.2758,8.244,8.2302,8.203,8.1695,8.1837,8.1873,8.1873,8.1873,8.1294,8.0527,8.0133,7.9431,7.8689,7.8299,7.8104,7.8065,7.8143,7.8455,7.9079,8.0407,8.0722,8.0839,8.123,8.1308,8.1152,8.0683,8.0566,8.0449,8.0094,8.0328,8.0314,7.9416,7.9912,8.0234,7.9742,7.9999,8.0312,8.0552,8.0159,8.0185,8.1048,8.061,8.059,8.1504,8.1136,8.0948,8.1246,8.1271,8.1214,8.1108,8.1439,8.1823,8.2285,8.267,8.3093,8.3593,8.3593,8.4055,8.4901,8.4401,8.4632,7.5976,7.7344,7.8672,7.9492,7.9609,7.9336,7.8476,7.7538,7.6365,7.4839,0.0,7.5894,7.6791,7.8433,8.105,8.5385,0.0,9.105,9.4802,9.6561,9.7538,9.7695,9.707,9.6601,9.6523,9.582,9.5,9.414,9.4179,9.4101,9.375,9.3945,9.4414,9.5195,9.4453,9.3711,9.2969,9.207,9.1171,9.0272,8.9413,8.8848,8.8487,8.6961,8.611,8.5797,8.4932,8.4482,8.4389,8.4246,8.3779,8.3143,8.2967,8.2444,8.1753,8.1709,8.164,8.164,8.164,8.164,8.1531,8.0808,7.9999,7.9135,7.8365,7.8591,7.898,7.8326,7.8676,7.9485,8.0349,8.0583,8.0746,8.1524,8.1688,8.1688,8.1688,8.1688,8.1485,8.0707,8.1174,8.1205,7.9687,8.0659,8.1398,8.0617,8.1122,8.1636,8.1636,8.0992,8.0815,8.1562,8.1653,8.1543,8.1371,8.1347,8.1298,8.1108,8.1093,8.1131,8.1246,8.1939,8.2401,8.2631,8.3401,8.3824,8.3939,8.3939,8.4324,8.5055,8.5055,8.544,7.7617,7.8281,7.8672,7.9492,7.9219,7.8436,7.7391,7.5933,0.0,0.0,7.4221,7.4611,7.5462,7.7617,8.0662,8.4942,8.7209,9.0189,9.5247,9.6195,9.6724,0.0,9.7578,9.7226,9.6562,9.6367,0.0,9.5039,9.5625,9.5117,9.2929,9.4179,9.5039,9.5195,9.5039,9.4883,9.4765,9.3867,9.2884,9.1815,9.0995,9.0071,8.9115,8.8842,8.832,8.7586,8.6722,0.0,8.5453,8.4379,8.398,8.3896,8.2845,8.2343,8.2154,8.1627,8.1447,8.1447,8.1447,8.1447,8.1452,8.1467,8.0863,8.0155,7.9999,7.9571,7.9213,7.9804,8.0077,8.0388,8.1252,8.1485,8.1524,8.1641,8.1688,8.1688,8.1688,8.1688,8.1641,8.1485,8.1602,8.1545,8.1092,8.1254,8.1329,8.1035,8.1109,8.1186,8.1186,8.1206,8.1292,8.1447,8.1285,8.1196,8.1161,8.1161,8.1131,8.1093,8.1093,8.14,8.2054,8.2247,8.2978,8.4439,8.4593,8.5016,8.567,8.567,8.5747,8.5901,8.5901,8.5978,7.8749,7.9369,7.9627,7.9549,7.8861,7.7684,7.5835,0.0,0.0,0.0,7.3073,7.4131,7.4552,7.7088,8.0092,8.3058,8.5323,8.8437,9.3237,9.4303,9.5264,9.7119,9.7451,9.7396,9.7006,9.7066,9.6716,9.5758,9.6498,9.5885,9.3398,9.4492,9.5195,9.5195,9.5625,9.5817,9.5678,9.4819,9.3799,9.2717,9.186,9.0897,8.9804,8.8861,8.8201,8.7694,8.6791,8.627,8.5918,8.5293,8.4866,8.4443,8.3402,8.2708,8.2201,8.1494,8.1217,8.1217,8.1217,8.1217,8.1244,8.1374,8.1112,8.0686,8.0222,8.0094,8.0132,8.0105,8.0415,8.088,8.1267,8.1395,8.1395,8.1395,8.1395,8.1395,8.1395,8.1395,8.1395,8.1395,8.1395,8.1335,8.1258,8.1217,8.12,8.1124,8.1093,8.1093,8.1093,8.1181,8.1217,8.1217,8.1176,8.1093,8.1093,8.1093,8.1093,8.1093,8.1093,8.1477,8.2285,8.2747,8.3593,8.4863,8.5324,8.5709,8.6094,8.6094,8.6094,8.6094,8.6094,8.6094,7.9311,8.0104,8.0432,7.9539,7.8486,7.6964,7.4507,7.3177,0.0,7.1115,7.2513,7.3989,7.4377,7.6794,7.9328,0.0,8.3388,8.6399,9.0917,9.2288,9.3823,0.0,9.7089,0.0,9.7327,9.7451,0.0,9.6357,9.6742,9.6314,9.4667,9.5021,9.5374,9.5569,9.6233,9.652,9.6268,9.5449,9.4464,9.3376,9.2521,9.1517,9.0439,8.9072,8.8243,8.7902,8.7017,8.6566,8.6415,8.6203,8.5758,8.5144,8.4241,8.3362,8.2477,8.167,8.1246,8.1093,8.1093,8.1093,8.1093,8.1093,8.1093,8.0977,8.0285,8.0554,8.0977,8.0285,8.0554,8.1093,8.1093,8.1093,8.1093,8.1093,8.1093,8.1093,8.1093,8.1093,8.1093,8.1093,8.1093,8.1093,8.1093,8.1093,8.1093,8.1093,8.1246,8.1285,8.1131,8.14,8.1554,8.1362,8.1208,8.1093,8.1093,8.1093,8.117,8.1362,8.1362,8.1823,8.2824,8.3516,8.4286,8.5132,8.5978,8.6363,8.6363,8.6363,8.6363,8.6363,8.6209,8.6094,7.8929,7.9771,8.0224,7.9336,7.792,7.6226,7.4267,0.0,7.1683,7.2932,7.338,7.3996,7.5537,7.6731,7.8286,8.0752,0.0,8.4445,8.9694,9.1204,9.2747,9.5476,0.0,0.0,9.7048,9.7065,9.7027,9.6931,9.6261,9.6114,9.6685,9.6053,9.6014,9.6801,9.6918,9.6949,9.6931,9.6066,9.5087,9.4008,9.3142,9.2176,9.1125,9.0954,9.0437,8.9633,8.8825,8.8128,0.0,8.6485,8.62,8.6249,8.5198,8.4247,8.3362,8.2516,8.1747,8.1093,8.1093,8.1093,8.1093,8.1093,8.1093,8.1093,8.1016,8.1054,8.1093,8.1016,8.1054,8.1093,8.1093,8.1093,8.1093,8.1093,8.1093,8.1093,8.1093,8.1093,8.1093,8.1093,8.1093,8.1093,8.1093,8.1093,8.1093,8.1093,8.1708,8.1939,8.1208,8.2439,8.3054,8.2285,8.1554,8.1093,8.1093,8.1093,8.14,8.2131,8.217,8.2939,8.4593,8.4747,8.517,8.5978,8.6824,8.7286,8.7286,8.7286,8.7286,8.7248,8.6478,8.6094,7.9478,8.0413,8.0689,7.9253,7.7578,7.5782,7.4037,0.0,7.1994,7.258,7.3514,7.4591,7.5784,7.7092,7.8515,8.0054,8.1016,8.2848,8.6538,8.7325,8.9122,9.3302,9.4201,9.5061,0.0,9.6914,9.6944,9.6769,9.6317,9.6227,9.6551,9.6,9.5874,9.6224,9.674,9.6934,9.6757,9.6407,9.5454,9.3869,9.3522,9.2575,9.1171,9.0671,9.0248,8.9863,8.9056,8.8232,0.0,8.7622,8.7115,8.6215,8.5774,8.5093,8.4209,8.2824,8.2093,8.1747,8.1285,8.1093,8.1093,8.1093,8.1093,8.1093,8.1093,8.1093,8.1093,8.1093,8.1093,8.1093,8.1093,8.1093,8.1093,8.1093,8.1093,8.1093,8.1093,8.1093,8.1093,8.1093,8.1093,8.1093,8.1093,8.1093,8.1093,8.1093,8.1785,8.217,8.1862,8.2862,8.3478,8.3131,8.2324,8.2016,8.2554,8.2131,8.217,8.3016,8.3093,8.3632,8.4863,8.4901,8.5286,8.6094,8.6978,8.7401,8.7401,8.794,8.8171,8.8171,8.7286,8.6863,7.899,8.0019,8.0267,7.903,7.7136,7.5245,7.3822,7.2822,7.2283,7.2514,7.3707,7.5053,7.6169,7.7553,7.8784,7.9669,8.0516,8.19,8.4209,8.4939,8.6786,9.0902,0.0,9.2949,9.5501,9.6385,9.6695,9.6521,9.6369,9.6172,9.5942,9.5666,9.5619,9.5852,9.6485,9.6682,9.6491,9.6491,9.5577,9.371,9.371,9.2672,9.0787,9.0171,8.9787,8.9517,8.8671,8.8094,0.0,8.7902,8.7363,8.6478,8.6209,8.544,8.4401,8.3439,8.2747,8.2208,8.1631,8.1439,8.1439,8.1439,8.1439,8.1516,8.1747,8.1477,8.1093,8.1093,8.1093,8.1093,8.1093,8.1093,8.1093,8.1093,8.1093,8.1093,8.1093,8.1093,8.1093,8.1093,8.1093,8.1093,8.1093,8.1093,8.117,8.14,8.217,8.267,8.267,8.3632,8.4247,8.4016,8.3439,8.3208,8.3555,8.3016,8.3054,8.3939,8.3978,8.4362,8.5209,8.5247,8.5517,8.6094,8.7209,8.7786,8.7786,8.8632,8.9056,8.9017,8.8171,8.7632,7.6876,7.7915,7.853,7.8492,7.6592,7.4514,7.3707,7.2822,7.2437,7.3322,7.413,7.5245,7.6976,7.7938,7.8784,7.9669,8.0516,8.167,8.3362,8.5055,8.6748,0.0,8.944,9.0941,9.3498,9.5306,9.6306,9.6288,9.6288,9.5903,9.5057,9.4998,9.5383,9.6268,9.6306,9.6288,9.6288,9.6288,9.5441,9.371,9.371,9.2364,8.9902,8.9902,8.9479,8.8671,8.7786,8.7902,0.0,8.6824,8.6632,8.7286,8.644,8.5093,8.3708,8.4555,8.3785,8.2285,8.2285,8.2285,8.2285,8.2285,8.2285,8.2439,8.3324,8.2401,8.1093,8.1093,8.1093,8.1093,8.1093,8.1093,8.1093,8.1093,8.1093,8.1093,8.1093,8.1093,8.1093,8.1093,8.1093,8.1093,8.1093,8.1093,8.1362,8.217,8.3016,8.3593,8.3593,8.5055,8.5786,8.4978,8.4901,8.4516,8.367,8.3593,8.3939,8.4824,8.4901,8.5247,8.6055,8.6094,8.6094,8.6094,8.7786,8.8671,8.8671,8.9479,8.9902,8.9863,8.9056,8.8209,7.3668,7.4822,7.5784,7.5207,7.4014,7.3091,7.3437,7.3283,7.3476,7.4938,7.5899,7.7015,7.8707,7.9208,7.9862,8.1285,8.1747,0.0,8.3439,8.4555,8.6132,8.844,9.0941,9.3056,9.4441,9.5095,9.5672,9.6249,9.6288,9.5903,9.5057,9.498,9.4826,9.4518,9.4518,9.4518,9.4518,9.4518,9.398,9.2864,9.2864,9.1825,8.9902,8.9902,8.9479,8.8671,8.8402,8.8094,8.7825,8.7863,8.7325,8.6555,8.6863,8.5978,8.4516,8.4786,8.417,8.317,8.317,8.317,8.317,8.317,8.317,8.3247,8.3516,8.2824,8.1823,8.1246,8.1093,8.1093,8.1093,8.1093,8.1093,8.1093,8.1093,8.1093,8.1093,8.1093,8.1093,8.1093,8.1093,8.1093,8.1093,8.1093,8.1362,8.217,8.3016,8.3824,8.4401,8.544,8.6017,8.5747,8.5709,8.5593,8.5324,8.4786,8.4824,8.567,8.5709,8.5824,8.6094,8.6671,8.6978,8.6978,8.8671,8.9517,8.9517,9.0364,9.0479,8.9902,8.9633,8.9094,7.1552,7.2476,7.3322,7.3476,7.2822,7.2437,7.3322,7.3745,7.4245,7.5284,7.6476,7.7707,7.9054,7.9592,8.0246,8.1631,8.1862,8.2131,8.2978,8.4132,8.5709,8.794,9.0902,9.2826,9.3056,9.4249,9.5211,9.5788,9.5826,9.5441,9.4557,9.421,9.3672,9.2787,9.3364,9.371,9.371,9.371,9.3287,9.2479,9.2479,9.1595,8.9902,8.9594,8.8979,8.8171,8.7863,8.7594,0.0,8.7632,8.7286,8.6594,8.6824,8.6094,8.4939,8.5247,8.4824,8.4093,8.4093,8.4093,8.4093,8.4093,8.4286,8.4478,8.417,8.3478,8.267,8.217,8.2054,8.2054,8.2054,8.1785,8.1631,8.1977,8.1554,8.117,8.1477,8.1323,8.1093,8.1093,8.1093,8.1208,8.1516,8.1554,8.1939,8.3093,8.3747,8.4401,8.5247,8.5786,8.6094,8.6094,8.6094,8.6094,8.6094,8.5632,8.5709,8.6555,8.6594,8.6748,8.7055,8.7594,8.7902,8.7902,8.921,8.9902,8.9902,9.0787,9.0941,9.0402,9.0056,8.9633,0.0,7.0821,7.1283,7.2899,7.2745,7.2437,7.336,7.4207,0.0,7.4938,7.6322,7.7707,7.8515,7.9361,8.0169,8.1054,8.1208,8.1477,8.2285,8.3939,8.5709,8.7478,8.9748,9.0902,9.0171,9.3018,9.4903,9.498,9.498,9.4595,9.3749,9.2941,9.2095,9.1248,9.271,9.3518,9.3518,9.3518,9.3133,9.2402,9.2402,9.1518,8.9787,8.9094,8.8248,0.0,8.6594,8.6671,8.7248,8.6517,8.6632,8.7209,8.644,8.5632,8.5016,8.5786,8.5593,8.4901,8.4978,8.4978,8.4978,8.4978,8.5478,8.5978,8.5209,8.4362,8.367,8.3593,8.3593,8.3593,8.3593,8.2978,8.2593,8.3401,8.2401,8.1477,8.2131,8.1708,8.117,8.1093,8.1093,8.1323,8.2093,8.2247,8.2862,8.4555,8.4863,8.5209,8.6094,8.6132,8.617,8.6286,8.617,8.6132,8.6209,8.6132,8.644,8.7248,8.7363,8.7748,8.8556,8.8709,8.8786,8.8786,8.9594,8.9979,8.9979,9.0825,9.121,9.1171,9.0364,8.9979,6.8898,0.0,7.1014,7.1398,7.186,7.2591,0.0,7.5091,7.6053,7.7323,7.8477,7.9477,8.0323,8.0669,8.1054,8.1862,8.2016,8.2324,8.317,8.5324,8.7671,9.0017,9.0825,9.1364,9.1825,9.3172,9.4287,9.4941,9.498,9.4595,9.3749,9.2941,9.2095,9.1248,9.1595,9.1787,9.1787,9.1787,9.171,9.1518,9.1518,9.0633,8.8979,8.944,8.844,8.6478,8.7594,8.744,8.644,8.6901,8.6824,8.6401,8.617,8.5632,8.5016,8.5786,8.5593,8.4978,8.5593,8.5824,8.5824,8.5824,8.594,8.6055,8.5901,8.5247,8.4478,8.3785,8.3593,8.3593,8.3593,8.3439,8.3362,8.3555,8.3285,8.2862,8.2401,8.2131,8.1823,8.1208,8.1093,8.117,8.1362,8.19,8.267,8.3747,8.4478,8.544,8.6901,8.6517,8.6594,8.794,8.6901,8.6363,8.7055,8.6478,8.6209,8.6401,8.7017,8.7478,8.7709,8.894,8.9633,8.9633,9.0479,9.0902,9.0902,9.1095,9.121,9.121,9.0979,9.0902,6.9937,7.1091,7.2168,7.2552,7.3591,7.4976,7.6669,7.6823,7.6938,0.0,0.0,7.9939,8.0439,8.0823,8.1246,8.167,8.2054,8.3016,8.5055,8.6863,8.8632,9.0402,9.0979,9.1248,9.1287,9.2402,9.3364,9.3826,9.3826,9.3633,9.3172,9.2364,9.1672,9.121,9.121,9.121,9.121,9.121,9.121,9.121,9.121,9.071,8.9863,8.9902,8.9171,8.7902,8.844,8.8171,8.7286,8.7363,8.7132,8.6671,8.6247,8.5824,8.5517,8.594,8.5824,8.5517,8.594,8.6094,8.6094,8.6094,8.6094,8.6094,8.6094,8.5786,8.5363,8.4863,8.4747,8.4747,8.4747,8.4478,8.4286,8.467,8.417,8.3593,8.3516,8.317,8.2631,8.1823,8.1977,8.2131,8.1708,8.267,8.3632,8.4132,8.4901,8.5786,8.6709,8.6401,8.6478,8.7401,8.6671,8.6286,8.6748,8.6748,8.6863,8.7286,8.7748,8.8325,8.9094,9.0017,9.0517,9.0517,9.0979,9.121,9.121,9.121,9.121,9.121,9.1595,9.1787,7.1975,7.3591,7.4861,7.4899,7.6399,7.8169,7.9323,0.0,0.0,0.0,0.0,0.0,8.0015,8.0708,0.0,0.0,8.217,8.3747,8.6786,8.7825,8.8632,8.9594,9.0479,9.071,8.9979,9.1479,9.2479,9.2479,9.2479,9.2479,9.2479,9.1672,9.121,9.121,9.121,9.121,9.121,9.121,9.121,9.121,9.121,9.1133,9.0979,9.0364,8.9979,8.971,8.9286,0.0,8.8632,8.7902,8.7517,8.7325,8.644,8.6094,8.6094,8.6094,8.6094,8.6094,8.5978,8.6017,8.6094,8.5978,8.6017,8.6094,8.6094,8.6094,8.6094,8.6094,8.6094,8.6094,8.6094,8.5593,8.5247,8.594,8.5016,8.4132,8.4786,8.4324,8.3516,8.267,8.3093,8.3362,8.2631,8.3824,8.4901,8.4901,8.5593,8.617,8.6286,8.6286,8.6401,8.6671,8.6555,8.6555,8.6671,8.7248,8.7979,8.8825,8.8863,8.9594,9.1133,9.121,9.121,9.121,9.121,9.121,9.121,9.121,9.1287,9.1441,9.2172,9.2556,7.3053,7.7053,8.0131,7.6669,7.8169,8.0208,7.8977,0.0,0.0,0.0,0.0,0.0,0.0,8.1554,8.2362,0.0,8.3939,8.4939,8.6132,8.6401,8.7094,8.8671,8.9594,9.0056,8.9902,9.1479,9.2479,9.2479,9.2479,9.2479,9.2479,9.1672,9.121,9.121,9.121,9.121,9.121,9.121,9.121,9.121,9.121,9.0825,9.0133,9.0748,9.0248,8.894,0.0,9.0017,8.8671,8.8556,8.8055,8.7325,8.644,8.6094,8.6094,8.6094,8.6094,8.6017,8.5324,8.5517,8.5978,8.5324,8.5555,8.6094,8.6094,8.6094,8.6094,8.6094,8.6094,8.6094,8.6094,8.6017,8.594,8.6055,8.5901,8.5555,8.5016,8.4786,8.4439,8.3555,8.3516,8.3555,8.3401,8.4247,8.4901,8.4901,8.5593,8.6363,8.7094,8.7209,8.7748,8.9171,8.8709,8.8594,8.9248,8.8825,8.8863,8.9671,8.971,9.0171,9.1171,9.121,9.121,9.121,9.121,9.121,9.121,9.121,9.1595,9.2287,9.2441,9.2864,7.3783,7.7476,8.0592,7.9131,8.1631,8.4401,8.4093,8.2901,0.0,0.0,0.0,0.0,0.0,8.1747,8.2747,8.4093,8.4632,8.5363,8.6632,8.6786,8.7094,8.7902,8.9133,8.9748,8.9286,9.0787,9.1787,9.1787,9.1787,9.1595,9.1133,9.1171,9.0979,9.0517,9.0941,9.121,9.121,9.121,9.121,9.121,9.121,9.0979,9.0633,9.1018,9.0787,9.0094,0.0,9.0748,9.0017,8.9556,8.8863,8.8055,8.7671,8.694,8.6094,8.6094,8.6094,8.6055,8.567,8.5786,8.6055,8.567,8.5786,8.6094,8.6094,8.6094,8.6094,8.6094,8.6094,8.6094,8.6094,8.6094,8.6094,8.6094,8.6094,8.6017,8.5632,8.5555,8.5286,8.4478,8.4632,8.467,8.3747,8.467,8.5401,8.4978,8.5593,8.6247,8.6632,8.7094,8.7709,8.8479,8.8632,8.8863,8.921,8.9325,8.9517,8.9902,9.0364,9.0979,9.1864,9.1441,9.1441,9.1902,9.1441,9.121,9.121,9.1672,9.2095,9.2518,9.3441,9.4057,7.4322,7.7361,8.0323,8.117,0.0,8.6824,8.8094,8.5901,0.0,0.0,0.0,0.0,0.0,8.2208,8.3362,8.467,8.5247,8.594,8.7209,8.7401,8.7401,8.7401,8.8709,8.9363,8.8748,9.0017,9.0979,9.1171,9.1018,9.0594,8.9923,9.0517,9.0594,8.994,9.0748,9.121,9.121,9.121,9.121,9.121,9.121,9.121,9.121,9.121,9.121,9.121,9.121,9.121,9.1133,9.0287,8.9556,8.894,8.8556,8.744,8.6094,8.6094,8.6094,8.6055,8.5901,8.594,8.6055,8.5901,8.594,8.6094,8.6094,8.6094,8.6094,8.6094,8.6094,8.6094,8.6094,8.6094,8.6094,8.6094,8.6094,8.6094,8.6094,8.6094,8.594,8.5286,8.567,8.5709,8.4401,8.5247,8.5901,8.5286,8.5709,8.6094,8.6094,8.6863,8.7401,8.7401,8.8363,8.9056,8.9248,8.9671,8.9979,9.021,9.0825,9.1518,9.2172,9.1556,9.1518,9.2172,9.1556,9.121,9.121,9.2056,9.2595,9.2826,9.4287,9.5095,7.4476,7.7784,8.1208,8.2016,8.3054,8.4516,8.694,8.5478,0.0,8.5593,0.0,0.0,0.0,8.3593,8.4747,8.4901,8.6209,8.7248,8.7363,8.7401,8.7401,8.7401,8.8209,8.8748,8.8709,8.9479,9.0325,9.1133,9.0441,8.9979,8.9902,8.9979,8.9979,8.9902,9.0748,9.121,9.121,9.121,9.121,9.121,9.121,9.121,9.121,9.121,9.121,9.121,9.121,9.121,9.1133,9.0287,8.9863,8.9671,8.8094,8.6901,8.6094,8.6094,8.6094,8.5978,8.5247,8.5478,8.5978,8.5247,8.5478,8.6094,8.6094,8.6094,8.6094,8.6094,8.6094,8.6094,8.6094,8.6094,8.6094,8.6094,8.6094,8.6094,8.6094,8.6094,8.6094,8.6017,8.6055,8.6055,8.594,8.6017,8.6094,8.6017,8.6055,8.6094,8.6094,8.6863,8.7401,8.7401,8.8863,9.0133,9.0941,9.0325,9.0248,9.1056,9.1171,9.1248,9.1287,9.1248,9.1248,9.1287,9.1248,9.121,9.121,9.2056,9.2864,9.3633,9.4557,9.5441,7.4476,7.7438,8.0477,8.1323,8.2593,0.0,0.0,8.7401,8.6286,8.7478,8.6363,0.0,0.0,0.0,8.4286,8.4824,8.5863,8.6786,8.7325,8.694,8.6786,8.7325,8.7671,8.7902,8.7902,8.9094,8.9825,8.9671,8.9787,8.944,8.8402,8.8863,8.9133,8.9133,8.9479,9.0133,9.121,9.0671,9.0671,9.121,9.121,9.121,9.121,9.121,9.121,9.121,9.121,9.121,9.1171,9.0864,9.0402,8.9748,8.8055,8.7517,8.7594,8.6517,8.6094,8.6055,8.5747,8.5863,8.6055,8.5747,8.5863,8.6094,8.6094,8.6094,8.6094,8.6094,8.6094,8.6094,8.6094,8.6094,8.6094,8.6094,8.6094,8.6094,8.6094,8.6094,8.6094,8.6094,8.6094,8.6094,8.6094,8.5709,8.5363,8.5363,8.5363,8.5363,8.5363,8.6555,8.7401,8.7401,8.844,8.9286,8.9633,8.9325,8.9517,9.0364,9.0902,9.1441,9.1979,9.1479,9.1441,9.2018,9.1479,9.121,9.121,9.2595,9.3403,9.371,9.5134,9.598,7.4899,7.74,8.0015,8.09,0.0,0.0,8.8632,8.844,8.7709,8.8863,8.7286,0.0,8.3862,0.0,0.0,8.5093,8.5978,8.6824,8.7671,8.7286,8.7055,8.7363,8.7401,8.7401,8.7401,8.8709,8.9286,8.8748,8.921,8.8902,8.7478,8.7979,8.8286,8.8286,8.8556,8.9248,9.0402,9.0056,9.0056,9.0402,9.0941,9.121,9.121,9.121,9.121,9.121,9.121,9.121,9.121,9.121,9.071,8.9748,8.8363,8.8017,8.8094,8.6632,8.6094,8.6094,8.6094,8.6094,8.6055,8.5786,8.5709,8.567,8.5401,8.5324,8.5363,8.5632,8.5709,8.5786,8.6017,8.6094,8.6094,8.6094,8.6094,8.6094,8.6094,8.6094,8.6094,8.6094,8.6094,8.6017,8.5747,8.5478,8.5209,8.4939,8.5132,8.5286,8.5286,8.6286,8.7094,8.7363,8.7671,8.8094,8.8632,8.844,8.8748,8.9825,9.0479,9.1171,9.2056,9.1518,9.1479,9.2095,9.1518,9.121,9.121,9.2633,9.3441,9.3749,9.5211,9.6057,7.5745,7.7861,8.0015,8.0862,0.0,0.0,8.7902,8.8017,8.7863,8.9556,8.7248,8.4632,8.3747,8.3593,0.0,8.5824,8.6824,8.7671,8.8556,8.8671,8.8363,8.7517,8.7401,8.7401,8.7401,8.8171,8.8671,8.8671,8.8671,8.8286,8.744,8.7401,8.738,8.7418,8.8226,8.8688,8.8726,8.9479,8.9479,8.8726,9.0364,9.1171,9.121,9.121,9.121,9.121,9.121,9.121,9.121,9.121,9.0671,8.9825,8.9017,8.8171,8.7325,8.644,8.6094,8.6094,8.6094,8.6094,8.5978,8.517,8.4901,8.4747,8.3862,8.3593,8.3785,8.467,8.4901,8.5093,8.5901,8.6094,8.6094,8.6094,8.6094,8.6094,8.6094,8.6094,8.6094,8.6094,8.6094,8.5863,8.5055,8.5555,8.5786,8.5016,8.5555,8.6094,8.6094,8.6094,8.644,8.7286,8.6632,8.6786,8.8517,8.7863,8.8094,8.9787,8.9902,9.0287,9.1171,9.121,9.121,9.121,9.121,9.121,9.121,9.2095,9.2941,9.371,9.4595,9.548,7.5168,7.74,0.0,8.0131,0.0,0.0,0.0,8.7632,0.0,0.0,8.6824,8.4824,8.4555,8.4516,0.0,8.517,8.594,8.6786,8.7671,8.7248,8.7017,8.7363,8.6863,8.6478,8.6478,8.7286,8.7517,8.6901,8.744,8.7401,8.6517,8.6645,8.702,8.7599,8.7444,8.7946,8.91,8.861,8.8552,8.89,8.9283,8.9748,9.0325,9.0941,9.121,9.121,9.121,9.121,9.1171,9.0556,9.0479,9.0633,8.8594,8.7979,8.8132,8.6632,8.6094,8.6094,8.6094,8.5747,8.5209,8.4978,8.4478,8.3939,8.367,8.3593,8.3785,8.467,8.4901,8.5093,8.5901,8.6094,8.6094,8.6094,8.6094,8.6094,8.6094,8.6094,8.6094,8.6094,8.6094,8.5863,8.5055,8.4593,8.4055,8.3208,8.3785,8.4786,8.594,8.6094,8.6209,8.6478,8.6247,8.6324,8.6824,8.6632,8.7209,8.894,8.9056,8.971,9.1133,9.121,9.121,9.121,9.1787,9.2095,9.2133,9.3557,9.4364,9.4634,9.5518,9.6057,7.713,7.9246,0.0,8.2131,8.4747,8.7325,8.7979,0.0,0.0,0.0,8.694,8.5401,8.5401,8.5132,8.5132,8.5786,8.6286,8.6786,8.7325,8.694,8.6671,8.6863,8.644,8.6094,8.6094,8.6901,8.7055,8.617,8.6901,8.7017,8.617,8.636,8.6867,8.7681,8.7118,8.7439,8.8793,8.8068,8.7784,8.8017,8.8498,8.894,8.944,9.0287,9.0864,9.121,9.121,9.121,9.1133,9.0287,9.021,9.0479,8.8248,8.7709,8.8017,8.6632,8.6094,8.6055,8.5747,8.5324,8.4786,8.4093,8.3516,8.3093,8.3093,8.3093,8.3324,8.4555,8.467,8.4632,8.5786,8.5863,8.5709,8.6017,8.6094,8.6094,8.6094,8.6094,8.6094,8.6094,8.6094,8.5863,8.5055,8.4478,8.3824,8.2939,8.3555,8.4593,8.594,8.6094,8.6094,8.6094,8.6094,8.6094,8.6094,8.6094,8.6824,8.8594,8.8709,8.944,9.1133,9.121,9.121,9.121,9.2056,9.2479,9.2479,9.3826,9.4634,9.5018,9.5518,9.598,8.0208,8.2208,8.3978,8.5593,8.7401,0.0,9.0825,8.9902,8.8709,8.8709,0.0,8.6209,8.6094,8.5517,8.5517,8.7017,8.7286,8.7286,8.7286,8.7286,8.6978,8.6209,8.6094,8.6094,8.6094,8.6824,8.694,8.617,8.6824,8.6995,8.6274,8.6415,8.689,8.7751,8.7166,8.7199,8.7986,8.7741,8.7216,8.6519,8.7843,8.8479,8.8594,8.9517,9.0402,9.121,9.121,9.1171,9.1018,9.0171,8.9787,8.9633,8.794,8.7325,8.7286,8.644,8.6094,8.6017,8.5247,8.4901,8.4516,8.2939,8.2324,8.2208,8.2285,8.2285,8.2631,8.4324,8.4286,8.4055,8.5593,8.5517,8.5209,8.594,8.6094,8.6094,8.6017,8.5978,8.5978,8.5901,8.594,8.5709,8.4824,8.4747,8.4516,8.3708,8.4286,8.5093,8.5978,8.6094,8.6094,8.6094,8.6094,8.6094,8.6094,8.6094,8.6824,8.8479,8.8671,8.9402,9.1018,9.1171,9.121,9.121,9.2133,9.2595,9.2595,9.348,9.4326,9.5095,9.5095,9.5518,7.8746,8.1285,0.0,8.4901,8.744,8.994,9.0979,8.9902,8.8709,8.8709,8.7863,8.6901,8.6247,8.5978,8.5978,8.6324,8.6363,8.6363,8.6363,8.6363,8.6324,8.6132,8.6094,8.6094,8.6094,8.6286,8.6286,8.6094,8.6286,8.6662,8.7331,8.6948,8.7214,8.8227,8.7442,8.7141,8.7302,8.6943,8.6674,8.6519,8.6609,8.7017,8.7709,8.921,9.0402,9.121,9.121,9.0825,9.0133,8.9286,8.894,8.8786,8.7055,8.6786,8.7286,8.644,8.6094,8.6094,8.5901,8.4978,8.3824,8.3439,8.2439,8.1477,8.2093,8.2285,8.2516,8.3593,8.4247,8.4709,8.5055,8.5517,8.5901,8.6055,8.6094,8.594,8.5286,8.517,8.4978,8.4286,8.4709,8.467,8.3131,8.3439,8.3824,8.3632,8.3747,8.4401,8.5901,8.6094,8.6094,8.6094,8.6094,8.6094,8.6094,8.6094,8.6555,8.7594,8.8325,8.9133,9.0133,9.0825,9.121,9.121,9.2672,9.3441,9.3441,9.498,9.5826,9.6019,9.6019,9.6134,7.9169,8.1939,0.0,8.7286,0.0,9.0633,9.1095,9.021,8.9286,8.9286,8.8286,8.7132,8.6247,8.644,8.6594,8.617,8.6094,8.6094,8.6094,8.6094,8.6094,8.6094,8.6094,8.6094,8.6094,8.6094,8.6094,8.6094,8.6208,8.6553,8.71,8.6924,8.7261,8.8215,8.7397,8.7163,8.7553,8.6874,8.6519,8.6519,8.6223,8.6555,8.744,8.9133,8.994,9.0017,9.0402,9.0094,8.9248,8.8402,8.8055,8.794,8.6632,8.6363,8.6709,8.6286,8.6094,8.6055,8.567,8.467,8.3516,8.3093,8.2131,8.1246,8.2054,8.2285,8.2554,8.3862,8.4247,8.4478,8.5286,8.5209,8.5093,8.5901,8.6094,8.5978,8.5555,8.517,8.4901,8.4824,8.4863,8.4747,8.4209,8.3824,8.3747,8.417,8.3862,8.4209,8.5901,8.6094,8.6094,8.6094,8.6094,8.6094,8.6094,8.6094,8.6478,8.7325,8.8209,8.9056,8.9863,9.0748,9.121,9.121,9.2864,9.371,9.371,9.5441,9.6288,9.6288,9.6288,9.6288,7.9361,8.2401,8.5709,8.994,9.0979,0.0,9.1171,9.0517,8.9863,8.971,8.8594,8.7363,8.6478,8.7055,8.7286,8.6286,8.6247,8.6286,8.6132,8.6094,8.6094,8.6094,8.6094,8.6094,8.6094,8.6094,8.6094,8.6094,8.6288,8.6572,8.6906,8.6796,8.7241,8.8265,8.7288,8.7067,8.7815,8.6913,8.6507,8.6661,8.6408,8.6632,8.7248,8.8786,8.921,8.8748,8.9402,8.9248,8.8402,8.7709,8.7325,8.7094,8.6363,8.6094,8.6094,8.6094,8.6094,8.6017,8.5363,8.4439,8.3478,8.2747,8.1862,8.1246,8.2054,8.2285,8.2631,8.4247,8.4247,8.4132,8.5517,8.4863,8.4209,8.5747,8.5901,8.567,8.567,8.517,8.4786,8.517,8.4709,8.4516,8.5324,8.4286,8.367,8.4555,8.417,8.4362,8.5901,8.6094,8.6094,8.6094,8.6094,8.6094,8.6094,8.6094,8.6478,8.7325,8.8209,8.9056,8.9863,9.0748,9.121,9.121,9.271,9.3557,9.371,9.5288,9.6134,9.6288,9.6288,9.6288,7.6169,0.0,8.4786,0.0,9.0094,9.0287,0.0,0.0,8.971,0.0,8.8671,8.8248,8.7401,8.794,8.7979,8.6363,8.6748,8.6978,8.6209,8.6094,8.6094,8.6094,8.6094,8.6094,8.6094,8.6094,8.6094,8.6094,8.6143,8.6886,8.8571,8.7304,8.7325,8.9074,8.7463,8.658,8.6696,8.6351,8.6522,8.7292,8.7242,8.6901,8.6324,8.7286,8.8094,8.8709,8.8786,8.8363,8.7555,8.744,8.694,8.6247,8.617,8.6094,8.6094,8.6094,8.6094,8.6094,8.5978,8.4901,8.3555,8.3439,8.2362,8.1246,8.2054,8.2285,8.2516,8.3478,8.4247,8.4786,8.5016,8.4901,8.4978,8.5901,8.4978,8.3939,8.3939,8.3862,8.3362,8.2016,8.167,8.1862,8.267,8.2631,8.2785,8.3632,8.4324,8.5055,8.5978,8.6094,8.6094,8.6094,8.6094,8.6094,8.6094,8.6094,8.6478,8.7325,8.8209,8.9056,8.9863,9.0748,9.121,9.121,9.2172,9.2979,9.371,9.4672,9.5557,9.6288,9.6288,9.6288,7.6284,7.9746,8.3208,0.0,8.8517,8.8748,8.9594,8.9133,8.8556,8.8671,8.8286,8.7709,8.6824,8.7363,8.7555,8.6286,8.644,8.6555,8.617,8.6094,8.6094,8.6094,8.6094,8.6094,8.6094,8.6094,8.6094,8.6094,8.6238,8.671,8.7565,8.6906,8.689,8.7686,8.6803,8.6283,8.6283,8.6153,8.6286,8.6671,8.6671,8.6478,8.6094,8.6517,8.6863,8.7286,8.7748,8.7478,8.6671,8.6671,8.644,8.6094,8.6094,8.6094,8.6094,8.6094,8.6094,8.6055,8.5593,8.4632,8.3516,8.3016,8.2054,8.117,8.1516,8.1631,8.1785,8.2631,8.3131,8.367,8.467,8.417,8.3785,8.5132,8.4132,8.2862,8.2862,8.2862,8.2631,8.19,8.217,8.2593,8.2978,8.3016,8.3324,8.4209,8.467,8.5209,8.6017,8.6094,8.6094,8.6094,8.6094,8.6094,8.6094,8.6094,8.6478,8.7325,8.8209,8.9056,8.9863,9.0748,9.121,9.121,9.2056,9.2672,9.3018,9.3864,9.4711,9.5557,9.5557,9.5826,7.5515,7.8169,8.0477,8.4747,8.6009,8.6572,0.0,0.0,8.7379,8.8192,8.7863,8.7132,8.6247,8.6978,8.7363,8.6286,8.6286,8.6363,8.6132,8.6094,8.6094,8.6094,8.6094,8.6094,8.6094,8.6094,8.6094,8.6094,8.6298,8.6505,8.6737,8.6737,8.6737,8.6737,8.6524,8.6324,8.6094,8.6324,8.6324,8.6094,8.6324,8.6324,8.6094,8.6094,8.6094,8.6132,8.6786,8.6709,8.6094,8.6094,8.6094,8.6094,8.6094,8.6094,8.6094,8.6094,8.6094,8.5978,8.517,8.4324,8.3439,8.2593,8.1747,8.1093,8.1093,8.1093,8.1285,8.2054,8.2285,8.2708,8.4439,8.3785,8.3016,8.4555,8.3555,8.2285,8.2285,8.2131,8.2016,8.2016,8.2516,8.2939,8.2939,8.3324,8.3747,8.417,8.4786,8.5363,8.5747,8.5978,8.6094,8.6094,8.6094,8.6094,8.6094,8.6094,8.6555,8.7671,8.8325,8.9171,9.021,9.0864,9.121,9.121,9.1825,9.2287,9.2479,9.3095,9.3826,9.4672,9.4672,9.5018,7.1783,7.3745,7.6053,8.0362,8.2197,8.3754,8.6778,8.7005,8.6717,8.7355,8.744,8.7132,8.6247,8.7478,8.8055,8.6363,8.6786,8.7055,8.6209,8.6094,8.6094,8.6094,8.6094,8.6094,8.6094,8.6094,8.6094,8.6094,8.611,8.6473,8.7319,8.7358,8.7358,8.7358,8.7341,8.694,8.6094,8.6901,8.6901,8.6094,8.694,8.6901,8.6094,8.6094,8.6094,8.6094,8.617,8.6132,8.6094,8.6094,8.6094,8.6094,8.6094,8.6094,8.6094,8.6094,8.6094,8.5978,8.517,8.4324,8.3439,8.2593,8.1747,8.1093,8.1093,8.1093,8.1285,8.2054,8.2285,8.2708,8.4439,8.4209,8.3747,8.467,8.3555,8.2285,8.2285,8.1708,8.117,8.117,8.1208,8.1246,8.1246,8.2554,8.3324,8.2554,8.4478,8.5786,8.5055,8.5632,8.6094,8.6094,8.6094,8.6094,8.6094,8.6094,8.6824,8.8517,8.8671,8.944,9.1056,9.1171,9.121,9.121,9.1248,9.1672,9.2479,9.2556,9.2979,9.3749,9.3749,9.3787,0.0,0.0,7.3036,7.7079,7.8923,8.0173,8.1849,8.3173,8.4268,8.5016,8.5521,8.5863,8.6055,8.6594,8.6824,8.6209,8.6363,8.6632,8.6901,8.694,8.7132,8.7709,8.7286,8.694,8.694,8.644,8.6094,8.6094,8.6632,8.7055,8.7363,8.7484,8.7274,8.6757,8.6316,8.5703,8.4888,8.5586,8.5514,8.4691,8.5958,8.5824,8.4516,8.5593,8.5517,8.4516,8.5093,8.5632,8.6094,8.6094,8.6094,8.6094,8.6094,8.6094,8.6055,8.5517,8.567,8.5824,8.3901,8.3401,8.3362,8.1977,8.1323,8.1093,8.1093,8.1093,8.117,8.1439,8.1516,8.1785,8.2939,8.2631,8.2054,8.2401,8.1977,8.1516,8.1516,8.1285,8.1093,8.1093,8.1093,8.1093,8.1093,8.2016,8.267,8.2362,8.4016,8.5247,8.4939,8.5593,8.6094,8.6094,8.6094,8.6094,8.6094,8.6094,8.6824,8.8594,8.8709,8.944,9.1133,9.121,9.121,9.121,9.0671,9.0517,9.0825,9.1402,9.1825,9.2095,9.2672,9.2968,6.8133,0.0,0.0,0.0,7.5469,7.6436,7.9093,8.045,8.1603,8.3176,8.4246,8.5055,8.5593,8.594,8.6209,8.6478,8.6555,8.6824,8.7709,8.7825,8.794,8.8209,8.7748,8.7286,8.6978,8.644,8.6094,8.6094,8.6901,8.7401,8.7401,8.7752,8.748,8.6438,8.5498,8.4745,8.4203,8.4302,8.4208,8.39,8.4612,8.4498,8.3632,8.4747,8.4824,8.4055,8.4324,8.4939,8.567,8.5363,8.5593,8.6055,8.5786,8.5709,8.5632,8.5093,8.5055,8.4978,8.2978,8.267,8.2939,8.1554,8.1093,8.1093,8.1093,8.1093,8.1093,8.1093,8.1093,8.1285,8.2093,8.19,8.1516,8.1516,8.1285,8.1093,8.1093,8.1093,8.1093,8.1093,8.1093,8.1093,8.1093,8.1785,8.2208,8.1939,8.3362,8.4362,8.4055,8.5016,8.5709,8.5709,8.594,8.6094,8.6094,8.6094,8.6709,8.8171,8.8517,8.9325,9.071,9.1056,9.1056,9.0787,9.021,8.9633,8.9056,9.021,9.0775,9.0839,9.1433,9.1768,0.0,0.0,0.0,0.0,0.0,7.252,7.8756,7.9056,7.8842,8.1931,8.3747,8.4786,8.4901,8.5555,8.6363,8.7248,8.7401,8.7709,8.8556,8.8709,8.844,8.7594,8.7478,8.7132,8.6247,8.617,8.6132,8.6094,8.694,8.744,8.744,8.8192,8.7923,8.6396,8.4883,8.4129,8.4092,8.3311,8.3188,8.3804,8.3081,8.3025,8.3516,8.3555,8.4016,8.4747,8.3939,8.4093,8.4786,8.3939,8.4555,8.5978,8.517,8.4901,8.4901,8.4863,8.4286,8.3478,8.2593,8.2285,8.217,8.1362,8.1093,8.1093,8.1093,8.1093,8.1093,8.1093,8.1093,8.1285,8.2054,8.2247,8.2247,8.2247,8.167,8.1093,8.1093,8.1093,8.1093,8.1093,8.1093,8.1093,8.1093,8.1747,8.2016,8.1208,8.2477,8.3247,8.2401,8.3824,8.4901,8.4901,8.5632,8.6094,8.6094,8.6094,8.6478,8.7325,8.8171,8.9017,8.9863,9.071,9.0748,8.994,8.9863,8.9056,8.744,8.9038,8.9899,9.004,9.0035,9.0172,6.4632,0.0,0.0,0.0,0.0,0.0,7.232,7.3699,7.5361,7.8696,8.0333,8.1977,8.4439,8.5093,8.5709,8.7171,8.7401,8.7709,8.8556,8.921,8.971,9.0094,8.9594,8.8902,8.8055,8.7401,8.6786,0.0,8.7478,8.8325,8.8325,8.7666,8.6563,8.5022,8.352,8.2473,8.1881,8.2542,8.2364,8.1377,8.2741,8.2787,8.1823,8.3054,8.3054,8.2208,8.317,8.3747,8.3939,8.3708,8.4247,8.517,8.4286,8.4324,8.4747,8.3478,8.3247,8.3401,8.1939,8.1823,8.217,8.1362,8.1093,8.1093,8.1093,8.1093,8.1093,8.1093,8.1093,8.1131,8.1362,8.1439,8.1439,8.1439,8.1246,8.1093,8.1093,8.1093,8.1093,8.1093,8.1093,8.1093,8.1093,8.1285,8.1362,8.1131,8.1977,8.2554,8.2324,8.3824,8.4901,8.4901,8.5632,8.6094,8.6094,8.6094,8.6478,8.7325,8.7632,8.8402,8.9863,8.9556,8.9556,8.9902,8.8709,8.8171,8.8325,8.8328,8.8301,8.8281,8.8556,8.8973,0.0,0.0,0.0,0.0,0.0,0.0,7.0686,7.1995,7.3418,7.6676,7.8382,8.0092,8.2824,8.3593,8.4362,8.6094,8.694,8.7825,8.9017,9.0248,9.0902,9.0671,9.0517,8.9979,8.8786,8.7902,8.7171,8.6671,8.7594,8.8046,8.7751,8.6483,8.516,8.3934,8.2486,8.1613,8.1403,8.1445,8.1242,8.0785,8.169,8.176,8.1131,8.2093,8.2208,8.1631,8.2285,8.2747,8.3054,8.3054,8.3785,8.4786,8.3555,8.3362,8.3708,8.267,8.2401,8.2401,8.1439,8.14,8.1708,8.1246,8.1093,8.1093,8.1093,8.1093,8.1093,8.1093,8.1093,8.1093,8.1093,8.1093,8.1093,8.1093,8.1093,8.1093,8.1093,8.1093,8.1093,8.1093,8.1093,8.1093,8.1093,8.1093,8.1093,8.1093,8.1516,8.1785,8.1785,8.2978,8.3939,8.4324,8.5093,8.5747,8.6055,8.6094,8.6324,8.6824,8.7209,8.8017,8.9325,8.894,8.8902,8.9402,8.8094,8.721,8.681,8.7052,8.7208,8.7286,8.719,8.7577,0.0,0.0,0.0,0.0,0.0,0.0,7.1561,7.1949,7.2171,7.5304,7.6956,7.8431,8.0323,8.1323,8.2401,8.4093,8.5901,8.7748,8.9517,9.1325,9.1941,9.0364,9.0864,9.071,8.9133,8.8171,8.7632,8.7555,8.7466,8.7119,8.6468,8.5117,8.4038,8.3227,8.1858,8.136,8.1826,8.0377,8.0142,8.1085,8.0427,8.0389,8.0991,8.1077,8.1477,8.2131,8.1516,8.1631,8.2285,8.2285,8.3285,8.4593,8.2939,8.2362,8.2401,8.2247,8.1785,8.1208,8.1131,8.1208,8.1362,8.117,8.117,8.1246,8.1246,8.117,8.1093,8.1093,8.1093,8.1093,8.1093,8.1093,8.1093,8.1093,8.1093,8.1093,8.1093,8.1093,8.1093,8.1093,8.1093,8.1093,8.1093,8.1093,8.1093,8.1093,8.1093,8.1093,8.1093,8.1785,8.2593,8.3362,8.4324,8.5209,8.5901,8.6055,8.6094,8.6094,8.6824,8.7632,8.8517,8.844,8.844,8.8556,8.7709,8.6279,8.43,8.5659,8.6415,8.6645,8.6172,8.6323,6.3176,6.3663,6.4503,6.4733,0.0,0.0,6.8278,6.847,6.9237,7.2885,7.3687,7.4643,7.7508,7.8707,7.9592,8.0631,8.3401,8.6209,8.8594,9.0979,9.2364,9.2018,9.2133,9.1825,9.0825,8.994,8.9133,8.8479,8.7945,8.7345,8.659,8.5187,8.4038,8.3227,8.2412,8.17,8.1161,8.0687,8.0244,7.9826,8.0038,8.0163,8.0315,8.0855,8.1208,8.1362,8.1862,8.2131,8.2285,8.2285,8.2901,8.3747,8.2708,8.2708,8.317,8.1823,8.1631,8.1977,8.1323,8.1977,8.2901,8.1554,8.1554,8.2054,8.2054,8.1593,8.1093,8.1093,8.1093,8.1093,8.1093,8.1093,8.1093,8.1093,8.1093,8.1093,8.1093,8.1093,8.1093,8.1093,8.1093,8.1093,8.1093,8.1093,8.1093,8.1093,8.1093,8.1093,8.1093,8.1785,8.2362,8.2554,8.3978,8.4978,8.5132,8.5747,8.6094,8.6094,8.6247,8.6748,8.7632,8.6978,8.694,8.7632,8.6786,8.5892,8.4915,8.537,8.5402,8.5058,8.6158,8.7149,0.0,0.0,6.375,6.4499,0.0,0.0,0.0,6.7404,6.8115,7.1008,7.1822,7.2737,7.5151,7.6257,7.7301,7.8713,8.1041,8.3312,8.5011,8.9055,9.171,9.1248,9.1644,9.174,9.1269,9.009,8.8883,8.7638,8.626,8.5298,8.4931,8.3863,8.3146,8.2708,8.1971,8.135,8.0866,8.0357,7.985,7.9354,7.987,8.0125,8.0125,8.0783,8.1093,8.1131,8.1516,8.1708,8.1747,8.2131,8.2554,8.2901,8.2477,8.2824,8.3478,8.267,8.2324,8.2247,8.1823,8.1977,8.2208,8.1362,8.1362,8.1708,8.1708,8.14,8.1093,8.1093,8.1093,8.1093,8.1093,8.1093,8.1093,8.1093,8.1093,8.1093,8.1093,8.1093,8.1093,8.1093,8.1093,8.1093,8.1093,8.1093,8.1093,8.1093,8.1093,8.1093,8.1093,8.1439,8.1862,8.2247,8.3478,8.4439,8.4863,8.5632,8.6094,8.6094,8.6094,8.6478,8.7363,8.6555,8.6324,8.6748,8.6324,8.5793,8.5121,8.5203,8.5147,8.5023,8.62,8.7192,0.0,0.0,0.0,0.0,0.0,6.4977,0.0,0.0,0.0,6.9266,7.0153,7.1046,7.2505,7.3571,7.4771,7.6387,7.8308,7.9781,8.0499,8.5543,8.9093,8.8844,8.9693,9.022,9.011,8.8679,8.7411,8.6497,8.429,8.3057,8.3247,8.2571,8.2186,8.2186,8.1562,8.107,8.0774,7.9985,7.945,7.926,7.9697,7.9989,8.0125,8.0783,8.1093,8.1093,8.1093,8.1093,8.1131,8.1785,8.217,8.2285,8.2285,8.2824,8.3555,8.3247,8.2862,8.2516,8.217,8.1862,8.1516,8.1208,8.1208,8.1285,8.1131,8.1208,8.1285,8.1131,8.1093,8.1093,8.1093,8.1093,8.1093,8.1093,8.1093,8.1093,8.1093,8.1093,8.1093,8.1093,8.1093,8.1093,8.1093,8.1093,8.1093,8.1093,8.1093,8.1093,8.1093,8.1093,8.1362,8.2016,8.2824,8.3708,8.4593,8.5401,8.594,8.6094,8.6094,8.644,8.7132,8.6478,8.6094,8.6094,8.6094,8.5828,8.53,8.53,8.5328,8.5437,8.619,8.7071,0.0,0.0,0.0,0.0,6.4677,0.0,0.0,0.0,6.5927,6.7336,0.0,0.0,0.0,0.0,0.0,0.0,0.0,7.6192,7.6306,7.9485,8.2566,8.4711,8.5678,8.6147,8.6142,8.4694,8.4524,8.6454,8.3827,8.2519,8.3304,8.2655,8.2186,8.2186,8.2113,8.1705,8.0956,8.0178,7.9653,7.946,7.9349,7.9578,8.0125,8.0783,8.1093,8.1093,8.1093,8.1093,8.1093,8.1208,8.167,8.2285,8.2285,8.2824,8.3401,8.1939,8.2247,8.3247,8.1747,8.2131,8.3054,8.1593,8.1593,8.2016,8.1323,8.1593,8.2016,8.1285,8.1093,8.1093,8.1093,8.1093,8.1093,8.1093,8.1093,8.1093,8.1093,8.1093,8.1093,8.1093,8.1093,8.1093,8.1093,8.1093,8.1093,8.1093,8.1093,8.1093,8.1093,8.1093,8.1131,8.1246,8.1939,8.2785,8.367,8.4555,8.5363,8.6055,8.6094,8.6132,8.6247,8.617,8.6094,8.6094,8.6094,8.606,8.5971,8.5971,8.5799,8.5399,8.6108,8.7264,0.0,0.0,0.0,0.0,0.0,0.0,6.4677,0.0,6.4843,0.0,0.0,0.0,0.0,0.0,0.0,0.0,7.1888,0.0,7.3104,7.5139,7.8162,8.234,0.0,0.0,8.3926,8.3271,8.3278,8.4379,8.196,8.0947,8.1962,8.1709,8.1709,8.2186,8.2554,8.2133,8.0844,8.0861,8.0383,7.9317,7.9576,7.9868,8.0125,8.0783,8.1093,8.1093,8.1093,8.1093,8.1093,8.1093,8.1285,8.1593,8.1593,8.2401,8.3516,8.2785,8.267,8.2747,8.2054,8.1939,8.2016,8.1323,8.1323,8.1554,8.1208,8.1323,8.1516,8.1208,8.1093,8.1093,8.1093,8.1093,8.1093,8.1093,8.1093,8.1093,8.1093,8.1093,8.1093,8.1093,8.1093,8.1093,8.1093,8.1093,8.1093,8.1093,8.1093,8.1093,8.1093,8.1093,8.1093,8.1093,8.1823,8.2439,8.2824,8.4093,8.5055,8.5401,8.5863,8.6094,8.6094,8.6094,8.6094,8.6094,8.6094,8.6094,8.6094,8.6094,8.6003,8.5815,8.6624,8.7369,6.2853,0.0,0.0,0.0,0.0,0.0,0.0,0.0,0.0,0.0,0.0,0.0,0.0,0.0,0.0,0.0,0.0,7.066,0.0,7.2018,0.0,0.0,0.0,0.0,0.0,8.1393,8.1246,8.2687,8.0278,7.9428,8.1074,8.101,8.1237,8.2036,8.2742,8.2312,8.064,8.1332,8.0952,7.9447,7.9888,8.0182,8.037,8.0871,8.1093,8.1093,8.1093,8.1093,8.1093,8.1093,8.1093,8.1108,8.1176,8.1914,8.2993,8.2993,8.2782,8.2455,8.2223,8.173,8.1181,8.1181,8.1146,8.1093,8.1093,8.1093,8.1093,8.1093,8.1093,8.1093,8.1093,8.1093,8.1093,8.1093,8.1093,8.1093,8.1093,8.1093,8.1093,8.1093,8.1093,8.1093,8.1093,8.1093,8.1093,8.1093,8.1093,8.1093,8.1093,8.1093,8.1093,8.1093,8.1631,8.2054,8.2285,8.3478,8.4286,8.4516,8.5324,8.5786,8.5786,8.5978,8.6094,8.6094,8.6094,8.6094,8.6094,8.6094,8.6094,8.6132,8.6748,8.7171,0.0,0.0,0.0,6.3062,0.0,0.0,0.0,0.0,6.4115,0.0,0.0,0.0,0.0,0.0,0.0,0.0,0.0,0.0,0.0,0.0,0.0,0.0,0.0,0.0,0.0,7.7965,7.7652,8.2256,7.9163,7.8398,8.143,8.103,8.1014,8.1581,8.2446,8.2093,8.0448,8.1287,8.1157,8.0048,8.0067,8.0445,8.1077,8.1093,8.1093,8.1093,8.1093,8.1093,8.1093,8.1093,8.1093,8.1139,8.1311,8.1434,8.1472,8.1472,8.2114,8.2854,8.2006,8.1553,8.1395,8.1395,8.1244,8.1093,8.1093,8.1093,8.1093,8.1093,8.1093,8.1093,8.1093,8.1093,8.1093,8.1093,8.1093,8.1093,8.1093,8.1093,8.1093,8.1093,8.1093,8.1093,8.1093,8.1093,8.1093,8.1093,8.1093,8.1093,8.1093,8.1093,8.1093,8.1093,8.1131,8.1439,8.2247,8.2362,8.2747,8.3593,8.4478,8.4939,8.4939,8.5709,8.6094,8.6094,8.6094,8.6094,8.6094,8.6094,8.6094,8.6094,8.6132,8.6594,0.0,0.0,6.4298,6.3088,0.0,0.0,0.0,0.0,0.0,0.0,0.0,0.0,0.0,0.0,0.0,0.0,0.0,0.0,0.0,0.0,0.0,0.0,0.0,0.0,0.0,0.0,7.7429,7.9171,7.8128,0.0,7.983,8.0292,8.0856,8.1579,8.2323,8.2141,8.1001,8.1709,8.1627,8.075,8.075,8.0871,8.1093,8.1093,8.1093,8.1093,8.1093,8.1093,8.1093,8.1093,8.1167,8.1285,8.1371,8.1563,8.1799,8.1662,8.1809,8.2108,8.1797,8.1679,8.1609,8.1609,8.1469,8.1324,8.1324,8.1224,8.1093,8.1093,8.1093,8.1093,8.1093,8.1093,8.1093,8.1093,8.1093,8.1093,8.1093,8.1093,8.1093,8.1093,8.1093,8.1093,8.1093,8.1093,8.1093,8.1093,8.1093,8.1093,8.1093,8.1093,8.1093,8.1093,8.1093,8.1208,8.1477,8.2516,8.3516,8.4401,8.4747,8.4901,8.4901,8.517,8.5324,8.5324,8.5824,8.6094,8.6094,8.6094,8.6094,8.6094,8.6094,8.6247,6.2568,6.3385,0.0,6.3252,6.3516,0.0,6.2965,0.0,0.0,0.0,0.0,0.0,0.0,0.0,0.0,0.0,0.0,0.0,0.0,6.9581,0.0,0.0,0.0,0.0,0.0,0.0,7.7139,7.7879,7.7415,0.0,0.0,7.9675,8.0336,8.1402,8.211,8.209,8.1248,8.1947,8.19,8.1093,8.1093,8.1093,8.1093,8.1093,8.1093,8.1093,8.1093,8.1093,8.1108,8.1167,8.1298,8.1391,8.1553,8.1785,8.1984,8.1861,8.1861,8.1904,8.1904,8.1873,8.1825,8.1825,8.1636,8.1407,8.1407,8.1244,8.1093,8.1093,8.1093,8.1093,8.1093,8.1093,8.1093,8.1093,8.1093,8.1093,8.1093,8.1093,8.1093,8.1093,8.1093,8.1093,8.1093,8.1093,8.1093,8.1093,8.1093,8.1093,8.1093,8.1093,8.1093,8.1093,8.1093,8.1093,8.1093,8.2093,8.3054,8.3939,8.3978,8.4093,8.4439,8.4439,8.4439,8.4439,8.5247,8.567,8.567,8.5978,8.6094,8.6094,8.6094,8.6094]}]]